[[{"header":{"parameterUnit":"m.s-1","parameterCategory":1,"la1":31.0,"la2":29.5877,"lo1":-88.7671,"lo2":-86.6584,"dy":0.0162,"dx":0.0185,"nx":115,"ny":88,"refTime":"2024-04-08T12:00:00:Z","depth":0,"parameterNumber":2,"parameterNumberName":"U-component_of_WINDS"},"data":[0.0,0.0,0.0,0.0,0.0,0.0,0.0,0.0,0.0,0.0,0.0,0.0,0.0,0.0,0.0,0.0,0.0,0.0,0.0,0.0,0.0,0.0,0.0,0.0,0.0,0.0,0.0,0.0,0.0,0.0,0.0,0.0,0.0,0.0,0.0,0.0,0.0,0.0,0.0,0.0,0.0,0.0,0.0,0.0,0.0,0.0,0.0,0.0,0.0,0.0,0.0,0.0,0.0,0.0,0.0,0.0,0.0,0.0,0.0,0.0,0.0,0.0,0.0,0.0,0.0,0.0,0.0,0.0,0.0,0.0,0.0,0.0,0.0,0.0,0.0,0.0,0.0,0.0,0.0,0.0,0.0,0.0,0.0,0.0,0.0,0.0,0.0,0.0,0.0,0.0,0.0,0.0,0.0,0.0,0.0,0.0,0.0,0.0,0.0,0.0,0.0,0.0,0.0,0.0,0.0,0.0,0.0,0.0,0.0,0.0,0.0,0.0,0.0,0.0,0.0,0.0,0.0,0.0,0.0,0.0,0.0,0.0,0.0,0.0,0.0,0.0,0.0,0.0,0.0,0.0,0.0,0.0,0.0,0.0,0.0,0.0,0.0,0.0,0.0,0.0,0.0,0.0,0.0,0.0,0.0,0.0,0.0,0.0,0.0,0.0,0.0,0.0,0.0,0.0,0.0,0.0,0.0,0.0,0.0,0.0,0.0,0.0,0.0,0.0,0.0,0.0,0.0,0.0,0.0,0.0,0.0,0.0,0.0,0.0,0.0,0.0,0.0,0.0,0.0,0.0,0.0,0.0,0.0,0.0,0.0,0.0,0.0,0.0,0.0,0.0,0.0,0.0,0.0,0.0,0.0,0.0,0.0,0.0,0.0,0.0,0.0,0.0,0.0,0.0,0.0,0.0,0.0,0.0,0.0,0.0,0.0,0.0,0.0,0.0,0.0,0.0,0.0,0.0,0.0,0.0,0.0,0.0,0.0,0.0,0.0,0.0,0.0,0.0,0.0,0.0,0.0,0.0,0.0,0.0,0.0,0.0,0.0,0.0,0.0,0.0,0.0,0.0,0.0,0.0,0.0,0.0,0.0,0.0,0.0,0.0,0.0,0.0,0.0,0.0,0.0,0.0,0.0,0.0,0.0,0.0,0.0,0.0,0.0,0.0,0.0,0.0,0.0,0.0,0.0,0.0,0.0,0.0,0.0,0.0,0.0,0.0,0.0,0.0,0.0,0.0,0.0,0.0,0.0,0.0,0.0,0.0,0.0,0.0,0.0,0.0,0.0,0.0,0.0,0.0,0.0,0.0,0.0,0.0,0.0,0.0,0.0,0.0,0.0,0.0,0.0,0.0,0.0,0.0,0.0,0.0,0.0,0.0,0.0,0.0,0.0,0.0,0.0,0.0,0.0,0.0,0.0,0.0,0.0,0.0,0.0,0.0,0.0,0.0,0.0,0.0,0.0,0.0,0.0,0.0,0.0,0.0,0.0,0.0,0.0,0.0,0.0,0.0,0.0,0.0,0.0,0.0,0.0,0.0,0.0,0.0,0.0,0.0,0.0,0.0,0.0,0.0,0.0,0.0,0.0,0.0,0.0,0.0,0.0,0.0,0.0,0.0,0.0,0.0,0.0,0.0,0.0,0.0,0.0,0.0,0.0,0.0,0.0,0.0,0.0,0.0,0.0,0.0,0.0,0.0,0.0,0.0,0.0,0.0,0.0,0.0,0.0,0.0,0.0,0.0,0.0,0.0,0.0,0.0,0.0,0.0,0.0,0.0,0.0,0.0,0.0,0.0,0.0,0.0,0.0,0.0,0.0,0.0,0.0,0.0,0.0,0.0,0.0,0.0,0.0,0.0,0.0,0.0,0.0,0.0,0.0,0.0,0.0,0.0,0.0,0.0,0.0,0.0,0.0,0.0,0.0,0.0,0.0,0.0,0.0,0.0,0.0,0.0,0.0,0.0,0.0,0.0,0.0,0.0,0.0,0.0,0.0,0.0,0.0,0.0,0.0,0.0,0.0,0.0,0.0,0.0,0.0,0.0,0.0,0.0,0.0,0.0,0.0,0.0,0.0,0.0,0.0,0.0,0.0,0.0,0.0,0.0,0.0,0.0,0.0,0.0,0.0,0.0,0.0,0.0,0.0,0.0,0.0,0.0,0.0,0.0,0.0,0.0,0.0,0.0,0.0,0.0,0.0,0.0,0.0,0.0,0.0,0.0,0.0,0.0,0.0,0.0,0.0,0.0,0.0,0.0,0.0,0.0,0.0,0.0,0.0,0.0,0.0,0.0,0.0,0.0,0.0,0.0,0.0,0.0,0.0,0.0,0.0,0.0,0.0,0.0,0.0,0.0,0.0,0.0,0.0,0.0,0.0,0.0,0.0,0.0,0.0,0.0,0.0,0.0,0.0,0.0,0.0,0.0,0.0,0.0,0.0,0.0,0.0,0.0,0.0,0.0,0.0,0.0,0.0,0.0,0.0,0.0,0.0,0.0,0.0,0.0,0.0,0.0,0.0,0.0,0.0,0.0,0.0,0.0,0.0,0.0,0.0,0.0,0.0,0.0,0.0,0.0,0.0,0.0,0.0,0.0,0.0,0.0,0.0,0.0,0.0,0.0,0.0,0.0,0.0,0.0,0.0,0.0,0.0,0.0,0.0,0.0,0.0,0.0,0.0,0.0,0.0,0.0,0.0,0.0,0.0,0.0,0.0,0.0,0.0,0.0,0.0,0.0,0.0,0.0,0.0,0.0,0.0,0.0,0.0,0.0,0.0,0.0,0.0,0.0,0.0,0.0,0.0,0.0,0.0,0.0,0.0,0.0,0.0,0.0,0.0,0.0,0.0,0.0,0.0,0.0,0.0,0.0,0.0,0.0,0.0,0.0,0.0,0.0,0.0,0.0,0.0,0.0,0.0,0.0,0.0,0.0,0.0,0.0,0.0,0.0,0.0,0.0,0.0,0.0,0.0,0.0,0.0,0.0,0.0,0.0,0.0,0.0,0.0,0.0,0.0,0.0,0.0,0.0,0.0,0.0,0.0,0.0,0.0,0.0,0.0,0.0,0.0,0.0,0.0,0.0,0.0,0.0,0.0,0.0,0.0,0.0,0.0,0.0,0.0,0.0,0.0,0.0,0.0,0.0,0.0,0.0,0.0,0.0,0.0,0.0,0.0,0.0,0.0,0.0,0.0,0.0,0.0,0.0,0.0,0.0,0.0,0.0,0.0,0.0,0.0,0.0,0.0,0.0,0.0,0.0,0.0,0.0,0.0,0.0,0.0,0.0,0.0,0.0,0.0,0.0,0.0,0.0,0.0,0.0,0.0,0.0,0.0,0.0,0.0,0.0,0.0,0.0,0.0,0.0,0.0,0.0,0.0,0.0,0.0,0.0,0.0,0.0,0.0,0.0,0.0,0.0,0.0,0.0,0.0,0.0,0.0,0.0,0.0,0.0,0.0,0.0,0.0,0.0,0.0,0.0,0.0,0.0,0.0,0.0,0.0,0.0,0.0,0.0,0.0,0.0,0.0,0.0,0.0,0.0,0.0,0.0,0.0,0.0,0.0,0.0,0.0,0.0,0.0,0.0,0.0,0.0,0.0,0.0,0.0,0.0,0.0,0.0,0.0,0.0,0.0,0.0,0.0,0.0,0.0,0.0,0.0,0.0,0.0,0.0,0.0,0.0,0.0,0.0,0.0,0.0,0.0,0.0,0.0,0.0,0.0,0.0,0.0,0.0,0.0,0.0,0.0,0.0,0.0,0.0,0.0,0.0,0.0,0.0,0.0,0.0,0.0,0.0,0.0,0.0,0.0,0.0,0.0,0.0,0.0,0.0,0.0,0.0,0.0,0.0,0.0,0.0,0.0,0.0,0.0,0.0,0.0,0.0,0.0,0.0,0.0,0.0,0.0,0.0,0.0,0.0,0.0,0.0,0.0,0.0,0.0,0.0,0.0,0.0,0.0,0.0,0.0,0.0,0.0,0.0,0.0,0.0,0.0,0.0,0.0,0.0,0.0,0.0,0.0,0.0,0.0,0.0,0.0,0.0,0.0,0.0,0.0,0.0,0.0,0.0,0.0,0.0,0.0,0.0,0.0,0.0,0.0,0.0,0.0,0.0,0.0,0.0,0.0,0.0,0.0,0.0,0.0,0.0,0.0,0.0,0.0,0.0,0.0,0.0,0.0,0.0,0.0,0.0,0.0,0.0,0.0,0.0,0.0,0.0,0.0,0.0,0.0,0.0,0.0,0.0,0.0,0.0,0.0,0.0,0.0,0.0,-2.4704,0.0,0.0,0.0,0.0,0.0,0.0,0.0,0.0,0.0,0.0,0.0,0.0,0.0,0.0,0.0,0.0,0.0,0.0,0.0,0.0,0.0,0.0,0.0,0.0,0.0,0.0,0.0,0.0,0.0,0.0,0.0,0.0,0.0,0.0,0.0,0.0,0.0,0.0,0.0,0.0,0.0,0.0,0.0,0.0,0.0,0.0,0.0,0.0,0.0,0.0,0.0,0.0,0.0,0.0,0.0,0.0,0.0,0.0,0.0,0.0,0.0,0.0,0.0,0.0,0.0,0.0,0.0,0.0,0.0,0.0,0.0,0.0,0.0,0.0,0.0,0.0,0.0,0.0,0.0,0.0,0.0,0.0,0.0,0.0,0.0,0.0,0.0,0.0,0.0,0.0,0.0,0.0,0.0,0.0,0.0,0.0,0.0,0.0,0.0,0.0,0.0,0.0,0.0,0.0,0.0,0.0,0.0,0.0,0.0,0.0,-2.5651,-2.4222,-2.7295,-2.7482,-2.4401,0.0,0.0,0.0,0.0,0.0,0.0,0.0,0.0,0.0,0.0,0.0,0.0,0.0,0.0,0.0,0.0,0.0,0.0,0.0,0.0,0.0,0.0,0.0,0.0,0.0,0.0,0.0,0.0,0.0,0.0,0.0,0.0,0.0,0.0,0.0,0.0,0.0,0.0,0.0,0.0,0.0,0.0,0.0,0.0,0.0,0.0,0.0,0.0,0.0,0.0,0.0,0.0,0.0,0.0,0.0,0.0,0.0,0.0,0.0,0.0,0.0,0.0,0.0,0.0,0.0,0.0,0.0,0.0,0.0,0.0,0.0,0.0,0.0,0.0,0.0,0.0,0.0,0.0,0.0,0.0,0.0,0.0,0.0,0.0,0.0,0.0,0.0,0.0,0.0,0.0,0.0,0.0,0.0,0.0,0.0,0.0,0.0,0.0,0.0,0.0,0.0,0.0,0.0,0.0,0.0,0.0,0.0,0.0,0.0,0.0,0.0,0.0,-2.7112,-2.7299,-2.4887,0.0,0.0,0.0,0.0,0.0,0.0,0.0,0.0,0.0,0.0,0.0,0.0,0.0,0.0,0.0,0.0,0.0,0.0,0.0,0.0,0.0,0.0,0.0,0.0,0.0,0.0,0.0,0.0,0.0,0.0,0.0,0.0,0.0,0.0,0.0,0.0,0.0,0.0,0.0,0.0,0.0,0.0,0.0,0.0,0.0,0.0,0.0,0.0,0.0,0.0,0.0,0.0,0.0,0.0,0.0,0.0,0.0,0.0,0.0,0.0,0.0,0.0,0.0,0.0,0.0,0.0,0.0,0.0,0.0,0.0,0.0,0.0,0.0,0.0,0.0,0.0,0.0,0.0,0.0,0.0,0.0,0.0,0.0,0.0,0.0,0.0,0.0,0.0,0.0,0.0,0.0,0.0,0.0,0.0,0.0,0.0,0.0,0.0,0.0,0.0,0.0,0.0,0.0,0.0,0.0,0.0,0.0,0.0,0.0,0.0,-2.4884,-2.6234,-2.6617,0.0,-2.6337,0.0,0.0,0.0,0.0,0.0,0.0,0.0,0.0,0.0,0.0,0.0,0.0,0.0,0.0,0.0,0.0,0.0,0.0,0.0,0.0,0.0,0.0,0.0,0.0,0.0,0.0,0.0,0.0,0.0,0.0,0.0,0.0,0.0,0.0,0.0,0.0,0.0,0.0,0.0,0.0,0.0,0.0,0.0,0.0,0.0,0.0,0.0,0.0,0.0,0.0,0.0,0.0,0.0,0.0,0.0,0.0,0.0,0.0,0.0,0.0,0.0,0.0,0.0,0.0,0.0,0.0,0.0,0.0,0.0,0.0,0.0,0.0,0.0,0.0,0.0,0.0,0.0,0.0,0.0,0.0,0.0,0.0,0.0,0.0,0.0,0.0,0.0,0.0,0.0,0.0,0.0,0.0,0.0,0.0,0.0,0.0,0.0,0.0,0.0,0.0,0.0,0.0,0.0,0.0,0.0,0.0,0.0,0.0,0.0,0.0,-2.4793,-2.6454,-2.6114,-2.5438,0.0,0.0,0.0,0.0,0.0,0.0,0.0,0.0,0.0,0.0,0.0,0.0,0.0,0.0,0.0,0.0,0.0,0.0,0.0,0.0,0.0,0.0,0.0,0.0,0.0,0.0,0.0,0.0,0.0,0.0,0.0,0.0,0.0,0.0,0.0,0.0,0.0,0.0,0.0,0.0,0.0,0.0,0.0,0.0,0.0,0.0,0.0,0.0,0.0,0.0,0.0,0.0,0.0,0.0,0.0,0.0,0.0,0.0,0.0,0.0,0.0,0.0,0.0,0.0,0.0,0.0,0.0,0.0,0.0,0.0,0.0,0.0,0.0,0.0,0.0,0.0,0.0,0.0,0.0,0.0,0.0,0.0,0.0,0.0,0.0,0.0,0.0,0.0,0.0,0.0,0.0,0.0,0.0,0.0,0.0,0.0,0.0,0.0,0.0,0.0,0.0,0.0,0.0,0.0,0.0,0.0,0.0,0.0,0.0,0.0,-2.4579,-2.538,-2.6695,-2.5703,-2.4502,-2.3336,0.0,0.0,0.0,0.0,0.0,0.0,0.0,0.0,0.0,0.0,0.0,0.0,0.0,0.0,0.0,0.0,0.0,0.0,0.0,0.0,0.0,0.0,0.0,0.0,0.0,0.0,0.0,0.0,0.0,0.0,0.0,0.0,0.0,0.0,0.0,0.0,0.0,0.0,0.0,0.0,0.0,0.0,0.0,0.0,0.0,0.0,0.0,0.0,0.0,0.0,0.0,0.0,0.0,0.0,0.0,0.0,0.0,0.0,0.0,0.0,0.0,0.0,0.0,0.0,0.0,0.0,0.0,0.0,0.0,0.0,0.0,0.0,0.0,0.0,0.0,0.0,0.0,0.0,0.0,0.0,0.0,0.0,0.0,0.0,0.0,0.0,0.0,0.0,0.0,0.0,0.0,0.0,0.0,0.0,0.0,0.0,0.0,0.0,0.0,0.0,0.0,0.0,0.0,0.0,0.0,0.0,0.0,0.0,-2.822,-2.7097,-2.6823,-2.764,-2.5493,-2.4189,0.0,0.0,0.0,0.0,0.0,0.0,0.0,0.0,0.0,0.0,0.0,0.0,0.0,0.0,0.0,0.0,0.0,0.0,0.0,0.0,0.0,0.0,0.0,0.0,0.0,0.0,0.0,0.0,0.0,0.0,0.0,0.0,0.0,0.0,0.0,0.0,0.0,0.0,0.0,0.0,0.0,0.0,0.0,0.0,0.0,0.0,0.0,0.0,0.0,0.0,0.0,0.0,0.0,0.0,0.0,0.0,0.0,0.0,0.0,0.0,0.0,0.0,0.0,0.0,0.0,0.0,0.0,0.0,0.0,0.0,0.0,0.0,0.0,0.0,0.0,0.0,0.0,0.0,0.0,0.0,0.0,0.0,0.0,0.0,0.0,0.0,0.0,0.0,0.0,0.0,0.0,0.0,0.0,0.0,0.0,0.0,0.0,0.0,0.0,0.0,0.0,0.0,0.0,0.0,0.0,0.0,0.0,0.0,0.0,-2.5053,-2.7512,-2.826,-2.7108,-2.6667,-2.5768,0.0,0.0,0.0,0.0,0.0,0.0,0.0,0.0,0.0,0.0,0.0,0.0,0.0,0.0,0.0,0.0,0.0,0.0,0.0,0.0,0.0,0.0,0.0,0.0,0.0,0.0,0.0,0.0,0.0,0.0,0.0,0.0,0.0,0.0,0.0,0.0,0.0,0.0,0.0,0.0,0.0,0.0,0.0,0.0,0.0,0.0,0.0,0.0,0.0,0.0,0.0,0.0,0.0,0.0,0.0,0.0,0.0,0.0,0.0,0.0,0.0,0.0,0.0,0.0,0.0,0.0,0.0,0.0,0.0,0.0,0.0,0.0,0.0,0.0,0.0,0.0,0.0,0.0,0.0,0.0,0.0,0.0,0.0,0.0,0.0,0.0,0.0,0.0,0.0,0.0,0.0,0.0,0.0,0.0,0.0,0.0,0.0,0.0,0.0,0.0,0.0,0.0,0.0,0.0,0.0,0.0,0.0,0.0,0.0,-2.5324,0.0,-3.0467,-2.8638,-2.8044,-2.6778,0.0,0.0,0.0,0.0,0.0,0.0,0.0,0.0,0.0,0.0,0.0,0.0,0.0,0.0,0.0,0.0,0.0,0.0,0.0,0.0,0.0,0.0,0.0,0.0,0.0,0.0,0.0,0.0,0.0,0.0,0.0,0.0,0.0,0.0,0.0,0.0,0.0,0.0,0.0,0.0,0.0,0.0,0.0,0.0,0.0,0.0,0.0,0.0,0.0,0.0,0.0,0.0,0.0,0.0,0.0,0.0,0.0,0.0,0.0,0.0,0.0,0.0,0.0,0.0,0.0,0.0,0.0,0.0,0.0,0.0,0.0,0.0,0.0,0.0,0.0,0.0,0.0,0.0,0.0,0.0,0.0,0.0,0.0,0.0,0.0,0.0,0.0,0.0,0.0,0.0,0.0,0.0,0.0,0.0,0.0,0.0,0.0,0.0,0.0,0.0,0.0,0.0,0.0,0.0,0.0,0.0,0.0,0.0,-2.612,-2.9959,-3.2449,-3.3293,-3.2528,-2.9512,-2.7079,0.0,0.0,0.0,0.0,0.0,0.0,0.0,0.0,0.0,0.0,0.0,0.0,0.0,0.0,0.0,0.0,0.0,0.0,0.0,0.0,0.0,0.0,0.0,0.0,0.0,0.0,0.0,0.0,0.0,0.0,0.0,0.0,0.0,0.0,0.0,0.0,0.0,0.0,0.0,0.0,0.0,0.0,0.0,0.0,0.0,0.0,0.0,0.0,0.0,0.0,0.0,0.0,0.0,0.0,0.0,0.0,0.0,0.0,0.0,0.0,0.0,0.0,0.0,0.0,0.0,0.0,0.0,0.0,0.0,0.0,0.0,0.0,0.0,0.0,0.0,0.0,0.0,0.0,0.0,0.0,0.0,0.0,0.0,0.0,0.0,0.0,0.0,0.0,0.0,0.0,0.0,0.0,0.0,0.0,0.0,0.0,0.0,0.0,0.0,0.0,0.0,0.0,0.0,0.0,0.0,0.0,0.0,0.0,0.0,-2.8537,-3.2515,-3.4252,-3.3385,-3.0852,-2.895,0.0,0.0,0.0,0.0,0.0,0.0,0.0,0.0,0.0,0.0,0.0,0.0,0.0,0.0,0.0,0.0,0.0,0.0,0.0,0.0,0.0,0.0,0.0,0.0,0.0,0.0,0.0,0.0,0.0,0.0,0.0,0.0,0.0,0.0,0.0,0.0,0.0,0.0,0.0,0.0,0.0,0.0,0.0,0.0,0.0,0.0,0.0,0.0,0.0,0.0,0.0,0.0,0.0,0.0,0.0,0.0,0.0,0.0,0.0,0.0,0.0,0.0,0.0,0.0,0.0,0.0,0.0,0.0,0.0,0.0,0.0,0.0,0.0,0.0,0.0,0.0,0.0,0.0,0.0,0.0,0.0,0.0,0.0,0.0,0.0,0.0,0.0,0.0,0.0,0.0,0.0,0.0,0.0,0.0,0.0,0.0,0.0,0.0,0.0,0.0,0.0,0.0,0.0,0.0,0.0,0.0,0.0,0.0,0.0,-3.0595,-3.433,-3.6156,-3.5642,-3.2394,-3.0411,-2.9806,0.0,0.0,0.0,0.0,0.0,0.0,0.0,0.0,0.0,0.0,0.0,0.0,0.0,0.0,0.0,0.0,0.0,0.0,0.0,0.0,0.0,0.0,0.0,0.0,0.0,0.0,0.0,0.0,0.0,0.0,0.0,0.0,0.0,0.0,0.0,0.0,0.0,0.0,0.0,0.0,0.0,0.0,0.0,0.0,0.0,0.0,0.0,0.0,0.0,0.0,0.0,0.0,0.0,0.0,0.0,0.0,0.0,0.0,0.0,0.0,0.0,0.0,0.0,0.0,0.0,0.0,0.0,0.0,0.0,0.0,0.0,0.0,0.0,0.0,0.0,0.0,0.0,0.0,0.0,0.0,0.0,0.0,0.0,0.0,0.0,0.0,0.0,0.0,0.0,0.0,0.0,0.0,0.0,0.0,0.0,0.0,0.0,0.0,0.0,0.0,0.0,0.0,0.0,0.0,0.0,0.0,0.0,0.0,-3.5026,-3.7448,-3.867,-3.8597,-3.393,-3.1403,0.0,0.0,0.0,0.0,0.0,0.0,0.0,0.0,0.0,0.0,0.0,0.0,0.0,0.0,0.0,0.0,0.0,0.0,0.0,0.0,0.0,0.0,0.0,0.0,0.0,0.0,0.0,0.0,0.0,0.0,0.0,0.0,0.0,0.0,0.0,0.0,0.0,0.0,0.0,0.0,0.0,0.0,0.0,0.0,0.0,0.0,0.0,0.0,0.0,0.0,0.0,0.0,0.0,0.0,0.0,0.0,0.0,0.0,0.0,0.0,0.0,0.0,0.0,0.0,0.0,0.0,0.0,0.0,0.0,0.0,0.0,0.0,0.0,0.0,0.0,0.0,0.0,0.0,0.0,0.0,0.0,0.0,0.0,0.0,0.0,0.0,0.0,0.0,0.0,0.0,0.0,0.0,0.0,0.0,0.0,0.0,0.0,0.0,0.0,0.0,0.0,0.0,0.0,0.0,0.0,0.0,0.0,0.0,0.0,-3.5809,-3.7723,-3.8707,-3.8597,-3.3954,-3.1372,0.0,0.0,0.0,0.0,0.0,0.0,0.0,0.0,0.0,0.0,0.0,0.0,0.0,0.0,0.0,0.0,0.0,0.0,0.0,0.0,0.0,0.0,0.0,0.0,0.0,0.0,0.0,0.0,0.0,0.0,0.0,0.0,0.0,0.0,0.0,0.0,0.0,0.0,0.0,0.0,0.0,0.0,0.0,0.0,0.0,0.0,0.0,0.0,0.0,0.0,0.0,0.0,0.0,0.0,0.0,0.0,0.0,0.0,0.0,0.0,0.0,0.0,0.0,0.0,0.0,0.0,0.0,0.0,0.0,0.0,0.0,0.0,0.0,0.0,0.0,0.0,0.0,0.0,0.0,0.0,0.0,0.0,0.0,0.0,0.0,0.0,0.0,0.0,0.0,0.0,0.0,0.0,0.0,0.0,0.0,0.0,0.0,0.0,0.0,0.0,0.0,0.0,0.0,0.0,0.0,0.0,0.0,0.0,-3.3226,-3.7158,-3.8196,-3.8707,-3.8689,-3.4963,-3.2417,0.0,0.0,0.0,0.0,0.0,0.0,0.0,0.0,0.0,0.0,0.0,0.0,0.0,0.0,0.0,0.0,0.0,0.0,0.0,0.0,0.0,0.0,0.0,0.0,0.0,0.0,0.0,0.0,0.0,0.0,0.0,0.0,0.0,0.0,0.0,0.0,0.0,0.0,0.0,0.0,0.0,0.0,0.0,0.0,0.0,0.0,0.0,0.0,0.0,0.0,0.0,0.0,0.0,0.0,0.0,0.0,0.0,0.0,0.0,0.0,0.0,0.0,0.0,0.0,0.0,0.0,0.0,0.0,0.0,0.0,0.0,0.0,0.0,0.0,0.0,0.0,0.0,0.0,0.0,0.0,0.0,0.0,0.0,0.0,0.0,0.0,0.0,0.0,0.0,0.0,0.0,0.0,0.0,0.0,0.0,0.0,0.0,0.0,0.0,0.0,0.0,0.0,0.0,0.0,0.0,0.0,0.0,0.0,-3.3803,-3.8579,-3.8707,-3.8707,-3.8634,-3.6307,-3.3867,0.0,0.0,0.0,0.0,0.0,0.0,0.0,0.0,0.0,0.0,0.0,0.0,0.0,0.0,0.0,0.0,0.0,0.0,0.0,0.0,0.0,0.0,0.0,0.0,0.0,0.0,0.0,0.0,0.0,0.0,0.0,0.0,0.0,0.0,0.0,0.0,0.0,0.0,0.0,0.0,0.0,0.0,0.0,0.0,0.0,0.0,0.0,0.0,0.0,0.0,0.0,0.0,0.0,0.0,0.0,0.0,0.0,0.0,0.0,0.0,0.0,0.0,0.0,0.0,0.0,0.0,0.0,0.0,0.0,0.0,0.0,0.0,0.0,0.0,0.0,0.0,0.0,0.0,0.0,0.0,0.0,0.0,0.0,0.0,0.0,0.0,0.0,0.0,0.0,0.0,0.0,0.0,0.0,0.0,0.0,0.0,0.0,0.0,0.0,0.0,0.0,0.0,0.0,0.0,0.0,0.0,0.0,0.0,-3.4399,-3.856,-3.8707,-3.8707,-3.8707,-3.6307,-3.3853,0.0,0.0,0.0,0.0,0.0,0.0,0.0,0.0,0.0,0.0,0.0,0.0,0.0,0.0,0.0,0.0,0.0,0.0,0.0,0.0,0.0,0.0,0.0,0.0,0.0,0.0,0.0,0.0,0.0,0.0,0.0,0.0,0.0,0.0,0.0,0.0,0.0,0.0,0.0,0.0,0.0,0.0,0.0,0.0,0.0,0.0,0.0,0.0,-1.7202,0.0,0.0,0.0,0.0,0.0,0.0,0.0,0.0,0.0,0.0,0.0,0.0,0.0,0.0,0.0,0.0,0.0,0.0,0.0,0.0,0.0,0.0,0.0,0.0,0.0,0.0,0.0,0.0,0.0,0.0,0.0,0.0,0.0,0.0,0.0,0.0,0.0,0.0,0.0,0.0,0.0,0.0,0.0,0.0,0.0,0.0,0.0,0.0,0.0,0.0,0.0,0.0,0.0,0.0,0.0,0.0,0.0,0.0,0.0,-3.5353,-3.856,-3.8707,-3.8707,-3.8652,-3.7408,-3.5041,0.0,0.0,0.0,0.0,0.0,0.0,0.0,0.0,0.0,0.0,0.0,0.0,0.0,0.0,0.0,0.0,0.0,0.0,0.0,0.0,0.0,0.0,0.0,0.0,0.0,0.0,0.0,0.0,0.0,0.0,0.0,0.0,0.0,0.0,0.0,0.0,0.0,0.0,0.0,0.0,0.0,0.0,0.0,0.0,0.0,0.0,0.0,0.0,0.0,0.0,0.0,0.0,0.0,0.0,0.0,0.0,0.0,0.0,0.0,0.0,0.0,0.0,0.0,0.0,0.0,0.0,0.0,0.0,0.0,0.0,0.0,0.0,0.0,0.0,0.0,0.0,0.0,0.0,0.0,0.0,0.0,0.0,0.0,0.0,0.0,0.0,0.0,0.0,0.0,0.0,0.0,0.0,0.0,0.0,0.0,0.0,0.0,0.0,0.0,0.0,0.0,0.0,0.0,0.0,0.0,0.0,0.0,-3.3565,-3.5958,-3.8579,-3.8707,-3.8707,-3.8707,-3.8707,-3.6413,-3.1635,0.0,0.0,0.0,0.0,0.0,0.0,0.0,0.0,0.0,0.0,0.0,0.0,0.0,0.0,0.0,0.0,0.0,0.0,0.0,0.0,0.0,0.0,0.0,0.0,0.0,0.0,0.0,0.0,0.0,0.0,0.0,0.0,0.0,0.0,0.0,0.0,0.0,0.0,-1.6111,-1.7606,0.0,0.0,0.0,0.0,0.0,0.0,0.0,0.0,-1.7945,0.0,0.0,0.0,0.0,0.0,0.0,0.0,0.0,0.0,0.0,0.0,0.0,0.0,0.0,0.0,0.0,0.0,0.0,0.0,0.0,0.0,0.0,0.0,0.0,0.0,0.0,0.0,0.0,0.0,0.0,0.0,0.0,0.0,0.0,0.0,0.0,0.0,0.0,0.0,0.0,0.0,0.0,0.0,0.0,0.0,0.0,0.0,0.0,0.0,0.0,0.0,0.0,0.0,0.0,0.0,0.0,-3.2334,-3.279,-3.4853,-3.8579,-3.8707,-3.8707,-3.8707,-3.8707,-3.6395,-3.1745,0.0,0.0,0.0,0.0,0.0,0.0,0.0,0.0,0.0,0.0,0.0,0.0,0.0,0.0,0.0,0.0,0.0,0.0,0.0,0.0,0.0,0.0,0.0,0.0,0.0,0.0,0.0,0.0,0.0,0.0,0.0,0.0,0.0,0.0,0.0,0.0,0.0,0.0,0.0,-2.0335,-2.0498,0.0,0.0,0.0,0.0,0.0,0.0,0.0,0.0,-1.8186,0.0,0.0,0.0,0.0,0.0,0.0,0.0,0.0,0.0,0.0,0.0,0.0,0.0,0.0,0.0,0.0,0.0,0.0,0.0,0.0,0.0,0.0,0.0,0.0,0.0,0.0,0.0,0.0,0.0,0.0,0.0,0.0,0.0,0.0,0.0,0.0,0.0,0.0,0.0,0.0,0.0,0.0,0.0,0.0,0.0,0.0,0.0,0.0,0.0,0.0,0.0,0.0,0.0,0.0,0.0,-3.1926,-3.4458,-3.6725,-3.8634,-3.8707,-3.8707,-3.8707,-3.8707,-3.6413,0.0,0.0,0.0,0.0,0.0,0.0,0.0,0.0,0.0,0.0,0.0,0.0,0.0,0.0,0.0,0.0,0.0,0.0,0.0,0.0,0.0,0.0,0.0,0.0,0.0,0.0,0.0,0.0,0.0,0.0,0.0,0.0,0.0,0.0,0.0,0.0,0.0,0.0,0.0,0.0,-2.0988,-2.1344,-2.2257,0.0,0.0,0.0,0.0,0.0,0.0,-1.8588,-1.7988,0.0,0.0,0.0,0.0,0.0,0.0,0.0,0.0,0.0,0.0,0.0,0.0,0.0,0.0,0.0,0.0,0.0,0.0,0.0,0.0,0.0,0.0,0.0,0.0,0.0,0.0,0.0,0.0,0.0,0.0,0.0,0.0,0.0,0.0,0.0,0.0,0.0,0.0,0.0,0.0,0.0,0.0,0.0,0.0,0.0,0.0,0.0,0.0,0.0,0.0,0.0,0.0,0.0,0.0,0.0,-3.1431,-3.5687,-3.8212,-3.867,-3.8707,-3.8707,-3.8707,-3.8707,-3.6413,0.0,0.0,0.0,0.0,0.0,0.0,0.0,0.0,0.0,0.0,0.0,0.0,0.0,0.0,0.0,0.0,0.0,0.0,0.0,0.0,0.0,0.0,0.0,0.0,0.0,0.0,0.0,0.0,0.0,0.0,0.0,0.0,0.0,0.0,0.0,0.0,0.0,0.0,0.0,0.0,0.0,-2.1946,-2.3091,-2.2048,0.0,0.0,0.0,0.0,-1.9864,-1.9234,0.0,0.0,0.0,0.0,0.0,0.0,0.0,0.0,0.0,0.0,0.0,0.0,0.0,0.0,0.0,0.0,0.0,0.0,0.0,0.0,0.0,0.0,0.0,0.0,0.0,0.0,0.0,0.0,0.0,0.0,0.0,0.0,0.0,0.0,0.0,0.0,0.0,0.0,0.0,0.0,0.0,0.0,0.0,0.0,0.0,0.0,0.0,0.0,0.0,0.0,0.0,0.0,0.0,0.0,0.0,0.0,-3.1303,-3.4005,-3.649,-3.8579,-3.8707,-3.8707,-3.8707,-3.8707,-3.6395,0.0,0.0,0.0,0.0,0.0,0.0,0.0,0.0,0.0,0.0,0.0,0.0,0.0,0.0,0.0,0.0,0.0,0.0,0.0,0.0,0.0,0.0,0.0,0.0,0.0,0.0,0.0,0.0,0.0,0.0,0.0,0.0,0.0,0.0,0.0,0.0,0.0,0.0,0.0,0.0,0.0,-2.2778,-2.1355,-2.142,-2.1284,0.0,0.0,0.0,-2.2885,-2.2967,0.0,0.0,0.0,0.0,0.0,0.0,0.0,0.0,0.0,0.0,0.0,0.0,0.0,0.0,0.0,0.0,0.0,0.0,0.0,0.0,0.0,0.0,0.0,0.0,0.0,0.0,0.0,0.0,0.0,0.0,0.0,0.0,0.0,0.0,0.0,0.0,0.0,0.0,0.0,0.0,0.0,0.0,0.0,0.0,0.0,0.0,0.0,0.0,0.0,0.0,0.0,0.0,0.0,0.0,0.0,-3.0302,-3.1451,-3.5133,-3.7624,-3.8652,-3.8707,-3.8707,-3.8707,-3.8707,-3.6413,0.0,0.0,0.0,0.0,0.0,0.0,0.0,0.0,0.0,0.0,0.0,0.0,0.0,0.0,0.0,0.0,0.0,0.0,0.0,0.0,0.0,0.0,0.0,0.0,0.0,0.0,0.0,0.0,0.0,0.0,0.0,0.0,0.0,0.0,0.0,0.0,0.0,0.0,0.0,0.0,0.0,0.0,-2.4144,-2.347,0.0,0.0,0.0,-2.2892,-2.2719,0.0,0.0,0.0,0.0,0.0,0.0,0.0,0.0,0.0,0.0,0.0,0.0,0.0,0.0,0.0,0.0,0.0,0.0,0.0,0.0,0.0,0.0,0.0,0.0,0.0,0.0,0.0,0.0,0.0,0.0,0.0,0.0,0.0,0.0,0.0,0.0,0.0,0.0,0.0,0.0,0.0,0.0,0.0,0.0,0.0,0.0,0.0,0.0,0.0,0.0,0.0,0.0,0.0,0.0,0.0,0.0,0.0,-3.1494,-3.6229,-3.8707,-3.8707,-3.8707,-3.8707,-3.8707,-3.8707,0.0,0.0,0.0,0.0,0.0,0.0,0.0,0.0,0.0,0.0,0.0,0.0,0.0,0.0,0.0,0.0,0.0,0.0,0.0,0.0,0.0,0.0,0.0,0.0,0.0,0.0,0.0,-1.7798,0.0,0.0,0.0,0.0,0.0,0.0,0.0,0.0,0.0,0.0,0.0,0.0,0.0,0.0,-2.4365,-2.5865,-2.4965,-2.4254,0.0,0.0,-2.3905,-2.3296,-2.386,-2.3932,0.0,0.0,0.0,0.0,0.0,0.0,0.0,0.0,0.0,0.0,0.0,0.0,0.0,0.0,0.0,0.0,0.0,0.0,0.0,0.0,0.0,0.0,0.0,0.0,0.0,0.0,0.0,0.0,0.0,0.0,0.0,0.0,0.0,0.0,0.0,0.0,0.0,0.0,0.0,0.0,0.0,0.0,0.0,0.0,0.0,0.0,0.0,0.0,0.0,0.0,0.0,0.0,0.0,0.0,0.0,-3.1562,-3.6229,-3.8707,-3.8707,-3.8707,-3.8707,-3.8707,-3.8707,-3.6413,0.0,0.0,0.0,0.0,0.0,0.0,0.0,0.0,0.0,0.0,0.0,0.0,0.0,0.0,0.0,0.0,0.0,0.0,0.0,0.0,0.0,0.0,0.0,0.0,0.0,0.0,0.0,0.0,0.0,0.0,0.0,0.0,0.0,0.0,0.0,0.0,0.0,0.0,0.0,0.0,0.0,-2.3745,-2.4065,-2.4525,-2.5241,0.0,0.0,-2.5129,-2.6297,-2.6504,-2.6071,-2.4541,0.0,0.0,0.0,0.0,0.0,0.0,0.0,0.0,0.0,0.0,0.0,0.0,0.0,0.0,0.0,0.0,0.0,0.0,0.0,0.0,0.0,0.0,0.0,0.0,0.0,0.0,0.0,0.0,0.0,0.0,0.0,0.0,0.0,0.0,0.0,0.0,0.0,0.0,0.0,0.0,0.0,0.0,0.0,0.0,0.0,0.0,0.0,0.0,0.0,0.0,0.0,0.0,0.0,-3.1403,-3.147,-3.6229,-3.8707,-3.8707,-3.8707,-3.8707,-3.8707,-3.8707,-3.7367,0.0,0.0,0.0,0.0,0.0,0.0,0.0,0.0,0.0,0.0,0.0,0.0,0.0,0.0,0.0,0.0,0.0,0.0,0.0,0.0,0.0,0.0,0.0,0.0,0.0,0.0,0.0,0.0,-2.1036,-2.0388,-1.8912,0.0,0.0,0.0,0.0,0.0,0.0,0.0,0.0,0.0,0.0,-2.5701,-2.5676,-2.5894,0.0,0.0,-2.6373,-2.6213,-2.6707,-2.6474,-2.6001,-2.5287,-2.4867,0.0,0.0,0.0,0.0,0.0,0.0,0.0,0.0,0.0,0.0,0.0,0.0,0.0,0.0,0.0,0.0,0.0,0.0,0.0,0.0,0.0,0.0,0.0,0.0,0.0,0.0,0.0,0.0,0.0,0.0,0.0,0.0,0.0,0.0,0.0,0.0,0.0,0.0,0.0,0.0,0.0,0.0,0.0,0.0,0.0,0.0,0.0,0.0,0.0,0.0,0.0,0.0,-3.1861,-3.2137,-3.6945,-3.9407,-3.9441,-3.9184,-3.9074,-3.9056,-3.9056,-3.8193,0.0,0.0,0.0,0.0,0.0,0.0,0.0,0.0,0.0,0.0,0.0,0.0,0.0,0.0,0.0,0.0,0.0,0.0,0.0,0.0,0.0,0.0,0.0,0.0,0.0,0.0,0.0,0.0,-2.2005,-2.0978,-1.9332,0.0,0.0,0.0,0.0,0.0,0.0,0.0,0.0,0.0,0.0,-2.6951,-2.682,-2.6939,-2.707,-2.707,-2.7229,-2.7292,-2.7088,-2.6699,-2.6243,-2.566,0.0,0.0,0.0,0.0,0.0,0.0,0.0,0.0,0.0,0.0,0.0,0.0,0.0,0.0,0.0,0.0,0.0,0.0,0.0,0.0,0.0,0.0,0.0,0.0,0.0,0.0,0.0,0.0,0.0,0.0,0.0,0.0,0.0,0.0,0.0,0.0,0.0,0.0,0.0,0.0,0.0,0.0,0.0,0.0,0.0,0.0,0.0,0.0,0.0,0.0,0.0,0.0,0.0,0.0,-3.377,-3.849,-4.1022,-4.1003,-4.0286,-3.9863,-3.9882,-3.9898,-3.8744,-3.6376,0.0,0.0,0.0,0.0,0.0,0.0,0.0,0.0,0.0,0.0,0.0,0.0,0.0,0.0,0.0,0.0,0.0,0.0,0.0,0.0,0.0,0.0,0.0,0.0,0.0,0.0,-2.0874,-2.0032,-2.0028,0.0,0.0,0.0,0.0,0.0,0.0,0.0,0.0,0.0,0.0,-2.6974,-2.6951,-2.682,-2.7289,-2.7652,-2.7652,-2.8187,-2.8396,-2.7666,-2.7583,-2.717,0.0,0.0,0.0,0.0,0.0,0.0,0.0,0.0,0.0,0.0,0.0,0.0,0.0,0.0,0.0,0.0,0.0,0.0,0.0,0.0,0.0,0.0,0.0,0.0,0.0,0.0,0.0,0.0,0.0,0.0,0.0,0.0,0.0,0.0,0.0,0.0,0.0,0.0,0.0,0.0,-3.8917,-3.8756,0.0,0.0,0.0,0.0,0.0,0.0,0.0,0.0,0.0,0.0,0.0,0.0,-3.2999,-3.3972,-3.86,-4.1113,-4.1095,-4.0855,-4.0708,-4.0691,-4.0691,-3.957,-3.7199,0.0,0.0,0.0,0.0,0.0,0.0,0.0,0.0,0.0,0.0,0.0,0.0,0.0,0.0,0.0,0.0,0.0,0.0,0.0,0.0,0.0,0.0,0.0,0.0,0.0,-2.4347,0.0,0.0,0.0,0.0,0.0,0.0,0.0,0.0,0.0,0.0,0.0,-2.6369,-2.6916,-2.7354,-2.743,-2.6969,-2.7384,-2.755,0.0,0.0,0.0,0.0,0.0,0.0,0.0,0.0,0.0,0.0,0.0,0.0,0.0,0.0,-2.0986,-2.0361,-2.0216,-2.0158,-2.0116,0.0,0.0,0.0,0.0,0.0,0.0,0.0,0.0,0.0,0.0,0.0,0.0,0.0,0.0,0.0,0.0,-2.8173,0.0,0.0,0.0,0.0,0.0,0.0,0.0,0.0,-3.7686,-3.9861,-4.088,-4.1043,-4.1084,0.0,-4.144,-3.9532,0.0,0.0,0.0,0.0,0.0,0.0,0.0,0.0,-3.5128,-3.6064,-3.9882,-4.1956,-4.1919,-4.1662,-4.1534,-4.1499,-4.1515,-4.091,-3.9641,-3.9019,-3.7716,0.0,0.0,0.0,0.0,0.0,0.0,0.0,0.0,0.0,0.0,0.0,0.0,0.0,0.0,0.0,0.0,0.0,0.0,0.0,0.0,0.0,0.0,0.0,-2.6556,0.0,0.0,0.0,0.0,0.0,0.0,0.0,0.0,0.0,-2.5063,-2.632,-2.7233,-2.7093,-2.7404,-2.7568,-2.7275,0.0,0.0,0.0,0.0,0.0,0.0,0.0,-2.7595,-2.7336,-2.6576,-2.5862,-2.5295,-2.4994,-2.4485,-2.3449,0.0,0.0,-2.214,-2.1944,-2.191,-2.1846,-2.1666,-2.1607,-2.1783,-2.1678,-2.1549,0.0,0.0,0.0,0.0,0.0,0.0,0.0,0.0,-3.2949,-3.2891,0.0,0.0,0.0,0.0,0.0,0.0,0.0,0.0,0.0,0.0,-4.0135,-4.1777,-4.1885,-4.2601,-4.3013,-4.3077,-4.2972,-4.2757,-4.2299,-3.9865,0.0,0.0,0.0,0.0,0.0,0.0,-3.9108,-3.984,-4.2211,-4.3496,-4.3424,-4.2727,-4.2341,-4.2323,-4.2341,-4.2671,-4.3296,-4.0506,-3.8817,-3.8579,-3.2027,0.0,0.0,0.0,0.0,0.0,0.0,0.0,0.0,0.0,0.0,0.0,0.0,0.0,0.0,0.0,0.0,0.0,0.0,0.0,0.0,-2.7621,0.0,0.0,0.0,0.0,0.0,0.0,0.0,0.0,0.0,0.0,-2.7119,-2.7295,-2.735,-2.7237,0.0,0.0,0.0,0.0,-2.8941,-2.9421,-3.0118,-3.0315,-2.9676,-2.9555,-2.9346,-2.8709,0.0,0.0,-2.6684,-2.6577,-2.6091,-2.4601,-2.4446,-2.4142,-2.2781,-2.2499,-2.2582,-2.2927,-2.2599,-2.245,-2.2835,-2.2555,-2.2226,-3.6837,0.0,0.0,0.0,0.0,-3.3453,-3.401,-3.475,-3.475,-3.441,-3.3782,-3.334,0.0,0.0,0.0,0.0,0.0,0.0,-3.6882,-3.8543,-4.0135,-4.1527,-4.2739,-4.2962,-4.3096,-4.3104,-4.3637,-4.3853,-4.379,-4.3589,-4.1241,-3.6962,0.0,0.0,0.0,0.0,-3.9373,-4.027,-4.2364,-4.3479,-4.3479,-4.3277,-4.3166,-4.3149,-4.3149,-4.3276,-4.3479,-4.2615,-4.1056,-3.8781,-3.6707,0.0,0.0,0.0,0.0,0.0,0.0,0.0,0.0,0.0,0.0,0.0,0.0,0.0,0.0,0.0,0.0,0.0,0.0,0.0,-2.9523,-2.9485,-2.8684,0.0,0.0,0.0,0.0,0.0,0.0,0.0,0.0,0.0,-2.735,-2.7376,-2.7528,0.0,0.0,-2.8544,-2.8557,-2.9126,-2.9419,-2.9028,0.0,0.0,0.0,-2.9595,-2.9549,-2.9359,-2.8525,-2.7487,-2.6162,-2.5959,-2.5678,-2.4808,-2.4691,-2.4559,-2.4105,-2.3737,-2.3591,-2.355,-2.3445,-2.3396,-2.3505,-2.3156,-2.2751,-4.0532,-3.8018,-3.6404,-3.5799,-3.5916,-3.6261,-3.6842,-3.7559,-3.7565,-3.7243,-3.6649,-3.5988,-3.5437,-3.4911,-3.4776,0.0,0.0,0.0,-3.812,-3.9781,-4.0969,-4.2085,-4.3104,-4.3778,-4.4085,-4.4124,-4.4549,-4.4773,-4.4793,-4.5227,-4.385,-4.0791,0.0,0.0,-3.9126,-4.047,-4.1446,-4.196,-4.3082,-4.3699,-4.3699,-4.3565,-4.3479,-4.3479,-4.3479,-4.3479,-4.3479,-4.3479,-4.2598,-4.0689,-3.9386,-3.7588,0.0,0.0,0.0,0.0,0.0,0.0,0.0,0.0,0.0,0.0,0.0,-2.7125,0.0,0.0,0.0,0.0,-2.9191,-3.0311,-3.1546,-3.1478,0.0,0.0,0.0,0.0,0.0,0.0,0.0,-2.9187,-2.8844,-2.857,-2.8585,-2.8419,-2.8233,-2.8125,-2.8672,-2.9117,-2.9171,0.0,-2.9697,-2.9479,-2.9755,-3.0001,-3.0001,-2.9992,-3.0001,-3.0015,-2.9331,-2.8332,-2.7059,-2.6807,-2.6484,-2.5724,-2.5473,-2.5452,-2.5253,-2.504,-2.4621,-2.4011,-2.3827,-2.3806,-2.3806,-2.3553,-2.3324,-4.3705,-4.3484,-4.0967,-3.9466,-3.8805,-3.957,-4.0295,-4.0874,-4.0835,-4.0738,-4.0477,-3.8892,-3.8238,-3.82,-3.6673,0.0,0.0,-3.8411,-3.9258,-4.0766,-4.2354,-4.3085,-4.3162,-4.4662,-4.5402,-4.5383,-4.533,-4.5312,-4.5273,-4.5208,-4.5051,-4.4741,-4.4741,-4.4643,-4.4419,-4.4406,-4.4425,-4.4425,-4.4162,-4.4036,-4.4005,-4.3699,-4.3531,-4.3479,-4.3479,-4.3479,-4.3479,-4.3479,-4.3479,-4.3387,-4.0616,-3.8982,-3.8854,0.0,0.0,0.0,0.0,0.0,0.0,0.0,0.0,0.0,0.0,0.0,0.0,0.0,0.0,0.0,-3.3642,0.0,-3.3385,-3.3334,0.0,0.0,0.0,-3.222,-3.2266,-3.1614,-3.1186,-3.1186,0.0,0.0,0.0,0.0,-2.9307,-2.8402,-2.883,-2.9323,-2.9668,-2.974,-2.9944,-3.0482,-3.0583,-3.0612,-3.067,-3.0712,-3.0768,-3.0678,-3.0623,-2.996,-2.868,-2.8322,-2.7855,-2.665,-2.6474,-2.6427,-2.627,-2.6126,-2.5787,-2.4466,-2.4084,-2.3996,-2.4032,-2.3926,-2.3866,-4.3705,-4.3645,-4.3004,-4.2579,-4.2341,-4.2551,-4.2616,-4.2544,-4.1964,-4.1607,-4.1412,-4.0373,-4.0277,-4.0885,-4.0469,-4.0873,-4.1873,-4.1893,-4.2104,-4.2489,-4.2893,-4.3085,-4.3104,-4.3508,-4.3701,-4.3701,-4.3692,-4.3665,-4.3665,-4.3656,-4.3548,-4.3379,-4.3369,-4.3817,-4.4676,-4.472,-4.472,-4.4701,-4.4443,-4.4206,-4.4005,-4.3926,-4.3765,-4.3496,-4.3479,-4.3479,-4.3479,-4.3479,-4.3479,-4.3461,-4.2176,-4.146,-4.1387,-3.7459,0.0,0.0,0.0,0.0,0.0,0.0,0.0,0.0,0.0,-3.3038,-3.4777,0.0,-3.4648,0.0,-3.3642,-3.3343,-3.3194,-3.3249,0.0,0.0,-3.2646,-3.238,-3.2818,-3.1891,-3.1202,-3.1137,-3.0688,-3.0247,-2.9845,-3.0066,-3.0155,-2.9839,-2.9999,-3.0297,-3.0661,-3.0764,-3.0734,-3.0762,-3.0701,-3.0756,-3.1221,-3.1729,-3.1861,-3.1364,-3.0874,-3.0057,-2.8652,-2.8047,-2.7471,-2.6679,-2.6487,-2.6452,-2.6455,-2.6292,-2.6104,-2.5728,-2.5414,-2.516,-2.516,-2.4729,-2.4338,-4.5997,-4.5975,-4.6014,-4.5551,-4.4743,-4.398,-4.3536,-4.3345,-4.2903,-4.2592,-4.2386,-4.1894,-4.1931,-4.2365,-4.2374,-4.2643,-4.3085,-4.3085,-4.3085,-4.3104,-4.347,-4.3624,-4.3662,-4.4028,-4.4008,-4.3643,-4.3643,-4.3451,-4.3104,-4.3085,-4.3043,-4.2917,-4.2917,-4.3244,-4.3881,-4.4281,-4.4441,-4.4441,-4.4525,-4.4457,-4.4177,-4.4181,-4.403,-4.3749,-4.3841,-4.3777,-4.3496,-4.3649,-4.3649,-4.3496,-4.3075,-4.2671,-4.2286,-3.9863,-3.9027,0.0,0.0,0.0,0.0,0.0,0.0,0.0,0.0,0.0,0.0,0.0,-3.5428,0.0,0.0,0.0,-3.4213,-3.429,-3.4329,-3.4312,-3.3957,-3.3781,-3.4047,-3.3386,-3.2822,-3.2462,-3.1984,-3.144,-3.0913,-3.0915,-3.1034,-3.126,-3.1332,-3.1424,-3.1456,-3.144,-3.1469,-3.164,-3.1531,-3.1555,-3.1886,-3.2266,-3.2384,-3.2004,-3.165,-3.0913,-2.9524,-2.8978,-2.8413,-2.7462,-2.7228,-2.7228,-2.7228,-2.7122,-2.7051,-2.698,-2.679,-2.6355,-2.575,-2.5258,-2.4983,-4.8857,-4.879,-4.8868,-4.8026,-4.6515,-4.4992,-4.407,-4.3569,-4.3471,-4.3281,-4.3034,-4.315,-4.3168,-4.3085,-4.3085,-4.3085,-4.3085,-4.3085,-4.3085,-4.3143,-4.3816,-4.4143,-4.4182,-4.4913,-4.4883,-4.4162,-4.4143,-4.3778,-4.3104,-4.3085,-4.2986,-4.2772,-4.2744,-4.267,-4.2527,-4.3291,-4.3777,-4.4006,-4.4425,-4.4569,-4.4397,-4.4416,-4.426,-4.4036,-4.4246,-4.4125,-4.3599,-4.3828,-4.3846,-4.3513,-4.3406,-4.302,-4.2323,-4.1442,-4.0604,0.0,-3.8985,0.0,0.0,0.0,0.0,0.0,0.0,0.0,0.0,-3.6597,-3.6174,-3.5644,-3.5616,-3.5616,-3.5616,-3.5616,-3.5616,-3.56,-3.5526,-3.5446,-3.5354,-3.5222,-3.4859,-3.4201,-3.3578,-3.3029,-3.253,-3.2002,-3.1869,-3.2437,-3.2557,-3.2527,-3.2374,-3.2177,-3.2247,-3.2817,-3.2745,-3.2603,-3.2643,-3.273,-3.28,-3.2771,-3.2637,-3.2148,-3.0842,-3.0358,-2.98,-2.859,-2.8131,-2.8059,-2.8109,-2.8084,-2.8084,-2.7998,-2.7851,-2.7358,-2.6272,-2.5885,-2.5742,-4.8854,-4.8802,-4.8867,-4.867,-4.8291,-4.7978,-4.6177,-4.3465,-4.2828,-4.2406,-4.2247,-4.3272,-4.3523,-4.3113,-4.3085,-4.3085,-4.3085,-4.3085,-4.3085,-4.3085,-4.3258,-4.3335,-4.3335,-4.3489,-4.347,-4.3335,-4.3316,-4.3258,-4.3085,-4.3085,-4.2695,-4.1953,-4.1918,-4.1539,0.0,0.0,0.0,0.0,-4.3874,-4.4002,-4.4392,-4.4416,-4.4279,-4.4036,-4.4265,0.0,-4.3923,-4.3974,-4.3828,-4.3495,-4.2873,0.0,0.0,0.0,0.0,0.0,0.0,0.0,0.0,0.0,0.0,0.0,-3.7807,-3.7595,-3.7395,-3.7017,-3.6454,-3.5672,-3.5616,-3.5616,-3.5616,-3.5616,-3.5616,-3.56,-3.5543,-3.5508,-3.5469,-3.5337,-3.4977,-3.4276,-3.3716,-3.334,-3.3218,-3.2684,-3.2602,-3.3216,-3.332,-3.3529,-3.3961,-3.3418,-3.3087,-3.3204,-3.3348,-3.3416,-3.3314,-3.3688,-3.3902,-3.4008,-3.3601,-3.3,-3.2117,-3.1048,-3.011,-2.9239,-2.8569,-2.8184,-2.8134,-2.8109,-2.8185,-2.8122,-2.8085,-2.7851,-2.725,-2.7017,-2.6833,-5.0111,0.0,-5.0123,-4.961,0.0,0.0,-4.7322,-4.4919,-4.5331,-4.5371,-4.5188,-4.5473,-4.5352,-4.4951,-4.4509,-4.4105,-4.3682,-4.3278,-4.3297,-4.3682,-4.3701,-4.4143,-4.497,-4.497,-4.4739,-4.4335,-4.4335,-4.3893,-4.3124,-4.3085,-4.2838,-4.2334,-4.2347,-4.189,-4.1013,-4.0949,-4.1724,-4.3395,-4.3643,-4.3931,-4.4194,-4.463,-4.4695,-4.4416,0.0,0.0,0.0,0.0,0.0,0.0,0.0,0.0,0.0,0.0,0.0,-4.0459,-3.9653,-3.9179,-3.9129,-3.8716,-3.8446,-3.8446,-3.8185,-3.7721,-3.6978,-3.6719,-3.6329,-3.5689,-3.5616,-3.5616,-3.5616,-3.5616,-3.5616,-3.56,-3.5571,-3.5543,-3.5508,-3.5446,-3.5205,-3.4816,-3.4496,-3.4372,-3.4379,-3.4133,-3.408,-3.4364,-3.4425,-3.456,-3.4835,-3.4286,-3.3801,-3.4031,-3.4115,-3.4167,-3.413,-3.4201,-3.4414,-3.4356,-3.4138,-3.3667,-3.2936,-3.2222,-3.1494,-3.0802,-3.0022,-2.9484,-2.9434,-2.92,-2.8925,-2.895,-2.8938,-2.8825,-2.8473,-2.7927,-2.7422,-5.1874,-5.1828,-5.1712,-5.0808,-4.9467,-4.9329,-4.8468,-4.7256,0.0,0.0,0.0,-4.8037,-4.7661,-4.7101,-4.6388,-4.5659,-4.4951,-4.4278,-4.4335,-4.497,-4.4816,-4.5528,-4.6865,-4.674,-4.6374,-4.5845,-4.5817,-4.521,-4.4008,-4.3835,-4.3665,-4.3466,-4.3323,-4.2731,-4.17,-4.0936,-4.114,-4.2345,-4.3108,-4.363,-4.3935,-4.4622,-4.4935,-4.48,-4.514,-4.4924,-4.4106,-4.4294,-4.4129,-4.3531,-4.3479,-4.3203,-4.2561,-4.2378,-4.2011,-4.1334,-4.0561,-4.0029,-3.9882,-3.9177,-3.8672,-3.8528,-3.8446,-3.7861,-3.6516,-3.643,-3.6178,-3.5644,-3.5616,-3.5616,-3.5616,-3.5616,-3.5616,-3.5616,-3.5616,-3.5628,-3.5706,-3.5739,-3.5753,-3.5704,-3.5626,-3.5594,-3.5708,-3.5613,-3.5641,-3.5713,-3.5629,-3.5554,-3.5441,-3.4899,-3.4545,-3.4779,-3.4798,-3.4754,-3.4716,-3.4568,-3.4433,-3.4448,-3.4433,-3.4162,-3.3604,-3.3297,-3.2967,-3.2302,-3.1549,-3.093,-3.0794,-3.019,-2.9818,-2.9779,-2.9779,-2.974,-2.9447,-2.8811,-2.8089,-5.3632,-5.3586,-5.2829,-5.2378,-5.2099,-5.1351,-5.0896,-5.0457,-4.784,-4.7008,-4.7681,-4.9629,-4.9598,-4.8098,-4.7963,-4.78,-4.7567,-4.7451,-4.7451,0.0,-4.6874,-4.6682,-4.6846,-4.6124,-4.6105,-4.6682,-4.6721,-4.6951,-4.7298,-4.6663,-4.599,-4.5231,-4.4484,-4.3326,-4.1834,-4.1557,-4.1241,-4.0764,-4.1239,-4.22,-4.3634,-4.3767,-4.4154,-4.4793,-4.5121,-4.4988,-4.4393,-4.4369,-4.4129,-4.3531,-4.3479,-4.3442,-4.3314,-4.2671,-4.2249,-4.2103,-4.1387,-4.0634,-3.9955,-3.9772,-3.9357,-3.8598,-3.8476,-3.8032,-3.702,-3.6902,-3.6542,-3.5717,-3.5622,-3.5616,-3.5616,-3.5616,-3.565,-3.5616,-3.5616,-3.587,-3.6479,-3.6614,-3.6791,-3.7241,-3.6803,-3.664,-3.6983,-3.6678,-3.6565,-3.6888,-3.652,-3.6073,-3.5608,-3.5397,-3.5255,-3.5184,-3.5148,-3.5049,-3.4902,-3.475,-3.4664,-3.4664,-3.4515,-3.438,-3.4196,-3.3707,-3.3248,-3.3087,-3.1974,-3.1119,-3.097,-3.0317,-2.9934,-2.9818,-2.9779,-2.9792,-2.9689,-2.954,-2.9273,-5.3984,-5.3962,-5.3553,-5.3415,-5.3371,-5.2978,-5.2524,-5.193,-4.9959,-4.9206,-4.9551,-5.07,-5.0437,-4.9136,-4.8606,-4.81,-4.7549,-4.7047,-4.7067,-4.7394,-4.7077,-4.7394,-4.8125,-4.7375,-4.7163,-4.7528,-4.7096,-4.7086,-4.7365,-4.7058,-4.6913,-4.6855,-4.5664,-4.436,-4.3164,-4.2646,-4.1956,-4.1135,-4.1275,-4.1738,-4.2519,-4.3373,-4.398,-4.4391,-4.4957,-4.5087,-4.4624,-4.4479,-4.4202,-4.3798,-4.3599,-4.3479,-4.3479,-4.3149,-4.2928,-4.291,-4.2194,-4.1589,-4.1222,-4.0377,-3.9719,-3.9284,-3.8847,-3.83,-3.756,-3.7192,-3.6726,-3.6097,-3.5766,-3.5616,-3.5633,-3.5994,-3.6079,-3.5616,-3.6309,-3.6823,-3.6846,-3.7178,-3.7638,-3.8151,-3.802,-3.7991,-3.8467,-3.8253,-3.7961,-3.7905,-3.7071,-3.6211,-3.5619,-3.5489,-3.5472,-3.5374,-3.5261,-3.518,-3.5067,-3.4902,-3.4817,-3.4817,-3.465,-3.4582,-3.4563,-3.4113,-3.3879,-3.3791,-3.2897,-3.2096,-3.1659,-3.0908,-3.0343,-2.9818,-2.9779,-2.9779,-2.9779,-2.9779,-2.9663,-5.459,-5.4589,-5.4374,-5.4177,-5.3998,-5.3979,-5.3605,-5.2896,-5.1839,-5.1447,-5.1515,-5.1447,-5.0914,-5.0091,-4.9391,-4.8705,-4.7947,-4.7301,-4.7286,-4.7743,-4.7591,-4.8209,-4.9202,-4.8509,-4.8202,-4.8279,-4.7567,-4.7355,-4.7663,-4.7375,-4.749,-4.7913,-4.6797,-4.5654,-4.4591,-4.3927,-4.3084,-4.2061,-4.1759,-4.1636,-4.1656,-4.2823,-4.3625,-4.4046,-4.4647,-4.496,-4.4781,-4.4599,-4.4374,-4.4109,-4.3841,-4.3714,-4.3714,-4.3649,-4.3599,-4.3543,-4.2961,-4.2488,-4.2231,-4.0983,-4.0175,-4.0157,-3.9606,-3.9061,-3.8624,-3.79,-3.7267,-3.6827,-3.6367,-3.6072,-3.614,-3.6452,-3.6468,-3.5825,-3.68,-3.7398,-3.7178,-3.7702,-3.8381,-3.8941,-3.9059,-3.9177,-3.9465,-3.9528,-3.9115,-3.8278,-3.7413,-3.66,-3.591,-3.5701,-3.5683,-3.5504,-3.5359,-3.5294,-3.5246,-3.5115,-3.4968,-3.4968,-3.485,-3.475,-3.4716,-3.4616,-3.4481,-3.438,-3.3776,-3.3038,-3.2398,-3.1526,-3.0771,-3.0203,-2.996,-2.9779,-2.9779,-2.9779,-2.974,-5.6367,-5.623,-5.5566,-5.4707,-5.4158,-5.408,-5.4039,-5.3722,-5.2153,-5.1856,-5.2456,-5.1744,-5.1319,-5.1082,-5.0918,-5.0714,-5.0511,-5.0544,-5.0435,-5.0326,-4.9711,-4.9379,-4.9365,-4.8529,-4.8509,-4.9067,-4.8355,-4.8682,-4.9913,-4.8682,-4.8029,-4.8105,-4.7932,-4.7028,-4.5663,-4.5393,-4.4558,-4.3019,-4.2132,-4.1677,-4.1691,-4.178,-4.2537,-4.4058,-4.4113,-4.4339,-4.473,-4.4763,-4.4637,-4.4402,-4.4313,-4.4299,-4.427,-4.4091,-4.3958,-4.3942,-4.359,-4.3075,-4.2341,-4.1497,-4.0985,-4.0985,-4.0875,-4.0749,-4.0628,-3.9583,-3.8653,-3.8086,-3.753,-3.7176,-3.7292,-3.7007,-3.6497,-3.5752,-3.6502,-3.711,-3.7719,-3.8447,-3.9174,-3.9901,-3.9775,-3.9833,-3.9807,-3.9659,-3.9185,-3.8435,-3.8092,-3.7531,-3.6569,-3.6305,-3.6101,-3.5716,-3.5489,-3.5442,-3.5379,-3.5279,-3.5002,-3.5029,-3.4957,-3.474,-3.4633,-3.4692,-3.4806,-3.4236,-3.3941,-3.3273,-3.2722,-3.1974,-3.0955,-3.0554,-3.0164,-2.9779,-2.9779,-2.9779,-2.974,-5.8144,-5.8105,-5.7754,-5.7422,-5.7031,-5.6523,-5.6015,-5.5465,-5.4799,-5.4114,-5.3525,-5.3462,-5.2667,-5.1344,-5.1325,-5.1248,-5.1108,-5.1123,-5.1067,-5.0933,-5.0578,-5.0385,-5.0199,-4.9399,-4.9166,-4.9307,-4.8509,-4.874,-4.9606,-4.9221,-4.8606,-4.8135,-4.8096,-4.774,-4.7067,-4.6605,-4.5759,-4.4605,-4.3684,-4.2763,-4.1873,-4.169,-4.198,-4.2622,-4.312,-4.3704,-4.4327,-4.4258,-4.4326,-4.4632,-4.4506,-4.4416,-4.4416,-4.4289,-4.4236,-4.4221,-4.3952,-4.3552,-4.3037,-4.2268,-4.1827,-4.1827,-4.1352,-4.0928,-4.0432,-3.9836,-3.9383,-3.9013,-3.7935,-3.7091,-3.6932,-3.7033,-3.6734,-3.6062,-3.7077,-3.8041,-3.7905,-3.8937,-3.9791,-4.0079,-4.0062,-3.9986,-3.9901,-3.9746,-3.9276,-3.8601,-3.8418,-3.7991,-3.7191,-3.6981,-3.6723,-3.6196,-3.6022,-3.5649,-3.5106,-3.45,-3.4271,-3.418,-3.404,-3.3898,-3.3957,-3.3817,-3.3753,-3.3747,-3.3471,-3.2982,-3.2244,-3.2194,-3.1638,-3.0914,-3.0202,-2.9779,-2.9779,-2.9779,-2.9779,-5.9199,-5.9199,-5.9199,-5.8906,-5.8457,-5.8086,-5.7402,-5.6659,-5.662,-5.5739,-5.4467,-5.4759,-5.4031,-5.2557,-5.1986,-5.1594,-5.1278,-5.1255,-5.1191,-5.1063,-5.1033,-5.101,-5.0852,-5.0315,-4.9923,-4.9697,-4.8966,-4.8834,-4.9365,-4.9413,-4.9067,-4.8548,-4.8452,-4.8221,-4.7788,-4.7538,-4.7048,-4.597,-4.5086,-4.4047,-4.2923,-4.2115,-4.1707,-4.1756,-4.2256,-4.2956,-4.378,-4.3632,-4.3858,-4.4646,-4.4454,-4.443,-4.4624,-4.4559,-4.4498,-4.4388,-4.4151,-4.3892,-4.3649,-4.2812,-4.2304,-4.2249,-4.157,-4.0873,-4.0325,-3.9965,-3.9804,-3.9648,-3.8328,-3.7338,-3.7231,-3.7314,-3.6934,-3.611,-3.76,-3.8413,-3.8058,-3.9056,-3.9842,-4.0062,-3.9851,-3.9834,-3.9842,-3.9613,-3.9204,-3.8951,-3.8657,-3.8394,-3.7889,-3.7706,-3.7413,-3.66,-3.6276,-3.5767,-3.49,-3.4337,-3.3829,-3.3694,-3.3675,-3.3419,-3.33,-3.3191,-3.3112,-3.3467,-3.317,-3.2922,-3.2475,-3.2355,-3.1858,-3.0659,-3.0073,-3.0011,-2.9884,-2.9948,-2.9985,-5.9199,-5.9219,-5.9199,-5.8437,-5.6855,-5.7676,-5.7441,-5.6797,-5.6659,-5.6111,-5.5271,-5.5054,-5.4993,-5.4913,-5.3462,-5.2223,-5.1529,-5.1505,-5.1383,-5.1203,-5.1195,-5.1128,-5.1002,-5.0957,-5.0888,-5.0662,-4.9912,-4.9492,-4.9442,-4.9404,-4.9375,-4.9317,-4.9221,-4.849,-4.7528,-4.8394,-4.8413,-4.6817,-4.5893,-4.5402,-4.5028,-4.2981,-4.1871,-4.1818,-4.1717,-4.2122,-4.286,-4.2947,-4.3293,-4.4096,-4.4075,-4.4399,-4.5053,-4.487,-4.4562,-4.4349,-4.4106,-4.3965,-4.3772,-4.2851,-4.2264,-4.2193,-4.1534,-4.1058,-4.0802,-4.0233,-3.9848,-3.9829,-3.8901,-3.8439,-3.8546,-3.7915,-3.7203,-3.6498,-3.7297,-3.7875,-3.7939,-3.8616,-3.9309,-3.9825,-3.9554,-3.931,-3.9741,-3.9295,-3.9219,-3.9241,-3.8998,-3.8641,-3.863,-3.853,-3.795,-3.6914,-3.6136,-3.5493,-3.5366,-3.4562,-3.4294,-3.4068,-3.3573,-3.3379,-3.3484,-3.3469,-3.3317,-3.3165,-3.2971,-3.2802,-3.2744,-3.2259,-3.1405,-3.0692,-3.0613,-3.0516,-2.9831,-3.0446,-3.0403,-5.9492,-6.0019,-6.0566,-6.041,-5.9863,-5.9609,-5.9043,-5.8223,-5.7656,-5.6933,-5.623,-5.6035,-5.6033,-5.609,-5.5504,-5.4407,-5.315,-5.3068,-5.2452,-5.146,-5.1333,-5.1255,-5.1141,-5.1132,-5.1078,-5.0914,-5.0649,-5.0148,-4.9578,-4.9523,-4.9483,-4.9298,-4.8817,-4.849,-4.8432,-4.8009,-4.7471,-4.6874,-4.6047,-4.5344,-4.4836,-4.3855,-4.3145,-4.256,-4.1495,-4.1333,-4.2162,-4.2155,-4.2523,-4.3283,-4.3293,-4.3397,-4.3634,-4.3571,-4.338,-4.3088,-4.2963,-4.2838,-4.2614,-4.2099,-4.1801,-4.1748,-4.1374,-4.0836,-4.0414,-4.0047,-3.968,-3.9205,-3.8878,-3.8713,-3.8645,-3.8133,-3.7339,-3.6707,-3.7137,-3.7724,-3.7984,-3.8548,-3.9276,-3.9808,-3.9445,-3.8963,-3.8854,-3.8796,-3.8983,-3.911,-3.9286,-3.9359,-3.9344,-3.9286,-3.8794,-3.7703,-3.703,-3.6533,-3.5644,-3.4535,-3.3799,-3.3634,-3.335,-3.299,-3.2931,-3.2691,-3.2467,-3.2571,-3.2482,-3.2466,-3.2326,-3.2002,-3.1138,-3.123,-3.1144,-3.0804,-2.9545,-3.0448,-3.0191,-5.9746,-6.0156,-6.125,-6.1367,-6.0879,-6.0547,-5.9785,-5.8789,-5.8144,-5.7422,-5.6719,-5.6621,-5.6738,-5.6992,-5.7031,-5.6249,-5.4918,-5.4815,-5.3913,-5.233,-5.2244,-5.1891,-5.1333,-5.1262,-5.1199,-5.1069,-5.102,-5.0649,-5.0091,-4.9794,-4.9591,-4.9427,-4.884,-4.8526,-4.848,-4.7952,-4.7528,-4.6932,-4.6317,-4.572,-4.5182,-4.4874,-4.4316,-4.347,-4.2343,-4.17,-4.1827,-4.1495,-4.1692,-4.2378,-4.2459,-4.2556,-4.2766,-4.2794,-4.2714,-4.2479,-4.236,-4.2236,-4.1989,-4.1538,-4.1198,-4.1092,-4.0677,-4.0173,-3.9583,-3.9515,-3.9221,-3.8836,-3.8707,-3.8707,-3.8627,-3.8336,-3.7755,-3.7108,-3.7368,-3.7694,-3.7763,-3.8165,-3.8683,-3.9105,-3.8903,-3.8599,-3.8616,-3.8633,-3.8837,-3.9093,-3.9539,-3.9606,-3.9791,-3.9755,-3.9435,-3.8402,-3.8048,-3.7288,-3.6492,-3.543,-3.4467,-3.4148,-3.3544,-3.3036,-3.2736,-3.2332,-3.2064,-3.2093,-3.2079,-3.2035,-3.1885,-3.1602,-3.157,-3.1691,-3.1919,-3.183,-3.1079,-3.061,-3.0417,-5.9863,-5.9512,-6.0976,-6.082,-5.9824,-6.0293,-5.9531,-5.834,-5.8047,-5.7558,-5.6836,-5.6699,-5.7187,-5.7773,-5.793,-5.7422,-5.6855,-5.6657,-5.5618,-5.3996,-5.3971,-5.3108,-5.1678,-5.1668,-5.1542,-5.1339,-5.1093,-5.102,-5.0989,-5.0314,-4.9866,-4.9686,-4.956,-4.8794,-4.7114,-4.8345,-4.8326,-4.7182,-4.6712,-4.6721,-4.6797,-4.6009,-4.5278,-4.4566,-4.4259,-4.347,-4.2066,-4.1143,-4.1061,-4.1665,-4.1707,-4.2038,-4.2498,-4.2574,-4.2679,-4.2496,-4.2365,-4.2253,-4.2075,-4.1236,-4.0592,-4.0342,-3.9635,-3.9186,-3.8979,-3.8866,-3.8799,-3.8726,-3.8707,-3.8707,-3.8707,-3.8643,-3.8382,-3.7983,-3.7927,-3.7862,-3.7658,-3.7495,-3.7568,-3.7922,-3.7973,-3.8531,-3.9242,-3.8886,-3.8625,-3.9411,-3.9504,-3.9454,-3.9919,-3.9961,-3.9618,-3.9032,-3.8591,-3.7975,-3.7247,-3.6492,-3.566,-3.4907,-3.4117,-3.3499,-3.3425,-3.3155,-3.2946,-3.2916,-3.2886,-3.2841,-3.2705,-3.2451,-3.2399,-3.2539,-3.2753,-3.2578,-3.1886,-3.1216,-3.1091,-5.8734,-5.9167,-6.0311,-6.0898,-6.0918,-6.1191,-6.0644,-5.959,-5.9062,-5.8281,-5.7598,-5.748,-5.7969,-5.8652,-5.8808,-5.8926,-5.916,-5.8613,-5.7147,-5.5348,-5.552,-5.4834,-5.3426,-5.3167,-5.2843,-5.2213,-5.157,-5.1549,-5.1758,-5.1146,-5.0704,-5.0506,-5.0008,-4.9433,-4.8678,-4.8168,-4.7425,-4.6941,-4.6297,-4.6278,-4.6808,-4.6624,-4.6586,-4.6759,-4.5817,-4.4893,-4.4355,-4.247,-4.1542,-4.1731,-4.1157,-4.0969,-4.1119,-4.1102,-4.1064,-4.1074,-4.0998,-4.0929,-4.086,-4.0482,-4.0143,-3.9938,-3.9455,-3.9106,-3.8964,-3.881,-3.8723,-3.8707,-3.8707,-3.8707,-3.8707,-3.8707,-3.8465,-3.7963,-3.7935,-3.7965,-3.786,-3.7983,-3.7785,-3.7329,-3.7584,-3.7905,-3.8048,-3.7956,-3.8836,-3.9334,-3.9546,-3.9876,-4.0003,-4.0062,-3.9773,-3.9226,-3.8924,-3.8619,-3.7901,-3.7306,-3.6746,-3.5891,-3.5018,-3.4266,-3.4129,-3.3993,-3.3814,-3.3724,-3.3694,-3.3617,-3.3464,-3.3369,-3.3315,-3.3054,-3.3019,-3.2594,-3.2009,-3.1785,-3.1777,-5.7983,-5.8574,-5.9464,-6.0164,-6.0678,-6.0699,-6.0234,-5.9512,-5.9297,-5.8711,-5.8066,-5.8262,-5.8672,-5.9121,-5.9199,-5.9473,-5.9902,-5.9687,-5.8769,-5.7284,-5.695,-5.6147,-5.4526,-5.376,-5.3482,-5.3008,-5.1968,-5.1642,-5.2038,-5.1577,-5.1207,-5.0992,-5.0554,-5.0073,-4.9653,-4.8602,-4.7786,-4.7025,-4.6418,-4.6201,-4.6432,-4.674,-4.7144,-4.7451,-4.6894,-4.6576,-4.6383,-4.4374,-4.2896,-4.2225,-4.1402,-4.0937,-4.0856,-4.0591,-4.0334,-4.0344,-4.0355,-4.0356,-4.03,-4.0224,-3.9989,-3.9873,-3.958,-3.9317,-3.9142,-3.8906,-3.8822,-3.8723,-3.8707,-3.8707,-3.8707,-3.8707,-3.853,-3.8251,-3.8167,-3.7988,-3.7858,-3.7955,-3.7916,-3.7477,-3.7652,-3.7821,-3.8285,-3.8352,-3.9157,-3.9377,-3.9808,-4.0113,-4.0113,-4.0113,-3.9799,-3.9601,-3.9506,-3.9086,-3.8481,-3.806,-3.7761,-3.6927,-3.6014,-3.535,-3.4911,-3.4743,-3.4547,-3.4577,-3.4562,-3.4607,-3.4465,-3.428,-3.4152,-3.377,-3.351,-3.3463,-3.3279,-3.2806,-3.2653,-5.7594,-5.7715,-5.8561,-5.902,-5.9141,-5.9141,-5.8829,-5.8262,-5.8711,-5.8574,-5.8144,-5.8574,-5.9062,-5.916,-5.9199,-5.9297,-5.9394,-5.9844,-6.0117,-5.9609,-5.8769,-5.7283,-5.5818,-5.4291,-5.3879,-5.3975,-5.2642,-5.1917,-5.2186,-5.1921,-5.143,-5.1397,-5.1425,-5.0839,-5.0162,-4.9737,-4.8894,-4.7652,-4.7078,-4.654,-4.6061,-4.6516,-4.6999,-4.7105,-4.7528,-4.7778,-4.7605,-4.6374,-4.4816,-4.3278,-4.2206,-4.178,-4.163,-4.0971,-4.0722,-4.076,-4.0598,-4.0686,-4.0609,-4.0728,-4.0568,-4.0401,-4.0293,-3.9807,-3.96,-3.9547,-3.9394,-3.9142,-3.9059,-3.9001,-3.9019,-3.9038,-3.9006,-3.8857,-3.8658,-3.8104,-3.7281,-3.7481,-3.7746,-3.7877,-3.7977,-3.8427,-3.9536,-3.9317,-3.952,-3.9825,-4.0062,-4.0096,-4.0113,-4.0113,-4.0113,-4.002,-3.9876,-3.9653,-3.9059,-3.8941,-3.8613,-3.7885,-3.7016,-3.6368,-3.5619,-3.5321,-3.513,-3.519,-3.522,-3.534,-3.5307,-3.5001,-3.486,-3.4656,-3.4628,-3.4791,-3.4461,-3.3844,-3.3328,-5.7474,-5.7628,-5.8525,-5.8901,-5.8925,-5.8925,-5.8799,-5.8568,-5.8193,-5.8009,-5.7857,-5.8084,-5.8672,-5.916,-5.9219,-5.9492,-5.9844,-5.9687,-5.9902,-6.0293,-6.0039,-5.9199,-5.8006,-5.6404,-5.566,-5.5716,-5.466,-5.4268,-5.4209,-5.3479,-5.2903,-5.2349,-5.2782,-5.2341,-5.1081,-5.0777,-5.0203,-4.9023,-4.7694,-4.7351,-4.7457,-4.7059,-4.7246,-4.7721,-4.7451,-4.7586,-4.8009,-4.7721,-4.6009,-4.3374,-4.2885,-4.2722,-4.2763,-4.2431,-4.2164,-4.2155,-4.2187,-4.2198,-4.2188,-4.2151,-4.2125,-4.2049,-4.1717,-4.1623,-4.1215,-4.0971,-4.0748,-4.053,-4.0471,-4.0453,-4.0453,-4.0453,-4.0453,-4.0306,-3.9546,-3.8536,-3.8043,-3.8185,-3.8428,-3.7974,-3.8784,-3.9472,-3.9664,-3.9891,-3.9985,-4.0163,-4.0197,-4.018,-4.0248,-4.0113,-4.0113,-4.0113,-4.002,-3.9952,-3.9825,-3.9696,-3.9391,-3.8745,-3.8056,-3.7408,-3.6523,-3.5757,-3.5563,-3.5444,-3.537,-3.5444,-3.5459,-3.5305,-3.5344,-3.5261,-3.518,-3.5049,-3.4883,-3.4447,-3.3979,-5.7191,-5.6953,-5.7852,-5.805,-5.7789,-5.7775,-5.778,-5.7782,-5.7726,-5.7682,-5.7779,-5.821,-5.867,-5.918,-5.9219,-5.9453,-5.9824,-5.9765,-6.0,-6.0371,-6.0742,-6.0605,-5.9804,-5.8241,-5.7323,-5.7459,-5.6051,-5.5327,-5.5073,-5.4424,-5.3736,-5.3302,-5.3377,-5.285,-5.1915,-5.1355,-5.0782,-4.9829,-4.8773,-4.8372,-4.822,-4.749,-4.7488,-4.7796,-4.7375,-4.7269,-4.7971,-4.8077,-4.7086,-4.5451,-4.4605,-4.4143,-4.4085,-4.3395,-4.3071,-4.3032,-4.3007,-4.297,-4.297,-4.2953,-4.2898,-4.2823,-4.2717,-4.2468,-4.2102,-4.1857,-4.1589,-4.1764,-4.1687,-4.1772,-4.2047,-4.2103,-4.2103,-4.1994,-4.1191,-4.0258,-3.9534,-4.0491,-4.0618,-4.045,-4.0845,-4.1435,-4.0985,-4.1192,-4.1163,-4.1053,-4.0807,-4.0696,-4.0595,-4.035,-4.0146,-4.0197,-4.018,-4.0113,-4.0037,-3.9918,-3.9833,-3.9279,-3.8789,-3.8177,-3.7383,-3.6399,-3.6022,-3.5846,-3.5636,-3.5489,-3.5522,-3.5522,-3.5472,-3.5374,-3.5326,-3.5246,-3.5082,-3.4916,-3.4486,-5.6777,-5.607,-5.696,-5.6858,-5.6323,-5.6213,-5.6387,-5.648,-5.7089,-5.7408,-5.7573,-5.8331,-5.8551,-5.9022,-5.8848,-5.9062,-5.9258,-5.9785,-6.0078,-6.041,-6.0898,-6.125,-6.0918,-5.9492,-5.8848,-5.8867,-5.6816,-5.6073,-5.5819,-5.4956,-5.4385,-5.4185,-5.3578,-5.3084,-5.283,-5.2168,-5.1303,-5.0766,-5.0172,-4.9529,-4.8845,-4.7984,-4.76,-4.7613,-4.7528,-4.7442,-4.8029,-4.8336,-4.8317,-4.8355,-4.6778,-4.5951,-4.5691,-4.4355,-4.3893,-4.3962,-4.4135,-4.403,-4.3769,-4.4042,-4.3766,-4.3866,-4.3733,-4.3194,-4.3312,-4.319,-4.3137,-4.3321,-4.2901,-4.3251,-4.3589,-4.3736,-4.3736,-4.3754,-4.3699,-4.3267,-4.2668,-4.3224,-4.3788,-4.3354,-4.3744,-4.3832,-4.3557,-4.3242,-4.2925,-4.204,-4.1733,-4.1563,-4.1341,-4.1094,-4.0756,-4.0409,-4.0367,-4.0248,-4.0155,-4.007,-3.9986,-3.9738,-3.9295,-3.875,-3.8108,-3.7294,-3.6723,-3.6337,-3.599,-3.5733,-3.5539,-3.5554,-3.5554,-3.5472,-3.5424,-3.5359,-3.5261,-3.5148,-3.482,-5.6796,-5.6089,-5.6932,-5.6803,-5.612,-5.6051,-5.6056,-5.6102,-5.6375,-5.6592,-5.6611,-5.6834,-5.7326,-5.7954,-5.8033,-5.8357,-5.887,-5.9258,-5.9453,-5.959,-6.0312,-6.0644,-6.0801,-6.0469,-6.0547,-6.0098,-5.9648,-5.8594,-5.7558,-5.6912,-5.6323,-5.5186,-5.5181,-5.5036,-5.3834,-5.3906,-5.3977,-5.3057,-5.1796,-5.0961,-5.032,-4.9011,-4.7965,-4.7456,-4.7576,-4.7875,-4.8355,-4.9433,-5.0087,-4.9721,-4.8548,-4.7451,-4.7355,-4.699,-4.6624,-4.6567,-4.6721,-4.6836,-4.6894,-4.6606,-4.6896,-4.6465,-4.6234,-4.6715,-4.6357,-4.5975,-4.581,-4.5736,-4.5572,-4.5386,-4.5404,-4.5406,-4.5369,-4.5461,-4.5847,-4.6085,-4.5791,-4.5095,-4.4561,-4.4307,-4.4494,-4.4596,-4.419,-4.4044,-4.3679,-4.3086,-4.2765,-4.2501,-4.2176,-4.1848,-4.1407,-4.0984,-4.073,-4.0612,-4.04,-4.0265,-4.0037,-3.9986,-3.967,-3.9418,-3.8767,-3.8051,-3.7413,-3.6799,-3.6258,-3.6053,-3.5911,-3.5735,-3.5767,-3.5621,-3.5489,-3.5424,-3.5359,-3.5279,-3.518,-5.6777,-5.6109,-5.6932,-5.6796,-5.6061,-5.6003,-5.6003,-5.602,-5.6064,-5.6153,-5.6201,-5.6233,-5.6539,-5.6974,-5.7037,-5.7349,-5.7774,-5.83,-5.8769,-5.918,-5.9707,-6.0039,-6.041,-6.084,-6.0957,-6.0859,-6.0508,-5.9824,-5.9121,-5.8262,-5.7342,-5.648,-5.6262,-5.5438,-5.4631,-5.4727,-5.4333,-5.392,-5.3157,-5.2534,-5.2139,-5.0671,-4.8965,-4.7759,-4.7659,-4.773,-4.8192,-4.8471,-4.9279,-4.9625,-4.9221,-4.8702,-4.849,-4.7971,-4.7586,-4.7548,-4.7548,-4.7278,-4.7086,-4.7278,-4.7222,-4.6964,-4.6877,-4.6702,-4.6617,-4.6651,-4.6941,-4.6911,-4.7027,-4.7164,-4.7237,-4.7077,-4.7022,-4.7076,-4.7388,-4.7626,-4.7498,-4.6874,-4.6342,-4.6169,-4.6413,-4.6254,-4.5882,-4.5365,-4.4965,-4.4634,-4.385,-4.3536,-4.2917,-4.2579,-4.211,-4.1694,-4.1322,-4.1018,-4.0696,-4.0409,-4.0104,-4.0037,-3.9944,-3.9825,-3.9575,-3.8805,-3.8035,-3.7544,-3.7115,-3.6615,-3.6461,-3.6244,-3.5896,-3.5621,-3.5489,-3.5489,-3.5457,-3.5392,-3.5279,-5.668,-5.6061,-5.6796,-5.668,-5.607,-5.6003,-5.6003,-5.6003,-5.6003,-5.6064,-5.6141,-5.6161,-5.6239,-5.6285,-5.6339,-5.6309,-5.6586,-5.7076,-5.7865,-5.8457,-5.8808,-5.9375,-5.9961,-6.041,-6.0918,-6.1523,-6.1035,-6.0527,-5.9941,-5.9062,-5.8262,-5.7693,-5.656,-5.5894,-5.5422,-5.4855,-5.4676,-5.4633,-5.428,-5.4006,-5.3724,-5.2341,-5.069,-4.9123,-4.821,-4.8101,-4.8387,-4.8424,-4.8458,-4.9479,-4.949,-4.9413,-4.9048,-4.824,-4.7163,-4.7201,-4.7278,-4.7105,-4.6817,-4.6874,-4.6914,-4.5916,-4.6003,-4.5994,-4.6108,-4.6517,-4.6887,-4.7251,-4.7532,-4.7847,-4.8548,-4.8105,-4.8071,-4.8236,-4.829,-4.8306,-4.8324,-4.8324,-4.803,-4.8011,-4.7618,-4.7322,-4.7267,-4.6963,-4.6562,-4.609,-4.5285,-4.4547,-4.3941,-4.3479,-4.3138,-4.2681,-4.2332,-4.15,-4.1052,-4.0781,-4.0443,-4.0138,-4.0121,-4.0087,-4.0045,-3.9575,-3.8859,-3.8541,-3.8104,-3.7528,-3.695,-3.6661,-3.6259,-3.575,-3.5522,-3.5539,-3.5554,-3.5489,-3.5392,-5.6123,-5.6003,-5.6167,-5.6128,-5.6003,-5.6003,-5.6003,-5.6003,-5.6003,-5.6001,-5.6035,-5.6043,-5.6067,-5.6083,-5.6168,-5.6239,-5.6368,-5.664,-5.682,-5.7237,-5.7695,-5.8447,-5.9297,-6.0,-6.0762,-6.1465,-6.1406,-6.1055,-6.0586,-6.0078,-5.916,-5.8143,-5.7518,-5.7047,-5.6498,-5.6183,-5.591,-5.5732,-5.5361,-5.5033,-5.4669,-5.3803,-5.2368,-5.0656,-4.9662,-4.9322,-4.9472,-4.9918,-5.0391,-5.0549,-4.9833,-4.9499,-4.9355,-4.9027,-4.8489,-4.7855,-4.7663,-4.7413,-4.7221,-4.7567,-4.7769,-4.7683,-4.729,-4.7329,-4.7386,-4.7479,-4.7387,-4.7376,-4.7367,-4.7454,-4.8122,-4.7913,-4.8116,-4.838,-4.8421,-4.8289,-4.8326,-4.8306,-4.8324,-4.8287,-4.8228,-4.8149,-4.7974,-4.7775,-4.736,-4.6927,-4.6433,-4.5751,-4.5169,-4.4837,-4.4613,-4.4042,-4.344,-4.2409,-4.145,-4.1153,-4.0849,-4.0358,-4.0206,-4.0087,-4.007,-4.0087,-3.9747,-3.9252,-3.8723,-3.8092,-3.7573,-3.7219,-3.6707,-3.6274,-3.5943,-3.5686,-3.5686,-3.5701,-3.5489,-5.5971,-5.6007,-5.6007,-5.6005,-5.6003,-5.6003,-5.6003,-5.6003,-5.6003,-5.6003,-5.6003,-5.6003,-5.6003,-5.601,-5.6048,-5.6142,-5.6222,-5.625,-5.6309,-5.6514,-5.6907,-5.7532,-5.8489,-5.9354,-6.0195,-6.0937,-6.1387,-6.1484,-6.1055,-6.0566,-5.9961,-5.9238,-5.8417,-5.7655,-5.7244,-5.6756,-5.6657,-5.648,-5.6186,-5.5928,-5.5792,-5.4982,-5.3624,-5.2127,-5.1033,-5.0364,-4.9831,-4.9528,-4.988,-5.0112,-4.9863,-4.9659,-4.9583,-4.9377,-4.8887,-4.7853,-4.7548,-4.7278,-4.7048,-4.7124,-4.7221,-4.6797,-4.6809,-4.677,-4.6886,-4.6983,-4.7421,-4.7586,-4.7428,-4.7343,-4.7756,-4.7462,-4.7707,-4.821,-4.8206,-4.8198,-4.8384,-4.8365,-4.8326,-4.8306,-4.8286,-4.8247,-4.8247,-4.8053,-4.7875,-4.7653,-4.7406,-4.6905,-4.6293,-4.5993,-4.5698,-4.5018,-4.4292,-4.3276,-4.2201,-4.1733,-4.1281,-4.0764,-4.0265,-4.0146,-4.0113,-4.0087,-4.002,-3.9756,-3.9172,-3.8695,-3.843,-3.8117,-3.7469,-3.6829,-3.6523,-3.6259,-3.6038,-3.5863,-3.575,-5.5914,-5.5981,-5.6,-5.5989,-5.6005,-5.5995,-5.6003,-5.6003,-5.6003,-5.6003,-5.6003,-5.6003,-5.6003,-5.6012,-5.601,-5.6056,-5.6148,-5.6174,-5.6212,-5.6295,-5.6434,-5.6904,-5.7755,-5.8499,-5.9414,-6.0527,-6.0976,-6.1523,-6.1484,-6.1055,-6.0664,-5.9922,-5.8769,-5.8008,-5.7754,-5.6992,-5.6738,-5.662,-5.6619,-5.6618,-5.64,-5.5715,-5.4673,-5.3157,-5.2267,-5.1437,-5.0673,-5.0154,-4.997,-5.0111,-4.9987,-4.979,-4.9759,-4.9524,-4.8701,-4.7513,-4.7197,-4.6672,-4.6355,-4.649,-4.6682,-4.5998,-4.5691,-4.5633,-4.5778,-4.6338,-4.6762,-4.7297,-4.7191,-4.7083,-4.7196,-4.6985,-4.7372,-4.8027,-4.8056,-4.7919,-4.8468,-4.8604,-4.8402,-4.8364,-4.8325,-4.8305,-4.8305,-4.8267,-4.8055,-4.8015,-4.7795,-4.7509,-4.6968,-4.6791,-4.643,-4.5758,-4.4974,-4.4044,-4.3134,-4.2364,-4.1818,-4.1163,-4.051,-4.013,-4.0113,-4.0113,-4.002,-3.9969,-3.9944,-3.948,-3.9262,-3.8854,-3.8161,-3.7573,-3.7174,-3.6889,-3.6738,-3.6492,-3.6258,-5.5846,-5.5924,-5.5905,-5.5933,-5.6038,-5.6018,-5.6007,-5.6003,-5.6003,-5.6003,-5.61,-5.6003,-5.6003,-5.6003,-5.6003,-5.6001,-5.6026,-5.6059,-5.6109,-5.6194,-5.6261,-5.67,-5.7474,-5.7681,-5.8853,-5.997,-6.0403,-6.0967,-6.1445,-6.1484,-6.1113,-6.039,-5.959,-5.8711,-5.8047,-5.7246,-5.664,-5.6621,-5.6621,-5.662,-5.6482,-5.5799,-5.5229,-5.4697,-5.4029,-5.3126,-5.2292,-5.1793,-5.1665,-5.102,-5.0315,-4.9892,-4.9685,-4.9038,-4.8671,-4.8296,-4.8025,-4.7625,-4.6969,-4.6949,-4.6787,-4.6103,-4.5768,-4.5633,-4.5663,-4.5701,-4.5915,-4.5725,-4.5832,-4.6176,-4.6593,-4.6466,-4.7148,-4.777,-4.8079,-4.8209,-4.8623,-4.8761,-4.8568,-4.8292,-4.8217,-4.827,-4.8305,-4.8287,-4.8249,-4.8248,-4.8151,-4.7875,-4.7591,-4.7342,-4.7106,-4.643,-4.5693,-4.4793,-4.4079,-4.3288,-4.2398,-4.1673,-4.0943,-4.0273,-4.0113,-4.0113,-4.0113,-4.007,-4.0113,-3.9952,-3.9489,-3.9049,-3.8668,-3.8346,-3.7946,-3.7703,-3.7501,-3.7191,-3.6814,-5.6778,-5.7185,-5.6222,-5.6174,-5.6589,-5.6165,-5.5943,-5.5951,-5.5979,-5.6258,-5.6518,-5.6177,-5.6003,-5.6003,-5.6003,-5.6012,-5.6003,-5.6003,-5.6026,-5.6102,-5.6193,-5.6439,-5.6834,-5.7381,-5.8395,-5.926,-6.0054,-6.076,-6.1286,-6.1564,-6.1399,-6.1054,-6.023,-5.9433,-5.8573,-5.7773,-5.7129,-5.6777,-5.6621,-5.6621,-5.6503,-5.6211,-5.5801,-5.5331,-5.4919,-5.4274,-5.3646,-5.3384,-5.3215,-5.2642,-5.1915,-5.1458,-5.1229,-5.066,-5.0057,-5.0032,-4.9858,-4.9125,-4.7975,-4.7758,-4.7381,-4.7017,-4.6576,-4.6144,-4.5787,-4.5633,-4.5624,-4.5607,-4.5578,-4.5781,-4.5994,-4.5908,-4.6527,-4.7174,-4.782,-4.8039,-4.8299,-4.8716,-4.8706,-4.8401,-4.8145,-4.8292,-4.8363,-4.8306,-4.8288,-4.8287,-4.8267,-4.8132,-4.7856,-4.7572,-4.7363,-4.7106,-4.6365,-4.5558,-4.4897,-4.4216,-4.3177,-4.2347,-4.1512,-4.0858,-4.0239,-4.0113,-4.0113,-4.0113,-4.0113,-3.9876,-3.9558,-3.948,-3.9375,-3.9076,-3.8734,-3.8513,-3.8234,-3.7764,-3.7324,-5.8025,-5.8432,-5.7018,-5.6837,-5.7379,-5.6569,-5.6367,-5.6541,-5.6367,-5.6656,-5.6917,-5.6414,-5.5968,-5.6005,-5.6005,-5.5995,-5.6003,-5.6003,-5.6003,-5.6043,-5.6087,-5.6146,-5.6382,-5.6969,-5.7623,-5.8554,-5.8988,-5.9947,-6.0776,-6.1132,-6.1214,-6.1552,-6.0564,-5.9961,-5.9301,-5.8301,-5.7383,-5.668,-5.6621,-5.6621,-5.6601,-5.6601,-5.6191,-5.584,-5.5527,-5.5215,-5.4491,-5.4314,-5.4292,-5.3743,-5.3293,-5.2878,-5.2757,-5.2308,-5.194,-5.1907,-5.1795,-5.1279,-5.0076,-4.935,-4.8658,-4.8113,-4.7677,-4.6915,-4.6144,-4.5941,-4.5729,-4.5643,-4.5586,-4.5586,-4.5605,-4.5599,-4.632,-4.6915,-4.7376,-4.7552,-4.7832,-4.8475,-4.8733,-4.8392,-4.828,-4.8421,-4.8458,-4.8345,-4.8325,-4.8306,-4.8324,-4.8324,-4.8113,-4.7818,-4.7756,-4.7611,-4.7281,-4.6582,-4.6058,-4.5233,-4.4141,-4.3082,-4.2243,-4.1347,-4.0698,-4.0271,-4.0163,-4.0138,-4.0146,-4.002,-3.9808,-3.9969,-4.007,-3.9679,-3.9332,-3.9226,-3.8941,-3.8418,-3.7978,-5.9358,-5.9338,-5.8492,-5.816,-5.8175,-5.7347,-5.7474,-5.7929,-5.7303,-5.7206,-5.7322,-5.6531,-5.6068,-5.599,-5.598,-5.5987,-5.6003,-5.6003,-5.6003,-5.6012,-5.601,-5.6035,-5.6145,-5.635,-5.6745,-5.7541,-5.8046,-5.8929,-5.9927,-6.0345,-6.0739,-6.1179,-6.0662,-6.0252,-5.9533,-5.8468,-5.75,-5.6836,-5.666,-5.6582,-5.6582,-5.6601,-5.6523,-5.6504,-5.6406,-5.6113,-5.5273,-5.5195,-5.498,-5.4373,-5.406,-5.3923,-5.3862,-5.3545,-5.3345,-5.33,-5.3318,-5.2955,-5.2343,-5.0977,-4.9518,-4.8792,-4.8418,-4.8195,-4.7416,-4.6969,-4.6518,-4.5988,-4.5979,-4.5691,-4.5652,-4.574,-4.6453,-4.704,-4.751,-4.786,-4.8186,-4.8612,-4.8768,-4.8408,-4.8458,-4.8714,-4.8675,-4.8622,-4.8364,-4.8344,-4.8324,-4.8324,-4.8324,-4.8113,-4.8152,-4.8113,-4.8094,-4.772,-4.7355,-4.6404,-4.5187,-4.4055,-4.3085,-4.2067,-4.1093,-4.0741,-4.0402,-4.0296,-4.0328,-4.0221,-4.0113,-4.0138,-4.0138,-4.007,-3.9901,-3.9679,-3.9428,-3.8968,-3.8679,-5.9189,-6.0262,-5.9954,-5.9523,-5.8968,-5.8198,-5.8036,-5.825,-5.7993,-5.76,-5.7351,-5.6994,-5.6531,-5.6088,-5.5953,-5.5961,-5.5998,-5.6007,-5.5996,-5.6003,-5.6012,-5.6003,-5.6003,-5.6128,-5.6488,-5.7156,-5.7405,-5.7897,-5.9087,-5.951,-6.0006,-6.0366,-6.0508,-6.048,-5.9767,-5.8663,-5.7675,-5.7197,-5.6792,-5.6549,-5.6553,-5.6582,-5.6621,-5.6621,-5.6621,-5.6465,-5.6113,-5.6094,-5.5879,-5.5547,-5.5058,-5.4883,-5.4707,-5.4394,-5.4177,-5.4157,-5.4176,-5.4132,-5.3998,-5.2841,-5.1881,-5.1075,-5.0764,-5.0299,-4.9235,-4.8874,-4.8124,-4.7426,-4.6681,-4.6429,-4.571,-4.6095,-4.6769,-4.7346,-4.7818,-4.8183,-4.8541,-4.8919,-4.8978,-4.8704,-4.8923,-4.9227,-4.9094,-4.8913,-4.8622,-4.8382,-4.8325,-4.8324,-4.8324,-4.8324,-4.8324,-4.8248,-4.8191,-4.8075,-4.77,-4.6912,-4.6104,-4.5009,-4.3895,-4.2829,-4.1802,-4.1111,-4.0832,-4.0683,-4.0476,-4.0345,-4.0263,-4.0213,-4.0188,-4.0096,-4.007,-3.9995,-3.9747,-3.9428,-3.9209,-5.8822,-6.0105,-6.0501,-6.0376,-5.9788,-5.8892,-5.8711,-5.8962,-5.8658,-5.8149,-5.7503,-5.7212,-5.6616,-5.6,-5.5856,-5.5905,-5.5962,-5.5981,-5.5969,-5.5987,-5.6005,-5.6005,-5.6005,-5.6063,-5.6267,-5.6799,-5.6954,-5.7339,-5.8197,-5.8798,-5.9154,-5.9575,-6.0118,-6.0104,-6.0275,-5.9102,-5.8101,-5.7544,-5.717,-5.662,-5.655,-5.6523,-5.6562,-5.6582,-5.6601,-5.6601,-5.6504,-5.6484,-5.6504,-5.6289,-5.6015,-5.5742,-5.5488,-5.5195,-5.4844,-5.4765,-5.4765,-5.4746,-5.4668,-5.4053,-5.3582,-5.2658,-5.2587,-5.2105,-5.1457,-5.0725,-4.994,-4.869,-4.802,-4.7336,-4.6499,-4.6985,-4.7557,-4.8173,-4.8125,-4.8424,-4.8807,-4.9154,-4.9127,-4.9033,-4.9347,-4.9636,-4.9489,-4.928,-4.883,-4.8513,-4.8325,-4.8324,-4.8324,-4.8324,-4.8324,-4.8229,-4.8114,-4.7995,-4.7797,-4.7386,-4.6905,-4.5665,-4.4574,-4.3605,-4.2658,-4.1877,-4.1168,-4.0908,-4.0707,-4.0493,-4.0362,-4.0313,-4.0196,-4.0096,-4.0096,-4.0087,-4.002,-3.9731,-3.9627,-5.8515,-5.8701,-5.9817,-6.0456,-6.0486,-5.9498,-5.9594,-6.0193,-5.9485,-5.8764,-5.8035,-5.6706,-5.5972,-5.5873,-5.5902,-5.5836,-5.5895,-5.5924,-5.5933,-5.599,-5.598,-5.5999,-5.598,-5.6009,-5.6058,-5.5953,-5.6155,-5.6609,-5.7226,-5.7632,-5.7998,-5.8461,-5.898,-5.9605,-6.0816,-6.0317,-5.9127,-5.7858,-5.7673,-5.7029,-5.664,-5.652,-5.6467,-5.6497,-5.6531,-5.6543,-5.6582,-5.6582,-5.6582,-5.6523,-5.6484,-5.6348,-5.6289,-5.6289,-5.6191,-5.623,-5.6308,-5.6367,-5.6367,-5.4902,-5.4232,-5.4036,-5.407,-5.3638,-5.2772,-5.2186,-5.1544,-5.0222,-4.9549,-4.8963,-4.8489,-4.8161,-4.8544,-4.8758,-4.8729,-4.8962,-4.9384,-4.9576,-4.9611,-4.9627,-4.9813,-4.9962,-4.9859,-4.9617,-4.911,-4.8728,-4.842,-4.8344,-4.842,-4.8363,-4.8382,-4.8363,-4.825,-4.821,-4.8152,-4.821,-4.7659,-4.6394,-4.5256,-4.4296,-4.3238,-4.2258,-4.166,-4.1263,-4.1094,-4.1036,-4.0693,-4.037,-4.0451,-4.049,-4.0171,-4.0096,-4.007,-4.0045,-3.9876,-5.8306,-5.8594,-5.9558,-6.0026,-6.0093,-5.9979,-5.9984,-6.0141,-6.0099,-5.966,-5.847,-5.6621,-5.6082,-5.6282,-5.6053,-5.5862,-5.5865,-5.5836,-5.5885,-5.5982,-5.6001,-5.5924,-5.5943,-5.602,-5.5991,-5.5924,-5.5933,-5.6097,-5.6329,-5.6947,-5.7304,-5.769,-5.8423,-5.9156,-5.9928,-5.9979,-5.9506,-5.8978,-5.8195,-5.7286,-5.6992,-5.663,-5.637,-5.639,-5.64,-5.6448,-5.6525,-5.6527,-5.6533,-5.658,-5.6582,-5.6601,-5.6601,-5.6601,-5.6621,-5.6621,-5.6621,-5.6621,-5.6562,-5.5917,-5.5777,-5.5628,-5.5458,-5.526,-5.5034,-5.4441,-5.3253,-5.1818,-5.0986,-5.0085,-4.8767,-4.8955,-4.9285,-4.9457,-4.9577,-4.9971,-5.0308,-5.0298,-5.0317,-5.0345,-5.0464,-5.026,-5.0092,-5.0056,-4.9617,-4.928,-4.9029,-4.885,-4.885,-4.8623,-4.8532,-4.8532,-4.8476,-4.8458,-4.8457,-4.8401,-4.7664,-4.6268,-4.5517,-4.4931,-4.3866,-4.2647,-4.238,-4.2118,-4.1846,-4.1565,-4.1298,-4.1065,-4.1001,-4.0932,-4.0538,-4.0221,-4.0138,-4.0096,-4.0045,-5.8109,-5.8625,-5.9311,-5.9521,-5.9486,-5.9788,-5.9788,-5.9711,-6.0171,-5.9831,-5.8749,-5.7781,-5.7119,-5.6956,-5.6728,-5.631,-5.6305,-5.6594,-5.6692,-5.6675,-5.6405,-5.6424,-5.6367,-5.629,-5.6414,-5.6337,-5.6616,-5.6837,-5.6991,-5.735,-5.7457,-5.7593,-5.8298,-5.8732,-5.9157,-5.9078,-5.9346,-5.8848,-5.8041,-5.7353,-5.7086,-5.6743,-5.6276,-5.6271,-5.6299,-5.6359,-5.641,-5.6428,-5.6458,-5.6504,-5.6534,-5.6558,-5.6559,-5.6582,-5.6601,-5.6621,-5.6621,-5.6621,-5.6562,-5.6543,-5.6387,-5.6422,-5.6616,-5.6568,-5.643,-5.5794,-5.4582,-5.3338,-5.2366,-5.1074,-4.9897,-5.0143,-5.0008,-5.018,-5.0302,-5.0666,-5.0699,-5.068,-5.0616,-5.0693,-5.0596,-5.0425,-5.0224,-5.0336,-5.0171,-4.9911,-4.9664,-4.9408,-4.9196,-4.9034,-4.8816,-4.88,-4.8748,-4.8677,-4.8587,-4.8476,-4.7537,-4.614,-4.5626,-4.5296,-4.4126,-4.2902,-4.2939,-4.2862,-4.2358,-4.1973,-4.1934,-4.1789,-4.1552,-4.1218,-4.0814,-4.0514,-4.0221,-4.0163,-4.0138,-5.7973,-5.8667,-5.9026,-5.9006,-5.8803,-5.9102,-5.9215,-5.9215,-5.9605,-5.9303,-5.86,-5.9798,-5.8822,-5.7149,-5.7707,-5.7639,-5.7192,-5.7769,-5.7929,-5.7884,-5.7356,-5.7221,-5.7144,-5.7125,-5.7114,-5.7332,-5.7572,-5.7756,-5.8195,-5.8066,-5.7772,-5.7726,-5.8623,-5.849,-5.8182,-5.8327,-5.8712,-5.8489,-5.8343,-5.7693,-5.729,-5.6745,-5.6382,-5.6278,-5.6222,-5.6261,-5.6294,-5.6308,-5.632,-5.637,-5.6422,-5.646,-5.6518,-5.6557,-5.6582,-5.6601,-5.6601,-5.6621,-5.6621,-5.6621,-5.6621,-5.6621,-5.662,-5.6599,-5.6538,-5.6337,-5.5331,-5.4287,-5.3308,-5.2333,-5.1466,-5.1131,-5.082,-5.0829,-5.0783,-5.0882,-5.0875,-5.083,-5.0738,-5.0673,-5.051,-5.0307,-4.9979,-5.0027,-4.9782,-4.9603,-4.9277,-4.9194,-4.9083,-4.9437,-4.9246,-4.9182,-4.9085,-4.8937,-4.8801,-4.8641,-4.7647,-4.6339,-4.5919,-4.5479,-4.4272,-4.3268,-4.3178,-4.2976,-4.2595,-4.238,-4.2482,-4.2246,-4.1877,-4.1556,-4.1397,-4.0832,-4.0573,-4.0271,-4.0196,-5.8159,-5.7938,-5.8542,-5.8782,-5.8719,-5.8803,-5.8845,-5.8868,-5.899,-5.8928,-5.902,-5.8678,-5.8403,-5.7973,-5.7884,-5.7736,-5.7799,-5.7985,-5.8181,-5.8157,-5.8066,-5.7973,-5.7915,-5.7893,-5.7923,-5.8,-5.82,-5.8489,-5.8377,-5.838,-5.836,-5.8229,-5.8753,-5.8177,-5.7909,-5.8037,-5.8365,-5.852,-5.8558,-5.8201,-5.7554,-5.7046,-5.6635,-5.6327,-5.6121,-5.6168,-5.6187,-5.6205,-5.6239,-5.6299,-5.6324,-5.6367,-5.637,-5.6391,-5.6426,-5.6523,-5.6562,-5.6621,-5.6621,-5.6601,-5.6601,-5.6601,-5.6621,-5.6621,-5.6601,-5.6404,-5.5778,-5.468,-5.3915,-5.2946,-5.1837,-5.1316,-5.1144,-5.112,-5.1049,-5.0996,-5.0979,-5.0932,-5.0856,-5.0709,-5.055,-4.9883,-4.9595,-4.9115,-4.8884,-4.8837,-4.8798,-4.8762,-4.8842,-4.9169,-4.9246,-4.9117,-4.9039,-4.8773,-4.8891,-4.88,-4.7706,-4.67,-4.6117,-4.5385,-4.4211,-4.3444,-4.3357,-4.3196,-4.2976,-4.3014,-4.3123,-4.2829,-4.2485,-4.2462,-4.2282,-4.1521,-4.0913,-4.07,-4.0427,-5.8419,-5.8066,-5.8494,-5.8677,-5.8677,-5.8677,-5.8677,-5.8684,-5.8681,-5.8818,-5.8932,-5.8627,-5.835,-5.8285,-5.8422,-5.8415,-5.812,-5.8846,-5.9147,-5.8953,-5.8667,-5.8464,-5.8425,-5.8413,-5.8438,-5.8585,-5.894,-5.9355,-5.9158,-5.9204,-5.9242,-5.883,-5.8987,-5.8517,-5.8308,-5.8734,-5.8899,-5.8804,-5.8671,-5.8672,-5.8229,-5.7516,-5.685,-5.6473,-5.6212,-5.6048,-5.6071,-5.6094,-5.6148,-5.6193,-5.6211,-5.6271,-5.6266,-5.629,-5.632,-5.6422,-5.6445,-5.6504,-5.6543,-5.6562,-5.6562,-5.6582,-5.6601,-5.6621,-5.6621,-5.6503,-5.5488,-5.4432,-5.4002,-5.3394,-5.2257,-5.1331,-5.1301,-5.1288,-5.1197,-5.1083,-5.1064,-5.1023,-5.0914,-5.0789,-5.0256,-4.9495,-4.8926,-4.8363,-4.8125,-4.8308,-4.8394,-4.8356,-4.8422,-4.8597,-4.8617,-4.8485,-4.8523,-4.8488,-4.8607,-4.8437,-4.7341,-4.6314,-4.5725,-4.4919,-4.3962,-4.3634,-4.3549,-4.3532,-4.3479,-4.3479,-4.3409,-4.341,-4.3196,-4.3105,-4.2845,-4.2239,-4.163,-4.1326,-4.1024,-5.8698,-5.8679,-5.8677,-5.8677,-5.8677,-5.8677,-5.8677,-5.8677,-5.8681,-5.8698,-5.8782,-5.9119,-5.8784,-5.8464,-5.8914,-5.9006,-5.8948,-5.9424,-5.9693,-5.9766,-5.9297,-5.8988,-5.8806,-5.8631,-5.8896,-5.9312,-5.9644,-5.9879,-6.0474,-6.0411,-6.0031,-5.9665,-6.0204,-5.9792,-5.8811,-5.9765,-5.9776,-5.8902,-5.8946,-5.9046,-5.8864,-5.8084,-5.7129,-5.6917,-5.6425,-5.5924,-5.5933,-5.5952,-5.599,-5.6031,-5.6083,-5.6154,-5.6188,-5.6225,-5.6257,-5.6292,-5.6332,-5.6387,-5.6455,-5.6482,-5.6502,-5.6534,-5.6582,-5.6582,-5.6582,-5.6601,-5.5703,-5.4473,-5.3906,-5.3086,-5.1989,-5.148,-5.1359,-5.1334,-5.1273,-5.1227,-5.119,-5.1086,-5.0899,-5.0672,-5.0151,-4.9371,-4.8469,-4.794,-4.743,-4.7745,-4.7644,-4.7586,-4.7692,-4.7809,-4.7989,-4.7909,-4.8151,-4.815,-4.7793,-4.7495,-4.6682,-4.5857,-4.5384,-4.4823,-4.4128,-4.3883,-4.3754,-4.3703,-4.3652,-4.36,-4.3566,-4.3549,-4.3462,-4.3232,-4.3013,-4.2788,-4.242,-4.208,-4.166,-5.8677,-5.8677,-5.8677,-5.8677,-5.8677,-5.8677,-5.8677,-5.8677,-5.8677,-5.8677,-5.8719,-5.8801,-5.8788,-5.8664,-5.9047,-5.9136,-5.9244,-5.9498,-5.9801,-5.9755,-5.951,-5.933,-5.9398,-5.9185,-5.9393,-5.9605,-5.9889,-6.0135,-6.0382,-6.0578,-6.0731,-6.0481,-6.0738,-6.0111,-5.9323,-6.0411,-6.0185,-5.93,-5.9526,-5.9279,-5.8721,-5.8426,-5.7801,-5.7117,-5.6395,-5.5943,-5.5895,-5.5905,-5.5914,-5.5952,-5.5951,-5.6005,-5.604,-5.6107,-5.6168,-5.623,-5.6251,-5.6294,-5.6348,-5.6379,-5.6381,-5.6403,-5.6445,-5.6497,-5.6549,-5.658,-5.5996,-5.4707,-5.3652,-5.2754,-5.1973,-5.1641,-5.1387,-5.1387,-5.1361,-5.1357,-5.1333,-5.1118,-5.0887,-5.0505,-5.0031,-4.9248,-4.8333,-4.7585,-4.7023,-4.6642,-4.6292,-4.618,-4.638,-4.6574,-4.7286,-4.7415,-4.7905,-4.786,-4.7379,-4.6834,-4.6145,-4.5866,-4.5543,-4.494,-4.4318,-4.4162,-4.402,-4.3851,-4.3754,-4.3798,-4.3795,-4.3649,-4.3512,-4.3408,-4.3321,-4.3178,-4.316,-4.2884,-4.2426,-5.8382,-5.8658,-5.8677,-5.8677,-5.8677,-5.8677,-5.8677,-5.8677,-5.8677,-5.8677,-5.8677,-5.8677,-5.8677,-5.8677,-5.8906,-5.9006,-5.9083,-5.9361,-5.9344,-5.9344,-5.9486,-5.936,-5.938,-5.9362,-5.9358,-5.9485,-5.9741,-5.9934,-6.0102,-6.0175,-6.0321,-6.0409,-6.0424,-6.0361,-5.9894,-6.0409,-6.05,-6.0108,-6.0231,-5.9565,-5.8604,-5.838,-5.7882,-5.7095,-5.6373,-5.5932,-5.5826,-5.5826,-5.5846,-5.5875,-5.5905,-5.5924,-5.5951,-5.5993,-5.604,-5.6087,-5.6141,-5.6187,-5.6239,-5.626,-5.6256,-5.6299,-5.6336,-5.6391,-5.6277,-5.6192,-5.5402,-5.4258,-5.4023,-5.3223,-5.2012,-5.1426,-5.1387,-5.1387,-5.1387,-5.1381,-5.1378,-5.1285,-5.1147,-5.1001,-5.0452,-4.9776,-4.8802,-4.7761,-4.7324,-4.7378,-4.6755,-4.6131,-4.6058,-4.5973,-4.6524,-4.6934,-4.7439,-4.7434,-4.6956,-4.642,-4.5855,-4.567,-4.5596,-4.5098,-4.4562,-4.4407,-4.4269,-4.4181,-4.4151,-4.4206,-4.4143,-4.3965,-4.3839,-4.3772,-4.3728,-4.3649,-4.3599,-4.3513,-4.3105,-5.7786,-5.8531,-5.8661,-5.8677,-5.8677,-5.8677,-5.8677,-5.8677,-5.8677,-5.8677,-5.8677,-5.8677,-5.8677,-5.8677,-5.8677,-5.8677,-5.8782,-5.9045,-5.8946,-5.8906,-5.9064,-5.9044,-5.8925,-5.8782,-5.8966,-5.9215,-5.9486,-5.9605,-5.9706,-5.9852,-5.995,-5.9887,-6.0026,-6.0199,-6.0316,-6.0348,-6.0243,-5.9855,-5.9613,-5.9156,-5.8769,-5.8489,-5.7723,-5.6926,-5.6233,-5.5761,-5.5705,-5.5726,-5.5757,-5.5797,-5.5826,-5.5846,-5.5885,-5.5885,-5.5952,-5.5987,-5.5995,-5.6056,-5.6124,-5.6141,-5.6168,-5.6239,-5.6247,-5.6212,-5.6076,-5.5541,-5.4755,-5.4199,-5.3965,-5.3262,-5.2031,-5.1387,-5.1387,-5.1387,-5.1387,-5.1387,-5.1402,-5.1398,-5.1358,-5.1319,-5.0834,-5.0196,-4.9328,-4.8246,-4.7951,-4.8015,-4.7655,-4.7109,-4.6676,-4.655,-4.6735,-4.6854,-4.702,-4.6858,-4.649,-4.6152,-4.5642,-4.5524,-4.544,-4.5106,-4.4812,-4.465,-4.4591,-4.463,-4.4612,-4.4559,-4.4493,-4.4341,-4.4237,-4.4106,-4.3873,-4.3769,-4.3684,-4.36,-4.3566,-5.6909,-5.7788,-5.8419,-5.8658,-5.8658,-5.8677,-5.8677,-5.8677,-5.8677,-5.8677,-5.8677,-5.8677,-5.8677,-5.8677,-5.8677,-5.8677,-5.8719,-5.8825,-5.8803,-5.8741,-5.8805,-5.8762,-5.8719,-5.8698,-5.8739,-5.8945,-5.9159,-5.9289,-5.9343,-5.9588,-5.9774,-5.9741,-5.9753,-5.9808,-5.9779,-5.9669,-5.9237,-5.8948,-5.8427,-5.785,-5.7185,-5.7015,-5.722,-5.6676,-5.6175,-5.5838,-5.5695,-5.5695,-5.5705,-5.5705,-5.5716,-5.5766,-5.5787,-5.5826,-5.5875,-5.5905,-5.5914,-5.5933,-5.5984,-5.5993,-5.6064,-5.6087,-5.6088,-5.6065,-5.5791,-5.5298,-5.4519,-5.3712,-5.3301,-5.2558,-5.1621,-5.1445,-5.1387,-5.1387,-5.1387,-5.1387,-5.1385,-5.1384,-5.1383,-5.1362,-5.122,-5.0665,-5.0094,-4.9289,-4.8788,-4.859,-4.7833,-4.7326,-4.7062,-4.7014,-4.7062,-4.7045,-4.7024,-4.6328,-4.5963,-4.5936,-4.562,-4.5477,-4.5371,-4.5243,-4.5085,-4.4872,-4.4837,-4.4938,-4.4891,-4.48,-4.4726,-4.4751,-4.4519,-4.4341,-4.3986,-4.3804,-4.3769,-4.3751,-4.3749]},{"header":{"parameterUnit":"m.s-1","parameterCategory":1,"la1":31.0,"la2":29.5877,"lo1":-88.7671,"lo2":-86.6584,"dy":0.0162,"dx":0.0185,"nx":115,"ny":88,"refTime":"2024-04-08T12:00:00:Z","depth":0,"parameterNumber":3,"parameterNumberName":"V-component_of_WINDS"},"data":[0.0,0.0,0.0,0.0,0.0,0.0,0.0,0.0,0.0,0.0,0.0,0.0,0.0,0.0,0.0,0.0,0.0,0.0,0.0,0.0,0.0,0.0,0.0,0.0,0.0,0.0,0.0,0.0,0.0,0.0,0.0,0.0,0.0,0.0,0.0,0.0,0.0,0.0,0.0,0.0,0.0,0.0,0.0,0.0,0.0,0.0,0.0,0.0,0.0,0.0,0.0,0.0,0.0,0.0,0.0,0.0,0.0,0.0,0.0,0.0,0.0,0.0,0.0,0.0,0.0,0.0,0.0,0.0,0.0,0.0,0.0,0.0,0.0,0.0,0.0,0.0,0.0,0.0,0.0,0.0,0.0,0.0,0.0,0.0,0.0,0.0,0.0,0.0,0.0,0.0,0.0,0.0,0.0,0.0,0.0,0.0,0.0,0.0,0.0,0.0,0.0,0.0,0.0,0.0,0.0,0.0,0.0,0.0,0.0,0.0,0.0,0.0,0.0,0.0,0.0,0.0,0.0,0.0,0.0,0.0,0.0,0.0,0.0,0.0,0.0,0.0,0.0,0.0,0.0,0.0,0.0,0.0,0.0,0.0,0.0,0.0,0.0,0.0,0.0,0.0,0.0,0.0,0.0,0.0,0.0,0.0,0.0,0.0,0.0,0.0,0.0,0.0,0.0,0.0,0.0,0.0,0.0,0.0,0.0,0.0,0.0,0.0,0.0,0.0,0.0,0.0,0.0,0.0,0.0,0.0,0.0,0.0,0.0,0.0,0.0,0.0,0.0,0.0,0.0,0.0,0.0,0.0,0.0,0.0,0.0,0.0,0.0,0.0,0.0,0.0,0.0,0.0,0.0,0.0,0.0,0.0,0.0,0.0,0.0,0.0,0.0,0.0,0.0,0.0,0.0,0.0,0.0,0.0,0.0,0.0,0.0,0.0,0.0,0.0,0.0,0.0,0.0,0.0,0.0,0.0,0.0,0.0,0.0,0.0,0.0,0.0,0.0,0.0,0.0,0.0,0.0,0.0,0.0,0.0,0.0,0.0,0.0,0.0,0.0,0.0,0.0,0.0,0.0,0.0,0.0,0.0,0.0,0.0,0.0,0.0,0.0,0.0,0.0,0.0,0.0,0.0,0.0,0.0,0.0,0.0,0.0,0.0,0.0,0.0,0.0,0.0,0.0,0.0,0.0,0.0,0.0,0.0,0.0,0.0,0.0,0.0,0.0,0.0,0.0,0.0,0.0,0.0,0.0,0.0,0.0,0.0,0.0,0.0,0.0,0.0,0.0,0.0,0.0,0.0,0.0,0.0,0.0,0.0,0.0,0.0,0.0,0.0,0.0,0.0,0.0,0.0,0.0,0.0,0.0,0.0,0.0,0.0,0.0,0.0,0.0,0.0,0.0,0.0,0.0,0.0,0.0,0.0,0.0,0.0,0.0,0.0,0.0,0.0,0.0,0.0,0.0,0.0,0.0,0.0,0.0,0.0,0.0,0.0,0.0,0.0,0.0,0.0,0.0,0.0,0.0,0.0,0.0,0.0,0.0,0.0,0.0,0.0,0.0,0.0,0.0,0.0,0.0,0.0,0.0,0.0,0.0,0.0,0.0,0.0,0.0,0.0,0.0,0.0,0.0,0.0,0.0,0.0,0.0,0.0,0.0,0.0,0.0,0.0,0.0,0.0,0.0,0.0,0.0,0.0,0.0,0.0,0.0,0.0,0.0,0.0,0.0,0.0,0.0,0.0,0.0,0.0,0.0,0.0,0.0,0.0,0.0,0.0,0.0,0.0,0.0,0.0,0.0,0.0,0.0,0.0,0.0,0.0,0.0,0.0,0.0,0.0,0.0,0.0,0.0,0.0,0.0,0.0,0.0,0.0,0.0,0.0,0.0,0.0,0.0,0.0,0.0,0.0,0.0,0.0,0.0,0.0,0.0,0.0,0.0,0.0,0.0,0.0,0.0,0.0,0.0,0.0,0.0,0.0,0.0,0.0,0.0,0.0,0.0,0.0,0.0,0.0,0.0,0.0,0.0,0.0,0.0,0.0,0.0,0.0,0.0,0.0,0.0,0.0,0.0,0.0,0.0,0.0,0.0,0.0,0.0,0.0,0.0,0.0,0.0,0.0,0.0,0.0,0.0,0.0,0.0,0.0,0.0,0.0,0.0,0.0,0.0,0.0,0.0,0.0,0.0,0.0,0.0,0.0,0.0,0.0,0.0,0.0,0.0,0.0,0.0,0.0,0.0,0.0,0.0,0.0,0.0,0.0,0.0,0.0,0.0,0.0,0.0,0.0,0.0,0.0,0.0,0.0,0.0,0.0,0.0,0.0,0.0,0.0,0.0,0.0,0.0,0.0,0.0,0.0,0.0,0.0,0.0,0.0,0.0,0.0,0.0,0.0,0.0,0.0,0.0,0.0,0.0,0.0,0.0,0.0,0.0,0.0,0.0,0.0,0.0,0.0,0.0,0.0,0.0,0.0,0.0,0.0,0.0,0.0,0.0,0.0,0.0,0.0,0.0,0.0,0.0,0.0,0.0,0.0,0.0,0.0,0.0,0.0,0.0,0.0,0.0,0.0,0.0,0.0,0.0,0.0,0.0,0.0,0.0,0.0,0.0,0.0,0.0,0.0,0.0,0.0,0.0,0.0,0.0,0.0,0.0,0.0,0.0,0.0,0.0,0.0,0.0,0.0,0.0,0.0,0.0,0.0,0.0,0.0,0.0,0.0,0.0,0.0,0.0,0.0,0.0,0.0,0.0,0.0,0.0,0.0,0.0,0.0,0.0,0.0,0.0,0.0,0.0,0.0,0.0,0.0,0.0,0.0,0.0,0.0,0.0,0.0,0.0,0.0,0.0,0.0,0.0,0.0,0.0,0.0,0.0,0.0,0.0,0.0,0.0,0.0,0.0,0.0,0.0,0.0,0.0,0.0,0.0,0.0,0.0,0.0,0.0,0.0,0.0,0.0,0.0,0.0,0.0,0.0,0.0,0.0,0.0,0.0,0.0,0.0,0.0,0.0,0.0,0.0,0.0,0.0,0.0,0.0,0.0,0.0,0.0,0.0,0.0,0.0,0.0,0.0,0.0,0.0,0.0,0.0,0.0,0.0,0.0,0.0,0.0,0.0,0.0,0.0,0.0,0.0,0.0,0.0,0.0,0.0,0.0,0.0,0.0,0.0,0.0,0.0,0.0,0.0,0.0,0.0,0.0,0.0,0.0,0.0,0.0,0.0,0.0,0.0,0.0,0.0,0.0,0.0,0.0,0.0,0.0,0.0,0.0,0.0,0.0,0.0,0.0,0.0,0.0,0.0,0.0,0.0,0.0,0.0,0.0,0.0,0.0,0.0,0.0,0.0,0.0,0.0,0.0,0.0,0.0,0.0,0.0,0.0,0.0,0.0,0.0,0.0,0.0,0.0,0.0,0.0,0.0,0.0,0.0,0.0,0.0,0.0,0.0,0.0,0.0,0.0,0.0,0.0,0.0,0.0,0.0,0.0,0.0,0.0,0.0,0.0,0.0,0.0,0.0,0.0,0.0,0.0,0.0,0.0,0.0,0.0,0.0,0.0,0.0,0.0,0.0,0.0,0.0,0.0,0.0,0.0,0.0,0.0,0.0,0.0,0.0,0.0,0.0,0.0,0.0,0.0,0.0,0.0,0.0,0.0,0.0,0.0,0.0,0.0,0.0,0.0,0.0,0.0,0.0,0.0,0.0,0.0,0.0,0.0,0.0,0.0,0.0,0.0,0.0,0.0,0.0,0.0,0.0,0.0,0.0,0.0,0.0,0.0,0.0,0.0,0.0,0.0,0.0,0.0,0.0,0.0,0.0,0.0,0.0,0.0,0.0,0.0,0.0,0.0,0.0,0.0,0.0,0.0,0.0,0.0,0.0,0.0,0.0,0.0,0.0,0.0,0.0,0.0,0.0,0.0,0.0,0.0,0.0,0.0,0.0,0.0,0.0,0.0,0.0,0.0,0.0,0.0,0.0,0.0,0.0,0.0,0.0,0.0,0.0,0.0,0.0,0.0,0.0,0.0,0.0,0.0,0.0,0.0,0.0,0.0,0.0,0.0,0.0,0.0,0.0,0.0,0.0,0.0,0.0,0.0,0.0,0.0,0.0,0.0,0.0,0.0,0.0,0.0,0.0,0.0,0.0,0.0,0.0,0.0,0.0,0.0,0.0,0.0,0.0,0.0,0.0,0.0,0.0,0.0,0.0,0.0,0.0,0.0,0.0,0.0,0.0,0.0,0.0,0.0,0.0,0.0,0.0,0.0,-0.8991,0.0,0.0,0.0,0.0,0.0,0.0,0.0,0.0,0.0,0.0,0.0,0.0,0.0,0.0,0.0,0.0,0.0,0.0,0.0,0.0,0.0,0.0,0.0,0.0,0.0,0.0,0.0,0.0,0.0,0.0,0.0,0.0,0.0,0.0,0.0,0.0,0.0,0.0,0.0,0.0,0.0,0.0,0.0,0.0,0.0,0.0,0.0,0.0,0.0,0.0,0.0,0.0,0.0,0.0,0.0,0.0,0.0,0.0,0.0,0.0,0.0,0.0,0.0,0.0,0.0,0.0,0.0,0.0,0.0,0.0,0.0,0.0,0.0,0.0,0.0,0.0,0.0,0.0,0.0,0.0,0.0,0.0,0.0,0.0,0.0,0.0,0.0,0.0,0.0,0.0,0.0,0.0,0.0,0.0,0.0,0.0,0.0,0.0,0.0,0.0,0.0,0.0,0.0,0.0,0.0,0.0,0.0,0.0,0.0,0.0,-0.975,-0.9056,-1.0036,-1.0037,-0.8851,0.0,0.0,0.0,0.0,0.0,0.0,0.0,0.0,0.0,0.0,0.0,0.0,0.0,0.0,0.0,0.0,0.0,0.0,0.0,0.0,0.0,0.0,0.0,0.0,0.0,0.0,0.0,0.0,0.0,0.0,0.0,0.0,0.0,0.0,0.0,0.0,0.0,0.0,0.0,0.0,0.0,0.0,0.0,0.0,0.0,0.0,0.0,0.0,0.0,0.0,0.0,0.0,0.0,0.0,0.0,0.0,0.0,0.0,0.0,0.0,0.0,0.0,0.0,0.0,0.0,0.0,0.0,0.0,0.0,0.0,0.0,0.0,0.0,0.0,0.0,0.0,0.0,0.0,0.0,0.0,0.0,0.0,0.0,0.0,0.0,0.0,0.0,0.0,0.0,0.0,0.0,0.0,0.0,0.0,0.0,0.0,0.0,0.0,0.0,0.0,0.0,0.0,0.0,0.0,0.0,0.0,0.0,0.0,0.0,0.0,0.0,0.0,-0.9969,-0.997,-0.9058,0.0,0.0,0.0,0.0,0.0,0.0,0.0,0.0,0.0,0.0,0.0,0.0,0.0,0.0,0.0,0.0,0.0,0.0,0.0,0.0,0.0,0.0,0.0,0.0,0.0,0.0,0.0,0.0,0.0,0.0,0.0,0.0,0.0,0.0,0.0,0.0,0.0,0.0,0.0,0.0,0.0,0.0,0.0,0.0,0.0,0.0,0.0,0.0,0.0,0.0,0.0,0.0,0.0,0.0,0.0,0.0,0.0,0.0,0.0,0.0,0.0,0.0,0.0,0.0,0.0,0.0,0.0,0.0,0.0,0.0,0.0,0.0,0.0,0.0,0.0,0.0,0.0,0.0,0.0,0.0,0.0,0.0,0.0,0.0,0.0,0.0,0.0,0.0,0.0,0.0,0.0,0.0,0.0,0.0,0.0,0.0,0.0,0.0,0.0,0.0,0.0,0.0,0.0,0.0,0.0,0.0,0.0,0.0,0.0,0.0,-0.9459,-0.9809,-0.9787,0.0,-0.9586,0.0,0.0,0.0,0.0,0.0,0.0,0.0,0.0,0.0,0.0,0.0,0.0,0.0,0.0,0.0,0.0,0.0,0.0,0.0,0.0,0.0,0.0,0.0,0.0,0.0,0.0,0.0,0.0,0.0,0.0,0.0,0.0,0.0,0.0,0.0,0.0,0.0,0.0,0.0,0.0,0.0,0.0,0.0,0.0,0.0,0.0,0.0,0.0,0.0,0.0,0.0,0.0,0.0,0.0,0.0,0.0,0.0,0.0,0.0,0.0,0.0,0.0,0.0,0.0,0.0,0.0,0.0,0.0,0.0,0.0,0.0,0.0,0.0,0.0,0.0,0.0,0.0,0.0,0.0,0.0,0.0,0.0,0.0,0.0,0.0,0.0,0.0,0.0,0.0,0.0,0.0,0.0,0.0,0.0,0.0,0.0,0.0,0.0,0.0,0.0,0.0,0.0,0.0,0.0,0.0,0.0,0.0,0.0,0.0,0.0,-0.9424,-0.9891,-0.9569,-0.9259,0.0,0.0,0.0,0.0,0.0,0.0,0.0,0.0,0.0,0.0,0.0,0.0,0.0,0.0,0.0,0.0,0.0,0.0,0.0,0.0,0.0,0.0,0.0,0.0,0.0,0.0,0.0,0.0,0.0,0.0,0.0,0.0,0.0,0.0,0.0,0.0,0.0,0.0,0.0,0.0,0.0,0.0,0.0,0.0,0.0,0.0,0.0,0.0,0.0,0.0,0.0,0.0,0.0,0.0,0.0,0.0,0.0,0.0,0.0,0.0,0.0,0.0,0.0,0.0,0.0,0.0,0.0,0.0,0.0,0.0,0.0,0.0,0.0,0.0,0.0,0.0,0.0,0.0,0.0,0.0,0.0,0.0,0.0,0.0,0.0,0.0,0.0,0.0,0.0,0.0,0.0,0.0,0.0,0.0,0.0,0.0,0.0,0.0,0.0,0.0,0.0,0.0,0.0,0.0,0.0,0.0,0.0,0.0,0.0,0.0,-0.9435,-0.9584,-0.9914,-0.9387,-0.8918,-0.858,0.0,0.0,0.0,0.0,0.0,0.0,0.0,0.0,0.0,0.0,0.0,0.0,0.0,0.0,0.0,0.0,0.0,0.0,0.0,0.0,0.0,0.0,0.0,0.0,0.0,0.0,0.0,0.0,0.0,0.0,0.0,0.0,0.0,0.0,0.0,0.0,0.0,0.0,0.0,0.0,0.0,0.0,0.0,0.0,0.0,0.0,0.0,0.0,0.0,0.0,0.0,0.0,0.0,0.0,0.0,0.0,0.0,0.0,0.0,0.0,0.0,0.0,0.0,0.0,0.0,0.0,0.0,0.0,0.0,0.0,0.0,0.0,0.0,0.0,0.0,0.0,0.0,0.0,0.0,0.0,0.0,0.0,0.0,0.0,0.0,0.0,0.0,0.0,0.0,0.0,0.0,0.0,0.0,0.0,0.0,0.0,0.0,0.0,0.0,0.0,0.0,0.0,0.0,0.0,0.0,0.0,0.0,0.0,-1.0797,-1.0232,-0.9962,-1.006,-0.9279,-0.8864,0.0,0.0,0.0,0.0,0.0,0.0,0.0,0.0,0.0,0.0,0.0,0.0,0.0,0.0,0.0,0.0,0.0,0.0,0.0,0.0,0.0,0.0,0.0,0.0,0.0,0.0,0.0,0.0,0.0,0.0,0.0,0.0,0.0,0.0,0.0,0.0,0.0,0.0,0.0,0.0,0.0,0.0,0.0,0.0,0.0,0.0,0.0,0.0,0.0,0.0,0.0,0.0,0.0,0.0,0.0,0.0,0.0,0.0,0.0,0.0,0.0,0.0,0.0,0.0,0.0,0.0,0.0,0.0,0.0,0.0,0.0,0.0,0.0,0.0,0.0,0.0,0.0,0.0,0.0,0.0,0.0,0.0,0.0,0.0,0.0,0.0,0.0,0.0,0.0,0.0,0.0,0.0,0.0,0.0,0.0,0.0,0.0,0.0,0.0,0.0,0.0,0.0,0.0,0.0,0.0,0.0,0.0,0.0,0.0,-0.9398,-1.0184,-1.0356,-0.9866,-0.9706,-0.9379,0.0,0.0,0.0,0.0,0.0,0.0,0.0,0.0,0.0,0.0,0.0,0.0,0.0,0.0,0.0,0.0,0.0,0.0,0.0,0.0,0.0,0.0,0.0,0.0,0.0,0.0,0.0,0.0,0.0,0.0,0.0,0.0,0.0,0.0,0.0,0.0,0.0,0.0,0.0,0.0,0.0,0.0,0.0,0.0,0.0,0.0,0.0,0.0,0.0,0.0,0.0,0.0,0.0,0.0,0.0,0.0,0.0,0.0,0.0,0.0,0.0,0.0,0.0,0.0,0.0,0.0,0.0,0.0,0.0,0.0,0.0,0.0,0.0,0.0,0.0,0.0,0.0,0.0,0.0,0.0,0.0,0.0,0.0,0.0,0.0,0.0,0.0,0.0,0.0,0.0,0.0,0.0,0.0,0.0,0.0,0.0,0.0,0.0,0.0,0.0,0.0,0.0,0.0,0.0,0.0,0.0,0.0,0.0,0.0,-0.9342,0.0,-1.1089,-1.0459,-1.0207,-0.9746,0.0,0.0,0.0,0.0,0.0,0.0,0.0,0.0,0.0,0.0,0.0,0.0,0.0,0.0,0.0,0.0,0.0,0.0,0.0,0.0,0.0,0.0,0.0,0.0,0.0,0.0,0.0,0.0,0.0,0.0,0.0,0.0,0.0,0.0,0.0,0.0,0.0,0.0,0.0,0.0,0.0,0.0,0.0,0.0,0.0,0.0,0.0,0.0,0.0,0.0,0.0,0.0,0.0,0.0,0.0,0.0,0.0,0.0,0.0,0.0,0.0,0.0,0.0,0.0,0.0,0.0,0.0,0.0,0.0,0.0,0.0,0.0,0.0,0.0,0.0,0.0,0.0,0.0,0.0,0.0,0.0,0.0,0.0,0.0,0.0,0.0,0.0,0.0,0.0,0.0,0.0,0.0,0.0,0.0,0.0,0.0,0.0,0.0,0.0,0.0,0.0,0.0,0.0,0.0,0.0,0.0,0.0,0.0,-0.9668,-1.0941,-1.181,-1.2118,-1.1879,-1.0742,-0.9889,0.0,0.0,0.0,0.0,0.0,0.0,0.0,0.0,0.0,0.0,0.0,0.0,0.0,0.0,0.0,0.0,0.0,0.0,0.0,0.0,0.0,0.0,0.0,0.0,0.0,0.0,0.0,0.0,0.0,0.0,0.0,0.0,0.0,0.0,0.0,0.0,0.0,0.0,0.0,0.0,0.0,0.0,0.0,0.0,0.0,0.0,0.0,0.0,0.0,0.0,0.0,0.0,0.0,0.0,0.0,0.0,0.0,0.0,0.0,0.0,0.0,0.0,0.0,0.0,0.0,0.0,0.0,0.0,0.0,0.0,0.0,0.0,0.0,0.0,0.0,0.0,0.0,0.0,0.0,0.0,0.0,0.0,0.0,0.0,0.0,0.0,0.0,0.0,0.0,0.0,0.0,0.0,0.0,0.0,0.0,0.0,0.0,0.0,0.0,0.0,0.0,0.0,0.0,0.0,0.0,0.0,0.0,0.0,0.0,-1.0563,-1.1915,-1.2509,-1.2151,-1.1229,-1.0573,0.0,0.0,0.0,0.0,0.0,0.0,0.0,0.0,0.0,0.0,0.0,0.0,0.0,0.0,0.0,0.0,0.0,0.0,0.0,0.0,0.0,0.0,0.0,0.0,0.0,0.0,0.0,0.0,0.0,0.0,0.0,0.0,0.0,0.0,0.0,0.0,0.0,0.0,0.0,0.0,0.0,0.0,0.0,0.0,0.0,0.0,0.0,0.0,0.0,0.0,0.0,0.0,0.0,0.0,0.0,0.0,0.0,0.0,0.0,0.0,0.0,0.0,0.0,0.0,0.0,0.0,0.0,0.0,0.0,0.0,0.0,0.0,0.0,0.0,0.0,0.0,0.0,0.0,0.0,0.0,0.0,0.0,0.0,0.0,0.0,0.0,0.0,0.0,0.0,0.0,0.0,0.0,0.0,0.0,0.0,0.0,0.0,0.0,0.0,0.0,0.0,0.0,0.0,0.0,0.0,0.0,0.0,0.0,0.0,-1.1363,-1.258,-1.316,-1.2973,-1.179,-1.1069,-1.0848,0.0,0.0,0.0,0.0,0.0,0.0,0.0,0.0,0.0,0.0,0.0,0.0,0.0,0.0,0.0,0.0,0.0,0.0,0.0,0.0,0.0,0.0,0.0,0.0,0.0,0.0,0.0,0.0,0.0,0.0,0.0,0.0,0.0,0.0,0.0,0.0,0.0,0.0,0.0,0.0,0.0,0.0,0.0,0.0,0.0,0.0,0.0,0.0,0.0,0.0,0.0,0.0,0.0,0.0,0.0,0.0,0.0,0.0,0.0,0.0,0.0,0.0,0.0,0.0,0.0,0.0,0.0,0.0,0.0,0.0,0.0,0.0,0.0,0.0,0.0,0.0,0.0,0.0,0.0,0.0,0.0,0.0,0.0,0.0,0.0,0.0,0.0,0.0,0.0,0.0,0.0,0.0,0.0,0.0,0.0,0.0,0.0,0.0,0.0,0.0,0.0,0.0,0.0,0.0,0.0,0.0,0.0,0.0,-1.3008,-1.3722,-1.4075,-1.4048,-1.2308,-1.143,0.0,0.0,0.0,0.0,0.0,0.0,0.0,0.0,0.0,0.0,0.0,0.0,0.0,0.0,0.0,0.0,0.0,0.0,0.0,0.0,0.0,0.0,0.0,0.0,0.0,0.0,0.0,0.0,0.0,0.0,0.0,0.0,0.0,0.0,0.0,0.0,0.0,0.0,0.0,0.0,0.0,0.0,0.0,0.0,0.0,0.0,0.0,0.0,0.0,0.0,0.0,0.0,0.0,0.0,0.0,0.0,0.0,0.0,0.0,0.0,0.0,0.0,0.0,0.0,0.0,0.0,0.0,0.0,0.0,0.0,0.0,0.0,0.0,0.0,0.0,0.0,0.0,0.0,0.0,0.0,0.0,0.0,0.0,0.0,0.0,0.0,0.0,0.0,0.0,0.0,0.0,0.0,0.0,0.0,0.0,0.0,0.0,0.0,0.0,0.0,0.0,0.0,0.0,0.0,0.0,0.0,0.0,0.0,0.0,-1.3255,-1.3823,-1.4088,-1.4048,-1.2358,-1.1457,0.0,0.0,0.0,0.0,0.0,0.0,0.0,0.0,0.0,0.0,0.0,0.0,0.0,0.0,0.0,0.0,0.0,0.0,0.0,0.0,0.0,0.0,0.0,0.0,0.0,0.0,0.0,0.0,0.0,0.0,0.0,0.0,0.0,0.0,0.0,0.0,0.0,0.0,0.0,0.0,0.0,0.0,0.0,0.0,0.0,0.0,0.0,0.0,0.0,0.0,0.0,0.0,0.0,0.0,0.0,0.0,0.0,0.0,0.0,0.0,0.0,0.0,0.0,0.0,0.0,0.0,0.0,0.0,0.0,0.0,0.0,0.0,0.0,0.0,0.0,0.0,0.0,0.0,0.0,0.0,0.0,0.0,0.0,0.0,0.0,0.0,0.0,0.0,0.0,0.0,0.0,0.0,0.0,0.0,0.0,0.0,0.0,0.0,0.0,0.0,0.0,0.0,0.0,0.0,0.0,0.0,0.0,0.0,-1.2299,-1.3662,-1.395,-1.4088,-1.4082,-1.2726,-1.1839,0.0,0.0,0.0,0.0,0.0,0.0,0.0,0.0,0.0,0.0,0.0,0.0,0.0,0.0,0.0,0.0,0.0,0.0,0.0,0.0,0.0,0.0,0.0,0.0,0.0,0.0,0.0,0.0,0.0,0.0,0.0,0.0,0.0,0.0,0.0,0.0,0.0,0.0,0.0,0.0,0.0,0.0,0.0,0.0,0.0,0.0,0.0,0.0,0.0,0.0,0.0,0.0,0.0,0.0,0.0,0.0,0.0,0.0,0.0,0.0,0.0,0.0,0.0,0.0,0.0,0.0,0.0,0.0,0.0,0.0,0.0,0.0,0.0,0.0,0.0,0.0,0.0,0.0,0.0,0.0,0.0,0.0,0.0,0.0,0.0,0.0,0.0,0.0,0.0,0.0,0.0,0.0,0.0,0.0,0.0,0.0,0.0,0.0,0.0,0.0,0.0,0.0,0.0,0.0,0.0,0.0,0.0,0.0,-1.2429,-1.4041,-1.4088,-1.4088,-1.4062,-1.3259,-1.2368,0.0,0.0,0.0,0.0,0.0,0.0,0.0,0.0,0.0,0.0,0.0,0.0,0.0,0.0,0.0,0.0,0.0,0.0,0.0,0.0,0.0,0.0,0.0,0.0,0.0,0.0,0.0,0.0,0.0,0.0,0.0,0.0,0.0,0.0,0.0,0.0,0.0,0.0,0.0,0.0,0.0,0.0,0.0,0.0,0.0,0.0,0.0,0.0,0.0,0.0,0.0,0.0,0.0,0.0,0.0,0.0,0.0,0.0,0.0,0.0,0.0,0.0,0.0,0.0,0.0,0.0,0.0,0.0,0.0,0.0,0.0,0.0,0.0,0.0,0.0,0.0,0.0,0.0,0.0,0.0,0.0,0.0,0.0,0.0,0.0,0.0,0.0,0.0,0.0,0.0,0.0,0.0,0.0,0.0,0.0,0.0,0.0,0.0,0.0,0.0,0.0,0.0,0.0,0.0,0.0,0.0,0.0,0.0,-1.2563,-1.4035,-1.4088,-1.4088,-1.4088,-1.3259,-1.2405,0.0,0.0,0.0,0.0,0.0,0.0,0.0,0.0,0.0,0.0,0.0,0.0,0.0,0.0,0.0,0.0,0.0,0.0,0.0,0.0,0.0,0.0,0.0,0.0,0.0,0.0,0.0,0.0,0.0,0.0,0.0,0.0,0.0,0.0,0.0,0.0,0.0,0.0,0.0,0.0,0.0,0.0,0.0,0.0,0.0,0.0,0.0,0.0,-1.5832,0.0,0.0,0.0,0.0,0.0,0.0,0.0,0.0,0.0,0.0,0.0,0.0,0.0,0.0,0.0,0.0,0.0,0.0,0.0,0.0,0.0,0.0,0.0,0.0,0.0,0.0,0.0,0.0,0.0,0.0,0.0,0.0,0.0,0.0,0.0,0.0,0.0,0.0,0.0,0.0,0.0,0.0,0.0,0.0,0.0,0.0,0.0,0.0,0.0,0.0,0.0,0.0,0.0,0.0,0.0,0.0,0.0,0.0,0.0,-1.2911,-1.4035,-1.4088,-1.4088,-1.4068,-1.3661,-1.2797,0.0,0.0,0.0,0.0,0.0,0.0,0.0,0.0,0.0,0.0,0.0,0.0,0.0,0.0,0.0,0.0,0.0,0.0,0.0,0.0,0.0,0.0,0.0,0.0,0.0,0.0,0.0,0.0,0.0,0.0,0.0,0.0,0.0,0.0,0.0,0.0,0.0,0.0,0.0,0.0,0.0,0.0,0.0,0.0,0.0,0.0,0.0,0.0,0.0,0.0,0.0,0.0,0.0,0.0,0.0,0.0,0.0,0.0,0.0,0.0,0.0,0.0,0.0,0.0,0.0,0.0,0.0,0.0,0.0,0.0,0.0,0.0,0.0,0.0,0.0,0.0,0.0,0.0,0.0,0.0,0.0,0.0,0.0,0.0,0.0,0.0,0.0,0.0,0.0,0.0,0.0,0.0,0.0,0.0,0.0,0.0,0.0,0.0,0.0,0.0,0.0,0.0,0.0,0.0,0.0,0.0,0.0,-1.2341,-1.3132,-1.4041,-1.4088,-1.4088,-1.4088,-1.4088,-1.3253,-1.1475,0.0,0.0,0.0,0.0,0.0,0.0,0.0,0.0,0.0,0.0,0.0,0.0,0.0,0.0,0.0,0.0,0.0,0.0,0.0,0.0,0.0,0.0,0.0,0.0,0.0,0.0,0.0,0.0,0.0,0.0,0.0,0.0,0.0,0.0,0.0,0.0,0.0,0.0,-1.4507,-1.5853,0.0,0.0,0.0,0.0,0.0,0.0,0.0,0.0,-1.6955,0.0,0.0,0.0,0.0,0.0,0.0,0.0,0.0,0.0,0.0,0.0,0.0,0.0,0.0,0.0,0.0,0.0,0.0,0.0,0.0,0.0,0.0,0.0,0.0,0.0,0.0,0.0,0.0,0.0,0.0,0.0,0.0,0.0,0.0,0.0,0.0,0.0,0.0,0.0,0.0,0.0,0.0,0.0,0.0,0.0,0.0,0.0,0.0,0.0,0.0,0.0,0.0,0.0,0.0,0.0,0.0,-1.2009,-1.2016,-1.2685,-1.4041,-1.4088,-1.4088,-1.4088,-1.4088,-1.3247,-1.1515,0.0,0.0,0.0,0.0,0.0,0.0,0.0,0.0,0.0,0.0,0.0,0.0,0.0,0.0,0.0,0.0,0.0,0.0,0.0,0.0,0.0,0.0,0.0,0.0,0.0,0.0,0.0,0.0,0.0,0.0,0.0,0.0,0.0,0.0,0.0,0.0,0.0,0.0,0.0,-1.831,-1.8537,0.0,0.0,0.0,0.0,0.0,0.0,0.0,0.0,-1.7409,0.0,0.0,0.0,0.0,0.0,0.0,0.0,0.0,0.0,0.0,0.0,0.0,0.0,0.0,0.0,0.0,0.0,0.0,0.0,0.0,0.0,0.0,0.0,0.0,0.0,0.0,0.0,0.0,0.0,0.0,0.0,0.0,0.0,0.0,0.0,0.0,0.0,0.0,0.0,0.0,0.0,0.0,0.0,0.0,0.0,0.0,0.0,0.0,0.0,0.0,0.0,0.0,0.0,0.0,0.0,-1.1818,-1.2627,-1.3367,-1.4062,-1.4088,-1.4088,-1.4088,-1.4088,-1.3253,0.0,0.0,0.0,0.0,0.0,0.0,0.0,0.0,0.0,0.0,0.0,0.0,0.0,0.0,0.0,0.0,0.0,0.0,0.0,0.0,0.0,0.0,0.0,0.0,0.0,0.0,0.0,0.0,0.0,0.0,0.0,0.0,0.0,0.0,0.0,0.0,0.0,0.0,0.0,0.0,-1.8898,-1.9261,-2.0261,0.0,0.0,0.0,0.0,0.0,0.0,-1.7525,-1.7333,0.0,0.0,0.0,0.0,0.0,0.0,0.0,0.0,0.0,0.0,0.0,0.0,0.0,0.0,0.0,0.0,0.0,0.0,0.0,0.0,0.0,0.0,0.0,0.0,0.0,0.0,0.0,0.0,0.0,0.0,0.0,0.0,0.0,0.0,0.0,0.0,0.0,0.0,0.0,0.0,0.0,0.0,0.0,0.0,0.0,0.0,0.0,0.0,0.0,0.0,0.0,0.0,0.0,0.0,0.0,-1.1635,-1.3077,-1.3908,-1.4075,-1.4088,-1.4088,-1.4088,-1.4088,-1.3253,0.0,0.0,0.0,0.0,0.0,0.0,0.0,0.0,0.0,0.0,0.0,0.0,0.0,0.0,0.0,0.0,0.0,0.0,0.0,0.0,0.0,0.0,0.0,0.0,0.0,0.0,0.0,0.0,0.0,0.0,0.0,0.0,0.0,0.0,0.0,0.0,0.0,0.0,0.0,0.0,0.0,-1.9847,-2.0882,-1.9939,0.0,0.0,0.0,0.0,-1.8044,-1.8093,0.0,0.0,0.0,0.0,0.0,0.0,0.0,0.0,0.0,0.0,0.0,0.0,0.0,0.0,0.0,0.0,0.0,0.0,0.0,0.0,0.0,0.0,0.0,0.0,0.0,0.0,0.0,0.0,0.0,0.0,0.0,0.0,0.0,0.0,0.0,0.0,0.0,0.0,0.0,0.0,0.0,0.0,0.0,0.0,0.0,0.0,0.0,0.0,0.0,0.0,0.0,0.0,0.0,0.0,0.0,0.0,-1.1587,-1.2503,-1.3326,-1.4041,-1.4088,-1.4088,-1.4088,-1.4088,-1.3247,0.0,0.0,0.0,0.0,0.0,0.0,0.0,0.0,0.0,0.0,0.0,0.0,0.0,0.0,0.0,0.0,0.0,0.0,0.0,0.0,0.0,0.0,0.0,0.0,0.0,0.0,0.0,0.0,0.0,0.0,0.0,0.0,0.0,0.0,0.0,0.0,0.0,0.0,0.0,0.0,0.0,-2.0964,-1.9655,-1.9757,-1.9761,0.0,0.0,0.0,-2.1108,-2.1277,0.0,0.0,0.0,0.0,0.0,0.0,0.0,0.0,0.0,0.0,0.0,0.0,0.0,0.0,0.0,0.0,0.0,0.0,0.0,0.0,0.0,0.0,0.0,0.0,0.0,0.0,0.0,0.0,0.0,0.0,0.0,0.0,0.0,0.0,0.0,0.0,0.0,0.0,0.0,0.0,0.0,0.0,0.0,0.0,0.0,0.0,0.0,0.0,0.0,0.0,0.0,0.0,0.0,0.0,0.0,-1.1141,-1.1525,-1.2831,-1.3694,-1.4068,-1.4088,-1.4088,-1.4088,-1.4088,-1.3253,0.0,0.0,0.0,0.0,0.0,0.0,0.0,0.0,0.0,0.0,0.0,0.0,0.0,0.0,0.0,0.0,0.0,0.0,0.0,0.0,0.0,0.0,0.0,0.0,0.0,0.0,0.0,0.0,0.0,0.0,0.0,0.0,0.0,0.0,0.0,0.0,0.0,0.0,0.0,0.0,0.0,0.0,-2.1931,-2.1365,0.0,0.0,0.0,-2.0839,-2.0682,0.0,0.0,0.0,0.0,0.0,0.0,0.0,0.0,0.0,0.0,0.0,0.0,0.0,0.0,0.0,0.0,0.0,0.0,0.0,0.0,0.0,0.0,0.0,0.0,0.0,0.0,0.0,0.0,0.0,0.0,0.0,0.0,0.0,0.0,0.0,0.0,0.0,0.0,0.0,0.0,0.0,0.0,0.0,0.0,0.0,0.0,0.0,0.0,0.0,0.0,0.0,0.0,0.0,0.0,0.0,0.0,0.0,-1.1463,-1.3186,-1.4088,-1.4088,-1.4088,-1.4088,-1.4088,-1.4088,0.0,0.0,0.0,0.0,0.0,0.0,0.0,0.0,0.0,0.0,0.0,0.0,0.0,0.0,0.0,0.0,0.0,0.0,0.0,0.0,0.0,0.0,0.0,0.0,0.0,0.0,0.0,-1.1393,0.0,0.0,0.0,0.0,0.0,0.0,0.0,0.0,0.0,0.0,0.0,0.0,0.0,0.0,-2.2035,-2.3289,-2.2479,-2.1838,0.0,0.0,-2.1525,-2.0976,-2.172,-2.2219,0.0,0.0,0.0,0.0,0.0,0.0,0.0,0.0,0.0,0.0,0.0,0.0,0.0,0.0,0.0,0.0,0.0,0.0,0.0,0.0,0.0,0.0,0.0,0.0,0.0,0.0,0.0,0.0,0.0,0.0,0.0,0.0,0.0,0.0,0.0,0.0,0.0,0.0,0.0,0.0,0.0,0.0,0.0,0.0,0.0,0.0,0.0,0.0,0.0,0.0,0.0,0.0,0.0,0.0,0.0,-1.1449,-1.3186,-1.4088,-1.4088,-1.4088,-1.4088,-1.4088,-1.4088,-1.3253,0.0,0.0,0.0,0.0,0.0,0.0,0.0,0.0,0.0,0.0,0.0,0.0,0.0,0.0,0.0,0.0,0.0,0.0,0.0,0.0,0.0,0.0,0.0,0.0,0.0,0.0,0.0,0.0,0.0,0.0,0.0,0.0,0.0,0.0,0.0,0.0,0.0,0.0,0.0,0.0,0.0,-2.1759,-2.1668,-2.2034,-2.2727,0.0,0.0,-2.2676,-2.3626,-2.3864,-2.4365,-2.558,0.0,0.0,0.0,0.0,0.0,0.0,0.0,0.0,0.0,0.0,0.0,0.0,0.0,0.0,0.0,0.0,0.0,0.0,0.0,0.0,0.0,0.0,0.0,0.0,0.0,0.0,0.0,0.0,0.0,0.0,0.0,0.0,0.0,0.0,0.0,0.0,0.0,0.0,0.0,0.0,0.0,0.0,0.0,0.0,0.0,0.0,0.0,0.0,0.0,0.0,0.0,0.0,0.0,-1.143,-1.1415,-1.3186,-1.4088,-1.4088,-1.4088,-1.4088,-1.4088,-1.4088,-1.3601,0.0,0.0,0.0,0.0,0.0,0.0,0.0,0.0,0.0,0.0,0.0,0.0,0.0,0.0,0.0,0.0,0.0,0.0,0.0,0.0,0.0,0.0,0.0,0.0,0.0,0.0,0.0,0.0,-1.504,-1.5715,-1.5624,0.0,0.0,0.0,0.0,0.0,0.0,0.0,0.0,0.0,0.0,-2.3091,-2.3119,-2.3315,0.0,0.0,-2.3746,-2.3602,-2.4047,-2.4419,-2.4836,-2.5508,-2.5863,0.0,0.0,0.0,0.0,0.0,0.0,0.0,0.0,0.0,0.0,0.0,0.0,0.0,0.0,0.0,0.0,0.0,0.0,0.0,0.0,0.0,0.0,0.0,0.0,0.0,0.0,0.0,0.0,0.0,0.0,0.0,0.0,0.0,0.0,0.0,0.0,0.0,0.0,0.0,0.0,0.0,0.0,0.0,0.0,0.0,0.0,0.0,0.0,0.0,0.0,0.0,0.0,-1.1597,-1.1697,-1.3447,-1.4392,-1.4355,-1.4262,-1.4222,-1.4215,-1.4215,-1.3901,0.0,0.0,0.0,0.0,0.0,0.0,0.0,0.0,0.0,0.0,0.0,0.0,0.0,0.0,0.0,0.0,0.0,0.0,0.0,0.0,0.0,0.0,0.0,0.0,0.0,0.0,0.0,0.0,-1.5732,-1.639,-1.6879,0.0,0.0,0.0,0.0,0.0,0.0,0.0,0.0,0.0,0.0,-2.3949,-2.4096,-2.4256,-2.4374,-2.4374,-2.4517,-2.4681,-2.4876,-2.4951,-2.5177,-2.566,0.0,0.0,0.0,0.0,0.0,0.0,0.0,0.0,0.0,0.0,0.0,0.0,0.0,0.0,0.0,0.0,0.0,0.0,0.0,0.0,0.0,0.0,0.0,0.0,0.0,0.0,0.0,0.0,0.0,0.0,0.0,0.0,0.0,0.0,0.0,0.0,0.0,0.0,0.0,0.0,0.0,0.0,0.0,0.0,0.0,0.0,0.0,0.0,0.0,0.0,0.0,0.0,0.0,0.0,-1.2291,-1.4057,-1.4981,-1.4975,-1.4663,-1.4509,-1.4516,-1.4472,-1.4102,-1.324,0.0,0.0,0.0,0.0,0.0,0.0,0.0,0.0,0.0,0.0,0.0,0.0,0.0,0.0,0.0,0.0,0.0,0.0,0.0,0.0,0.0,0.0,0.0,0.0,0.0,0.0,-1.3107,-1.4092,-1.586,0.0,0.0,0.0,0.0,0.0,0.0,0.0,0.0,0.0,0.0,-2.3865,-2.3949,-2.4096,-2.4626,-2.4953,-2.4953,-2.538,-2.5963,-2.6543,-2.5778,-2.5448,0.0,0.0,0.0,0.0,0.0,0.0,0.0,0.0,0.0,0.0,0.0,0.0,0.0,0.0,0.0,0.0,0.0,0.0,0.0,0.0,0.0,0.0,0.0,0.0,0.0,0.0,0.0,0.0,0.0,0.0,0.0,0.0,0.0,0.0,0.0,0.0,0.0,0.0,0.0,0.0,-0.8361,-0.8903,0.0,0.0,0.0,0.0,0.0,0.0,0.0,0.0,0.0,0.0,0.0,0.0,-1.2011,-1.2365,-1.4097,-1.5015,-1.5008,-1.487,-1.4816,-1.4861,-1.4861,-1.4402,-1.3493,0.0,0.0,0.0,0.0,0.0,0.0,0.0,0.0,0.0,0.0,0.0,0.0,0.0,0.0,0.0,0.0,0.0,0.0,0.0,0.0,0.0,0.0,0.0,0.0,0.0,-1.5473,0.0,0.0,0.0,0.0,0.0,0.0,0.0,0.0,0.0,0.0,0.0,-2.3074,-2.3813,-2.4201,-2.4322,-2.4018,-2.4549,-2.4861,0.0,0.0,0.0,0.0,0.0,0.0,0.0,0.0,0.0,0.0,0.0,0.0,0.0,0.0,-2.6032,-2.6475,-2.6585,-2.6751,-2.7124,0.0,0.0,0.0,0.0,0.0,0.0,0.0,0.0,0.0,0.0,0.0,0.0,0.0,0.0,0.0,0.0,-0.4999,0.0,0.0,0.0,0.0,0.0,0.0,0.0,0.0,-0.6942,-0.7208,-0.7715,-0.8304,-0.8592,0.0,-0.952,-0.9856,0.0,0.0,0.0,0.0,0.0,0.0,0.0,0.0,-1.2786,-1.3126,-1.4516,-1.5271,-1.5257,-1.5164,-1.5117,-1.5156,-1.511,-1.489,-1.4379,-1.4202,-1.3728,0.0,0.0,0.0,0.0,0.0,0.0,0.0,0.0,0.0,0.0,0.0,0.0,0.0,0.0,0.0,0.0,0.0,0.0,0.0,0.0,0.0,0.0,0.0,-1.6877,0.0,0.0,0.0,0.0,0.0,0.0,0.0,0.0,0.0,-2.2222,-2.2981,-2.3569,-2.376,-2.4086,-2.4283,-2.429,0.0,0.0,0.0,0.0,0.0,0.0,0.0,-2.7177,-2.6688,-2.6926,-2.7074,-2.6831,-2.6979,-2.7494,-2.8509,0.0,0.0,-2.853,-2.8534,-2.8683,-2.9123,-2.9014,-2.8936,-2.9171,-2.903,-2.8858,0.0,0.0,0.0,0.0,0.0,0.0,0.0,0.0,-0.581,-0.58,0.0,0.0,0.0,0.0,0.0,0.0,0.0,0.0,0.0,0.0,-0.7122,-0.7366,-0.7433,-0.7752,-0.7778,-0.7644,-0.811,-0.8796,-0.962,-0.9893,0.0,0.0,0.0,0.0,0.0,0.0,-1.4186,-1.4402,-1.5311,-1.5778,-1.5805,-1.5551,-1.5411,-1.5404,-1.5411,-1.5531,-1.5758,-1.4743,-1.4128,-1.4041,-1.1657,0.0,0.0,0.0,0.0,0.0,0.0,0.0,0.0,0.0,0.0,0.0,0.0,0.0,0.0,0.0,0.0,0.0,0.0,0.0,0.0,-1.6678,0.0,0.0,0.0,0.0,0.0,0.0,0.0,0.0,0.0,0.0,-2.3522,-2.3467,-2.3463,-2.3624,0.0,0.0,0.0,0.0,-2.6002,-2.6549,-2.7118,-2.7657,-2.8285,-2.7501,-2.7008,-2.7543,0.0,0.0,-2.7693,-2.7823,-2.8225,-2.9711,-2.9788,-2.9482,-2.8448,-2.8348,-2.8581,-2.9279,-2.899,-2.8735,-2.9227,-2.8999,-2.8513,-0.3385,0.0,0.0,0.0,0.0,-0.4888,-0.5387,-0.6166,-0.6166,-0.6067,-0.5919,-0.5841,0.0,0.0,0.0,0.0,0.0,0.0,-0.6669,-0.6926,-0.7122,-0.7322,-0.7536,-0.7624,-0.7647,-0.76,-0.7842,-0.8177,-0.8611,-0.8819,-0.9854,-1.1699,0.0,0.0,0.0,0.0,-1.3126,-1.3523,-1.5002,-1.5825,-1.5825,-1.5752,-1.5658,-1.5705,-1.5705,-1.5698,-1.5825,-1.5458,-1.4943,-1.4115,-1.336,0.0,0.0,0.0,0.0,0.0,0.0,0.0,0.0,0.0,0.0,0.0,0.0,0.0,0.0,0.0,0.0,0.0,0.0,0.0,-1.8136,-1.8604,-1.8406,0.0,0.0,0.0,0.0,0.0,0.0,0.0,0.0,0.0,-2.3463,-2.3433,-2.3615,0.0,0.0,-2.4978,-2.5376,-2.5882,-2.62,-2.608,0.0,0.0,0.0,-2.7658,-2.7736,-2.708,-2.6716,-2.6952,-2.824,-2.8453,-2.8707,-2.9564,-2.9687,-2.9594,-2.9437,-2.9509,-2.9725,-3.0007,-2.994,-2.9879,-3.0017,-2.9571,-2.9119,-0.2435,-0.2575,-0.3185,-0.3763,-0.4291,-0.4372,-0.5055,-0.6075,-0.6034,-0.6191,-0.6421,-0.6346,-0.6209,-0.6156,-0.6132,0.0,0.0,0.0,-0.685,-0.7104,-0.7224,-0.7421,-0.76,-0.7719,-0.7773,-0.778,-0.7955,-0.8147,-0.8251,-0.8484,-0.9571,-1.1504,0.0,0.0,-1.1775,-1.2325,-1.2671,-1.2928,-1.4415,-1.5207,-1.5207,-1.5588,-1.5825,-1.5825,-1.5825,-1.5825,-1.5825,-1.5825,-1.5504,-1.481,-1.4335,-1.3681,0.0,0.0,0.0,0.0,0.0,0.0,0.0,0.0,0.0,0.0,0.0,-1.3487,0.0,0.0,0.0,0.0,-1.6939,-1.8078,-1.9095,-1.9431,0.0,0.0,0.0,0.0,0.0,0.0,0.0,-2.2599,-2.3098,-2.3499,-2.3511,-2.3741,-2.4113,-2.4448,-2.4979,-2.5479,-2.5979,0.0,-2.6505,-2.6485,-2.6791,-2.7013,-2.7013,-2.7604,-2.7854,-2.7144,-2.7054,-2.754,-2.8765,-2.9,-2.9349,-3.0119,-3.0357,-3.04,-3.0566,-3.0716,-3.0677,-3.0389,-3.036,-3.0402,-3.0402,-3.0079,-2.9787,-0.1478,-0.1661,-0.3224,-0.38,-0.3736,-0.3941,-0.468,-0.5699,-0.5694,-0.6225,-0.7092,-0.6858,-0.6742,-0.6736,-0.6508,0.0,0.0,-0.6773,-0.6922,-0.7142,-0.7468,-0.7597,-0.7611,-0.7875,-0.7955,-0.7951,-0.8248,-0.8347,-0.834,-0.8583,-0.9371,-1.0587,-1.0587,-1.1234,-1.2528,-1.2576,-1.2581,-1.2581,-1.3607,-1.4202,-1.4298,-1.5207,-1.5683,-1.5825,-1.5825,-1.5825,-1.5825,-1.5825,-1.5825,-1.5792,-1.4783,-1.4188,-1.4142,0.0,0.0,0.0,0.0,0.0,0.0,0.0,0.0,0.0,0.0,0.0,0.0,0.0,0.0,0.0,-1.8792,0.0,-1.9323,-1.9489,0.0,0.0,0.0,-2.1174,-2.1104,-2.1931,-2.2502,-2.2502,0.0,0.0,0.0,0.0,-2.481,-2.4635,-2.5006,-2.5659,-2.6596,-2.672,-2.6902,-2.7326,-2.7477,-2.7503,-2.7555,-2.7714,-2.7826,-2.7866,-2.7695,-2.8183,-2.9376,-2.9586,-3.0133,-3.1203,-3.1481,-3.1495,-3.1727,-3.1694,-3.1492,-3.0552,-3.0481,-3.0575,-3.0622,-3.0555,-3.0479,-0.1478,-0.1524,-0.1925,-0.2558,-0.3193,-0.3255,-0.4291,-0.5885,-0.5804,-0.6357,-0.7302,-0.7119,-0.7102,-0.7255,-0.7136,-0.7207,-0.7383,-0.7387,-0.7424,-0.7492,-0.7563,-0.7597,-0.76,-0.7672,-0.7706,-0.7706,-0.7753,-0.7798,-0.7798,-0.7845,-0.8219,-0.8875,-0.8922,-0.9814,-1.1502,-1.1565,-1.1565,-1.156,-1.2587,-1.3463,-1.4298,-1.4538,-1.5016,-1.5778,-1.5825,-1.5825,-1.5825,-1.5825,-1.5825,-1.5818,-1.5351,-1.509,-1.5064,-1.3634,0.0,0.0,0.0,0.0,0.0,0.0,0.0,0.0,0.0,-1.6024,-1.8297,0.0,-1.8374,0.0,-1.8792,-1.9396,-1.965,-1.9634,0.0,0.0,-2.0548,-2.0928,-2.0309,-2.1561,-2.2514,-2.257,-2.3177,-2.3845,-2.4439,-2.5061,-2.5471,-2.5541,-2.5565,-2.5876,-2.6771,-2.692,-2.7013,-2.7335,-2.7462,-2.7693,-2.8111,-2.8569,-2.9004,-2.9569,-2.9235,-2.9408,-3.0725,-3.054,-3.051,-3.1307,-3.1496,-3.1524,-3.1598,-3.1683,-3.1737,-3.149,-3.1594,-3.1772,-3.1772,-3.144,-3.1151,-0.1305,-0.1405,-0.1406,-0.179,-0.2345,-0.2353,-0.3188,-0.4651,-0.4557,-0.5371,-0.6808,-0.7152,-0.7394,-0.7518,-0.7472,-0.7519,-0.7597,-0.7597,-0.7597,-0.76,-0.7665,-0.7692,-0.7699,-0.7763,-0.776,-0.7695,-0.7695,-0.7662,-0.76,-0.7597,-0.7832,-0.8294,-0.8294,-0.8946,-1.0232,-1.0325,-1.0413,-1.0413,-1.1463,-1.2538,-1.3559,-1.3613,-1.4094,-1.5064,-1.4669,-1.486,-1.5778,-1.535,-1.535,-1.5778,-1.5678,-1.5531,-1.5391,-1.4509,-1.435,0.0,0.0,0.0,0.0,0.0,0.0,0.0,0.0,0.0,0.0,0.0,-1.8987,0.0,0.0,0.0,-2.0153,-2.0098,-2.007,-2.006,-2.0656,-2.0905,-2.0508,-2.1423,-2.2243,-2.273,-2.3398,-2.4124,-2.4921,-2.5598,-2.6156,-2.6463,-2.6408,-2.6602,-2.7224,-2.7451,-2.7597,-2.7993,-2.8204,-2.8412,-2.8773,-2.9052,-2.9416,-2.9714,-2.9579,-2.9788,-3.1112,-3.1143,-3.1211,-3.2154,-3.2378,-3.2378,-3.2378,-3.2466,-3.2526,-3.2584,-3.2716,-3.2692,-3.23,-3.1968,-3.1762,-0.1013,-0.1331,-0.1333,-0.1415,-0.1624,-0.1571,-0.2117,-0.2999,-0.2992,-0.412,-0.6048,-0.6979,-0.7466,-0.7597,-0.7597,-0.7597,-0.7597,-0.7597,-0.7597,-0.7607,-0.7726,-0.7784,-0.779,-0.7919,-0.7864,-0.7787,-0.7784,-0.7719,-0.76,-0.7597,-0.7821,-0.8217,-0.826,-0.8536,-0.8942,-0.9202,-0.9355,-0.9404,-1.0563,-1.1682,-1.2678,-1.2684,-1.3216,-1.4202,-1.3264,-1.3596,-1.5493,-1.4771,-1.4777,-1.573,-1.5798,-1.5658,-1.5404,-1.5084,-1.4929,0.0,-1.4576,0.0,0.0,0.0,0.0,0.0,0.0,0.0,0.0,-1.8647,-1.9539,-2.0527,-2.0615,-2.0615,-2.0615,-2.0615,-2.0615,-2.0605,-2.077,-2.0984,-2.1138,-2.132,-2.1835,-2.2852,-2.3621,-2.4384,-2.5301,-2.6089,-2.6801,-2.7278,-2.7379,-2.7536,-2.7895,-2.8033,-2.828,-2.8843,-2.9162,-2.9291,-2.9392,-2.947,-2.9598,-2.9572,-2.9516,-2.9847,-3.1112,-3.1368,-3.1817,-3.2961,-3.3303,-3.344,-3.3499,-3.3469,-3.3469,-3.344,-3.3487,-3.3336,-3.2734,-3.2542,-3.2507,-0.1119,-0.1598,-0.1386,-0.1434,-0.1686,-0.1675,-0.2218,-0.3087,-0.2948,-0.4037,-0.5891,-0.6178,-0.6747,-0.7553,-0.7597,-0.7597,-0.7597,-0.7597,-0.7597,-0.7597,-0.7628,-0.7641,-0.7641,-0.7668,-0.7665,-0.7641,-0.7638,-0.7628,-0.7597,-0.7597,-0.7672,-0.7823,-0.8006,-0.8216,0.0,0.0,0.0,0.0,-1.0432,-1.1533,-1.2624,-1.2684,-1.3221,-1.4202,-1.327,0.0,-1.4484,-1.4394,-1.4771,-1.5724,-1.5605,0.0,0.0,0.0,0.0,0.0,0.0,0.0,0.0,0.0,0.0,0.0,-1.5854,-1.6591,-1.6944,-1.7755,-1.8926,-2.044,-2.0615,-2.0615,-2.0615,-2.0615,-2.0615,-2.0605,-2.078,-2.0916,-2.0945,-2.1128,-2.1645,-2.2633,-2.339,-2.439,-2.572,-2.6644,-2.7295,-2.7809,-2.7959,-2.8134,-2.8623,-2.8478,-2.8384,-2.8547,-2.9246,-2.9759,-2.9931,-3.0333,-3.0592,-3.062,-3.0255,-3.0306,-3.1015,-3.132,-3.166,-3.2544,-3.3083,-3.3514,-3.3529,-3.3499,-3.3589,-3.3514,-3.3545,-3.3562,-3.3651,-3.3738,-3.3885,-0.0765,0.0,-0.1148,-0.1353,0.0,0.0,-0.1963,-0.2354,-0.2326,-0.3521,-0.5548,-0.6088,-0.693,-0.7926,-0.7848,-0.7777,-0.7702,-0.7631,-0.7634,-0.7702,-0.7706,-0.7784,-0.7929,-0.7929,-0.7889,-0.7818,-0.7818,-0.774,-0.7604,-0.7597,-0.765,-0.7798,-0.7944,-0.8048,-0.8158,-0.8378,-0.8774,-0.9273,-0.9875,-1.0446,-1.1019,-1.1127,-1.1663,-1.2684,0.0,0.0,0.0,0.0,0.0,0.0,0.0,0.0,0.0,0.0,0.0,-1.4926,-1.4629,-1.4503,-1.4581,-1.4572,-1.4566,-1.4566,-1.5186,-1.6255,-1.7836,-1.8407,-1.9164,-2.045,-2.0615,-2.0615,-2.0615,-2.0615,-2.0615,-2.0605,-2.0693,-2.078,-2.0916,-2.0984,-2.1573,-2.2772,-2.3323,-2.4123,-2.5613,-2.6132,-2.6806,-2.7704,-2.7877,-2.8237,-2.9101,-2.9025,-2.8932,-2.9323,-2.9852,-3.0295,-3.0396,-3.0727,-3.0986,-3.0934,-3.0738,-3.085,-3.146,-3.1664,-3.1978,-3.2672,-3.3416,-3.3918,-3.3935,-3.4188,-3.4472,-3.4502,-3.4487,-3.4581,-3.4771,-3.441,-3.4014,-0.034,-0.0905,-0.0846,-0.1109,-0.1565,-0.1615,-0.164,-0.165,0.0,0.0,0.0,-0.5739,-0.6804,-0.7988,-0.7867,-0.7846,-0.7926,-0.7807,-0.7818,-0.7929,-0.7902,-0.8028,-0.8316,-0.8241,-0.8177,-0.8032,-0.8079,-0.7921,-0.776,-0.7729,-0.7798,-0.7909,-0.7932,-0.8016,-0.8106,-0.8143,-0.8417,-0.8856,-0.931,-0.9573,-0.964,-0.979,-1.0271,-1.117,-1.0162,-1.0993,-1.3854,-1.3173,-1.365,-1.5683,-1.5825,-1.5671,-1.5491,-1.5424,-1.5291,-1.5095,-1.4763,-1.4569,-1.4516,-1.4453,-1.4411,-1.4405,-1.4566,-1.5876,-1.8807,-1.9015,-1.949,-2.0527,-2.0615,-2.0615,-2.0615,-2.0615,-2.0615,-2.0615,-2.0615,-2.0673,-2.0927,-2.0947,-2.1536,-2.2801,-2.3246,-2.3896,-2.5177,-2.5579,-2.6073,-2.7218,-2.7711,-2.8217,-2.941,-2.9479,-2.9504,-3.01,-3.0317,-3.0545,-3.0647,-3.0785,-3.0936,-3.0949,-3.0936,-3.1235,-3.175,-3.2015,-3.2326,-3.2799,-3.3685,-3.4201,-3.4351,-3.4883,-3.5457,-3.5489,-3.5489,-3.5522,-3.5563,-3.4796,-3.4227,-0.0351,-0.0877,-0.0576,-0.0686,-0.1023,-0.1289,-0.1499,-0.1762,-0.1723,-0.2412,-0.3543,-0.3688,-0.494,-0.692,-0.6901,-0.7464,-0.8387,-0.8367,-0.8367,0.0,-0.8265,-0.8231,-0.8313,-0.8133,-0.813,-0.8231,-0.8238,-0.8279,-0.834,-0.8228,-0.8109,-0.8026,-0.8094,-0.8128,-0.8132,-0.8125,-0.811,-0.8108,-0.9521,-1.0375,-1.0677,-1.071,-1.0855,-1.1116,-1.0158,-1.0645,-1.2834,-1.2775,-1.365,-1.5683,-1.5825,-1.5812,-1.5765,-1.5531,-1.5378,-1.5324,-1.5064,-1.479,-1.4543,-1.4476,-1.4471,-1.4383,-1.4433,-1.5462,-1.7658,-1.7948,-1.8669,-2.0362,-2.0566,-2.0615,-2.0615,-2.0615,-2.0635,-2.0615,-2.0615,-2.0762,-2.1114,-2.1192,-2.151,-2.2321,-2.3109,-2.3908,-2.477,-2.5563,-2.6263,-2.7048,-2.777,-2.8694,-2.9484,-2.9767,-2.9845,-3.005,-3.0152,-3.0267,-3.0406,-3.0609,-3.0736,-3.0736,-3.0874,-3.1024,-3.1198,-3.164,-3.2037,-3.2232,-3.3255,-3.4109,-3.4245,-3.4953,-3.5359,-3.5457,-3.5489,-3.5504,-3.5539,-3.5282,-3.5275,-0.0236,-0.0589,-0.0467,-0.0583,-0.0932,-0.104,-0.1261,-0.153,-0.1472,-0.2256,-0.3411,-0.349,-0.4357,-0.5761,-0.5753,-0.6333,-0.7425,-0.7346,-0.7718,-0.8357,-0.8354,-0.8357,-0.8486,-0.8353,-0.8316,-0.8381,-0.8357,-0.8303,-0.8405,-0.835,-0.8272,-0.8262,-0.8155,-0.8122,-0.8146,-0.8048,-0.8013,-0.8042,-0.8914,-0.9444,-0.9621,-0.9914,-1.0154,-1.0197,-0.9813,-1.0306,-1.1853,-1.2387,-1.3409,-1.4921,-1.5493,-1.5825,-1.5825,-1.5705,-1.5625,-1.5618,-1.5357,-1.5137,-1.5003,-1.4696,-1.4506,-1.4444,-1.4331,-1.4894,-1.6478,-1.7293,-1.8261,-1.9599,-2.0235,-2.0615,-2.0625,-2.0781,-2.083,-2.0615,-2.1016,-2.126,-2.122,-2.1465,-2.184,-2.2472,-2.2958,-2.3567,-2.4388,-2.4901,-2.5485,-2.6295,-2.7557,-2.8803,-2.9624,-2.9779,-2.983,-2.9946,-3.0049,-3.0113,-3.0216,-3.0406,-3.0533,-3.0533,-3.0723,-3.0798,-3.0849,-3.1259,-3.1455,-3.1579,-3.2398,-3.3164,-3.3581,-3.4327,-3.4905,-3.5457,-3.5489,-3.5489,-3.5489,-3.5489,-3.5587,-0.0119,-0.0298,-0.0297,-0.0532,-0.0766,-0.0766,-0.0936,-0.1212,-0.1301,-0.1965,-0.2982,-0.3147,-0.3784,-0.4713,-0.4647,-0.5227,-0.6153,-0.6122,-0.6804,-0.7936,-0.8017,-0.823,-0.8676,-0.8554,-0.8499,-0.8513,-0.8387,-0.835,-0.8404,-0.8353,-0.8374,-0.8448,-0.8252,-0.8101,-0.8164,-0.7993,-0.7936,-0.7986,-0.8212,-0.8329,-0.8428,-0.8956,-0.9223,-0.9312,-0.949,-1.007,-1.1165,-1.195,-1.2829,-1.3908,-1.4669,-1.5105,-1.5105,-1.535,-1.5493,-1.5473,-1.5477,-1.5464,-1.5371,-1.4917,-1.4623,-1.4616,-1.4416,-1.4653,-1.5507,-1.6627,-1.7775,-1.8714,-1.9797,-2.0409,-2.0447,-2.0887,-2.1055,-2.0684,-2.13,-2.1592,-2.1465,-2.1768,-2.2271,-2.2824,-2.3008,-2.3308,-2.3889,-2.4163,-2.468,-2.5819,-2.7058,-2.8211,-2.9209,-2.9495,-2.9546,-2.9792,-2.9934,-3.0011,-3.0037,-3.019,-3.033,-3.033,-3.0495,-3.0609,-3.0647,-3.0761,-3.0911,-3.1024,-3.1566,-3.2254,-3.2897,-3.3734,-3.4476,-3.5052,-3.5311,-3.5489,-3.5489,-3.5489,-3.5522,0.0,-0.0061,0.0,-0.0179,-0.0473,-0.0472,-0.0648,-0.0938,-0.1252,-0.1414,-0.1603,-0.1863,-0.2633,-0.3628,-0.3728,-0.4325,-0.542,-0.548,-0.6081,-0.7073,-0.7097,-0.76,-0.8538,-0.8557,-0.8554,-0.8652,-0.8526,-0.8584,-0.8801,-0.8584,-0.8469,-0.8482,-0.8452,-0.8292,-0.8052,-0.8004,-0.7907,-0.7634,-0.7714,-0.7913,-0.8151,-0.8405,-0.8703,-0.9064,-0.9276,-0.9982,-1.1049,-1.1317,-1.1804,-1.2732,-1.2969,-1.3017,-1.3113,-1.3902,-1.4442,-1.449,-1.5222,-1.5678,-1.5411,-1.5104,-1.4968,-1.4968,-1.4928,-1.4932,-1.5089,-1.5792,-1.6807,-1.7963,-1.9226,-1.9819,-1.9933,-2.0619,-2.0965,-2.0693,-2.1074,-2.1426,-2.1777,-2.2197,-2.2617,-2.3037,-2.3254,-2.3464,-2.3624,-2.3947,-2.4605,-2.5621,-2.6058,-2.6894,-2.8251,-2.8621,-2.891,-2.9507,-2.9779,-2.9805,-2.9819,-2.9998,-2.9961,-3.005,-3.0254,-3.0265,-3.0239,-3.029,-3.0457,-3.0423,-3.1101,-3.1644,-3.2297,-3.3255,-3.4153,-3.446,-3.493,-3.5489,-3.5489,-3.5489,-3.5522,0.0,0.0,0.0,-0.0063,-0.0187,-0.0185,-0.0306,-0.0605,-0.0777,-0.0886,-0.1051,-0.1225,-0.1724,-0.2522,-0.2521,-0.3191,-0.4303,-0.436,-0.4973,-0.6028,-0.6042,-0.6633,-0.767,-0.7603,-0.7952,-0.8639,-0.8554,-0.8594,-0.8747,-0.8679,-0.857,-0.8542,-0.8535,-0.8418,-0.8299,-0.8218,-0.8069,-0.7865,-0.7801,-0.7733,-0.7714,-0.8056,-0.8303,-0.8478,-0.8675,-0.9041,-0.9675,-1.0421,-1.1052,-1.1595,-1.229,-1.2684,-1.2684,-1.3119,-1.3366,-1.3414,-1.4334,-1.5156,-1.5611,-1.5384,-1.5224,-1.5224,-1.5102,-1.4897,-1.4716,-1.5142,-1.5662,-1.6259,-1.7639,-1.8797,-1.9277,-2.0003,-2.0467,-2.0663,-2.1406,-2.1963,-2.1885,-2.248,-2.2916,-2.3081,-2.3188,-2.3319,-2.3503,-2.3764,-2.4423,-2.5368,-2.561,-2.6171,-2.7395,-2.7678,-2.8051,-2.8791,-2.904,-2.9127,-2.9263,-2.9013,-2.9012,-2.8999,-2.9073,-2.9208,-2.9259,-2.9332,-2.9406,-2.9531,-2.9874,-3.0355,-3.0799,-3.1637,-3.2548,-3.3369,-3.4743,-3.5489,-3.5489,-3.5489,-3.5489,0.0,0.0,0.0,0.0,0.0,0.0,-0.0125,-0.0309,-0.0371,-0.0547,-0.0772,-0.0836,-0.112,-0.1491,-0.1645,-0.2196,-0.3024,-0.3079,-0.3748,-0.4804,-0.4914,-0.553,-0.6526,-0.6568,-0.7127,-0.8094,-0.8084,-0.8282,-0.8649,-0.8713,-0.8652,-0.856,-0.8543,-0.8503,-0.848,-0.8436,-0.8296,-0.8106,-0.795,-0.7767,-0.7617,-0.7805,-0.7965,-0.8022,-0.8214,-0.8398,-0.856,-0.9473,-1.0075,-1.0307,-1.1187,-1.1749,-1.1853,-1.2096,-1.2393,-1.278,-1.3709,-1.458,-1.535,-1.5371,-1.5398,-1.5378,-1.513,-1.4877,-1.4727,-1.4744,-1.4783,-1.4922,-1.6023,-1.7164,-1.8209,-1.9218,-1.9897,-2.0222,-2.1436,-2.2178,-2.1973,-2.2549,-2.2945,-2.3071,-2.3008,-2.3114,-2.341,-2.3567,-2.3907,-2.4755,-2.4925,-2.5292,-2.6284,-2.6648,-2.7058,-2.8148,-2.8342,-2.8514,-2.8961,-2.8812,-2.8386,-2.8273,-2.8508,-2.8417,-2.8315,-2.8473,-2.8594,-2.8901,-2.8707,-2.8872,-2.9693,-3.037,-3.117,-3.2592,-3.3842,-3.4676,-3.4759,-3.4988,-3.5264,0.0,0.0,0.0,0.0,0.0,0.0,0.0,-0.0062,-0.0371,-0.049,-0.0482,-0.0721,-0.09,-0.0959,-0.1225,-0.1539,-0.1856,-0.1967,-0.2524,-0.358,-0.3692,-0.4305,-0.5417,-0.5468,-0.6079,-0.7064,-0.707,-0.7507,-0.8551,-0.8656,-0.8706,-0.8696,-0.8679,-0.855,-0.8381,-0.8533,-0.8537,-0.8255,-0.8092,-0.7955,-0.794,-0.7627,-0.7619,-0.7798,-0.8015,-0.8188,-0.838,-0.8445,-0.871,-0.9072,-0.9268,-0.9437,-0.9833,-1.0721,-1.1628,-1.256,-1.359,-1.4232,-1.4381,-1.4912,-1.5279,-1.5305,-1.5117,-1.4995,-1.4901,-1.4693,-1.4553,-1.4546,-1.469,-1.5287,-1.6561,-1.8186,-1.9264,-1.9304,-2.078,-2.1702,-2.1904,-2.2295,-2.2695,-2.2935,-2.2779,-2.281,-2.3351,-2.3146,-2.3275,-2.3695,-2.3606,-2.3853,-2.4967,-2.5442,-2.6265,-2.744,-2.7917,-2.8106,-2.9348,-2.9001,-2.8712,-2.8586,-2.8234,-2.807,-2.8097,-2.8146,-2.8205,-2.8263,-2.816,-2.8326,-2.8779,-2.9495,-3.046,-3.1506,-3.2259,-3.2939,-3.3718,-3.4112,-3.4515,0.0,0.0,0.0,0.0,0.0,0.0,0.0,0.0,-0.0126,-0.0186,-0.0184,0.0,-0.0428,-0.0612,-0.0666,-0.089,-0.1218,-0.139,-0.1717,-0.2134,-0.2353,-0.3079,-0.4137,-0.4249,-0.4862,-0.5857,-0.5939,-0.6491,-0.7465,-0.7567,-0.7948,-0.8582,-0.8608,-0.855,-0.854,-0.8465,-0.837,-0.8265,-0.8119,-0.7944,-0.7906,-0.7733,-0.7705,-0.7648,-0.7504,-0.7521,-0.7767,-0.7908,-0.8169,-0.856,-0.871,-0.8977,-0.9275,-0.9659,-1.0315,-1.1244,-1.1713,-1.2233,-1.2927,-1.378,-1.424,-1.4273,-1.4753,-1.4863,-1.471,-1.4576,-1.4442,-1.4318,-1.4247,-1.4522,-1.5028,-1.6383,-1.776,-1.8905,-1.985,-2.0857,-2.1709,-2.2256,-2.2676,-2.2925,-2.2773,-2.2552,-2.2546,-2.2568,-2.2791,-2.3153,-2.3315,-2.3649,-2.4051,-2.437,-2.5073,-2.6584,-2.7152,-2.7655,-2.9318,-2.885,-2.836,-2.8222,-2.7984,-2.7744,-2.7632,-2.7431,-2.7425,-2.7574,-2.7559,-2.7668,-2.81,-2.8878,-2.9808,-3.0556,-3.128,-3.1968,-3.2742,-3.3374,-3.405,0.0,0.0,0.0,0.0,0.0,0.0,0.0,0.0,0.0,0.0,0.0,0.0,-0.0124,-0.0249,-0.0249,-0.0368,-0.0659,-0.1017,-0.1176,-0.1199,-0.1482,-0.2096,-0.2746,-0.2967,-0.3636,-0.4749,-0.525,-0.5771,-0.6317,-0.6335,-0.697,-0.805,-0.8009,-0.8229,-0.8494,-0.8455,-0.8381,-0.8275,-0.8167,-0.8062,-0.7967,-0.7913,-0.7814,-0.7665,-0.7419,-0.7353,-0.7422,-0.7504,-0.7727,-0.8094,-0.8397,-0.8706,-0.9041,-0.9096,-0.9372,-1.0051,-1.0463,-1.0874,-1.1645,-1.2502,-1.3138,-1.3401,-1.3907,-1.4226,-1.4309,-1.4382,-1.4275,-1.4135,-1.4088,-1.4088,-1.425,-1.4908,-1.6075,-1.77,-1.8682,-1.9674,-2.0986,-2.1428,-2.1942,-2.2464,-2.2461,-2.2285,-2.2295,-2.2305,-2.2536,-2.2913,-2.3116,-2.3272,-2.3497,-2.3711,-2.4166,-2.5599,-2.6088,-2.703,-2.8319,-2.8435,-2.8412,-2.8338,-2.8147,-2.772,-2.7469,-2.713,-2.6964,-2.6989,-2.7037,-2.7119,-2.7535,-2.833,-2.9119,-2.9877,-3.0489,-3.1143,-3.1974,-3.2825,-3.356,0.0,0.0,0.0,0.0,0.0,0.0,0.0,0.0,0.0,0.0,0.0,0.0,0.0,0.0,0.0,0.0,-0.0186,-0.0618,-0.0849,-0.0942,-0.1178,-0.1333,-0.1466,-0.1804,-0.2476,-0.359,-0.4695,-0.525,-0.5359,-0.5233,-0.5737,-0.6707,-0.691,-0.7292,-0.8255,-0.8361,-0.8467,-0.8319,-0.8289,-0.8238,-0.8252,-0.8113,-0.7984,-0.7858,-0.7804,-0.7665,-0.7417,-0.7255,-0.7379,-0.7769,-0.7965,-0.841,-0.8888,-0.9001,-0.9072,-0.9275,-1.0024,-1.0486,-1.0637,-1.1291,-1.212,-1.2671,-1.283,-1.3254,-1.3851,-1.405,-1.4122,-1.4095,-1.4088,-1.4088,-1.4088,-1.4208,-1.4734,-1.5684,-1.7284,-1.8518,-1.9447,-1.9884,-2.0451,-2.162,-2.1924,-2.2246,-2.2656,-2.2451,-2.2357,-2.2754,-2.2865,-2.2836,-2.3163,-2.3363,-2.3864,-2.4628,-2.5241,-2.616,-2.7186,-2.8128,-2.8429,-2.8584,-2.8375,-2.8109,-2.8047,-2.7821,-2.7645,-2.762,-2.7595,-2.7679,-2.7809,-2.8521,-2.8727,-2.9362,-2.9881,-3.0446,-3.1198,-3.2114,-3.3124,0.1346,0.1226,0.0395,0.0,0.0,0.0,0.0,0.0,0.0,0.0,0.0,0.0,0.0,0.0,0.0,0.0,0.0,-0.0192,-0.0374,-0.0604,-0.0909,-0.1017,-0.1107,-0.1334,-0.173,-0.2337,-0.2703,-0.3379,-0.4017,-0.4081,-0.4659,-0.5643,-0.5698,-0.6234,-0.7275,-0.7252,-0.7458,-0.8224,-0.8163,-0.816,-0.8306,-0.8221,-0.8214,-0.8245,-0.8079,-0.7916,-0.7821,-0.7489,-0.7465,-0.7734,-0.7721,-0.7871,-0.8226,-0.8409,-0.8495,-0.8543,-0.8901,-0.9214,-0.9339,-1.0,-1.0616,-1.1076,-1.1969,-1.2753,-1.3179,-1.3743,-1.4046,-1.4088,-1.4088,-1.4088,-1.4088,-1.4088,-1.4573,-1.5579,-1.62,-1.7152,-1.8568,-1.9668,-2.0623,-2.1281,-2.1699,-2.1885,-2.1912,-2.1914,-2.2422,-2.2652,-2.2832,-2.2964,-2.3096,-2.3188,-2.3604,-2.4392,-2.4798,-2.5199,-2.6232,-2.7105,-2.7502,-2.8105,-2.8293,-2.8562,-2.8574,-2.8524,-2.8373,-2.8298,-2.8273,-2.8333,-2.8455,-2.8626,-2.8897,-2.8988,-2.947,-2.9998,-3.0508,-3.144,-3.2549,0.2722,0.2621,0.1817,0.1181,0.0794,0.0728,0.0,0.0,0.0,0.0,0.0,0.0,0.0,0.0,0.0,0.0,0.0,0.0,-0.0064,-0.0312,-0.0559,-0.0735,-0.0773,-0.0997,-0.1225,-0.1446,-0.1588,-0.1973,-0.2727,-0.2929,-0.3525,-0.4517,-0.459,-0.5097,-0.6207,-0.656,-0.7035,-0.7606,-0.7924,-0.8147,-0.8187,-0.8241,-0.8313,-0.8367,-0.8269,-0.816,-0.8126,-0.7824,-0.766,-0.7636,-0.758,-0.7726,-0.7942,-0.8074,-0.8069,-0.8116,-0.8256,-0.8348,-0.8428,-0.8964,-0.9462,-0.9941,-1.0977,-1.202,-1.2577,-1.3349,-1.3652,-1.4046,-1.4088,-1.4088,-1.4088,-1.4088,-1.4454,-1.5019,-1.5179,-1.6076,-1.7805,-1.9339,-2.0587,-2.1257,-2.1738,-2.1836,-2.2048,-2.2087,-2.2607,-2.2734,-2.2925,-2.3101,-2.3101,-2.3101,-2.356,-2.3854,-2.3973,-2.4542,-2.541,-2.6036,-2.6502,-2.7325,-2.8138,-2.869,-2.91,-2.9088,-2.8988,-2.9013,-2.9001,-2.9038,-2.9176,-2.9213,-2.9362,-2.9356,-2.9387,-2.9999,-3.0695,-3.12,-3.2088,0.4027,0.3973,0.3902,0.3093,0.213,0.213,0.1476,0.0,0.0,0.0,0.0,0.0,0.0,0.0,0.0,0.0,0.0,0.0,0.0,0.0,-0.0256,-0.0437,-0.0487,-0.077,-0.0882,-0.1001,-0.1206,-0.1303,-0.148,-0.1813,-0.2358,-0.3312,-0.3483,-0.4001,-0.4996,-0.6162,-0.6437,-0.6591,-0.7404,-0.7788,-0.7811,-0.8045,-0.8234,-0.8306,-0.8381,-0.8425,-0.8394,-0.8177,-0.7902,-0.7631,-0.7632,-0.7791,-0.7951,-0.7964,-0.7916,-0.7923,-0.7938,-0.8001,-0.7986,-0.8286,-0.8669,-0.942,-0.9953,-1.0666,-1.2296,-1.285,-1.3372,-1.415,-1.4264,-1.4195,-1.4202,-1.4208,-1.4294,-1.4191,-1.4502,-1.5492,-1.7286,-1.8585,-1.9702,-2.1104,-2.1761,-2.2074,-2.2654,-2.2643,-2.276,-2.2935,-2.3071,-2.3091,-2.3101,-2.3101,-2.3101,-2.3222,-2.343,-2.3767,-2.4585,-2.4808,-2.5316,-2.6221,-2.7204,-2.8096,-2.9102,-2.9311,-2.9478,-2.9528,-2.9553,-2.9654,-2.9692,-2.9631,-2.9707,-2.9795,-3.0036,-3.0444,-3.0758,-3.1148,-3.1558,0.5471,0.5295,0.4413,0.3796,0.341,0.341,0.321,0.2749,0.1842,0.1456,0.1262,0.0444,0.0,0.0,0.0,0.0,0.0,0.0,0.0,0.0,-0.0065,-0.0194,-0.038,-0.0492,-0.0668,-0.0851,-0.0954,-0.1006,-0.1005,-0.1342,-0.1674,-0.1885,-0.2304,-0.2915,-0.3908,-0.4275,-0.4779,-0.5369,-0.5645,-0.6339,-0.6987,-0.7138,-0.7589,-0.8414,-0.8367,-0.8391,-0.8465,-0.8414,-0.8113,-0.7648,-0.761,-0.7629,-0.7733,-0.7816,-0.7862,-0.7908,-0.8057,-0.8203,-0.8153,-0.8241,-0.8475,-0.8938,-0.9535,-1.0668,-1.2013,-1.282,-1.3634,-1.4502,-1.478,-1.4774,-1.4774,-1.4774,-1.4774,-1.472,-1.4638,-1.4986,-1.6148,-1.6901,-1.797,-1.9558,-2.0622,-2.1487,-2.227,-2.2742,-2.2969,-2.313,-2.3149,-2.314,-2.3179,-2.3101,-2.3101,-2.3101,-2.3222,-2.3299,-2.3517,-2.3734,-2.4198,-2.5041,-2.5972,-2.693,-2.8152,-2.9149,-2.9447,-2.9741,-2.9679,-2.9741,-2.9754,-2.9756,-2.9921,-3.0049,-3.0113,-3.0267,-3.0457,-3.0745,-3.1204,0.6832,0.6678,0.6017,0.5398,0.4802,0.4737,0.4421,0.3851,0.3152,0.2455,0.1955,0.1207,0.0512,0.0,0.0,0.0,0.0,0.0,0.0,0.0,0.0,0.0,-0.0196,-0.0254,-0.0375,-0.0501,-0.0673,-0.0724,-0.0721,-0.1009,-0.1231,-0.1396,-0.1514,-0.2076,-0.2834,-0.3366,-0.3718,-0.4359,-0.475,-0.5565,-0.6616,-0.6621,-0.7309,-0.8213,-0.8353,-0.8388,-0.8459,-0.8531,-0.8303,-0.8014,-0.7865,-0.7784,-0.7773,-0.7749,-0.7788,-0.7782,-0.7922,-0.8013,-0.8013,-0.8106,-0.829,-0.8567,-0.9177,-1.0098,-1.1232,-1.225,-1.3263,-1.4228,-1.4865,-1.5204,-1.5304,-1.5324,-1.5324,-1.5336,-1.5145,-1.5353,-1.6174,-1.6927,-1.782,-1.9131,-2.0198,-2.1112,-2.2138,-2.2657,-2.3111,-2.3464,-2.35,-2.3496,-2.3437,-2.3237,-2.312,-2.3149,-2.314,-2.3218,-2.3232,-2.3396,-2.358,-2.4307,-2.501,-2.5933,-2.7098,-2.8502,-2.904,-2.9287,-2.9573,-2.9779,-2.974,-2.974,-2.983,-2.9946,-2.9972,-3.0037,-3.0228,-3.0419,-3.0848,0.8043,0.788,0.8005,0.7296,0.6168,0.6094,0.5554,0.4507,0.4242,0.3574,0.2702,0.2356,0.1661,0.0386,0.0,0.0,0.0,0.0,0.0,0.0,0.0,0.0,0.0,0.0,0.0,0.0,-0.0248,-0.0367,-0.0426,-0.0719,-0.1009,-0.1241,-0.1286,-0.1506,-0.2076,-0.2848,-0.325,-0.3383,-0.4004,-0.5042,-0.6052,-0.6317,-0.6955,-0.8235,-0.8381,-0.8419,-0.8469,-0.8523,-0.852,-0.8526,-0.8248,-0.8102,-0.8005,-0.7821,-0.774,-0.7801,-0.7832,-0.7863,-0.7767,-0.8014,-0.8112,-0.8427,-0.8699,-0.928,-1.0598,-1.1623,-1.2675,-1.4128,-1.4825,-1.5422,-1.5865,-1.5919,-1.5919,-1.5925,-1.5905,-1.6285,-1.6915,-1.7574,-1.8306,-1.9359,-2.0108,-2.1024,-2.1895,-2.251,-2.2944,-2.3303,-2.3491,-2.3515,-2.3628,-2.3666,-2.3471,-2.333,-2.3247,-2.3179,-2.3184,-2.3135,-2.3319,-2.3701,-2.4317,-2.5105,-2.6069,-2.7221,-2.8051,-2.8581,-2.9079,-2.9456,-2.9689,-2.9702,-2.9702,-2.983,-2.9856,-2.9934,-3.0049,-3.0152,-3.047,0.8045,0.7883,0.8065,0.7857,0.7513,0.7441,0.7255,0.6888,0.5863,0.5262,0.4828,0.3974,0.3318,0.291,0.1963,0.1592,0.1413,0.0,0.0,0.0,0.0,0.0,0.0,0.0,0.0,0.0,0.0,0.0,0.0,-0.0435,-0.0737,-0.1023,-0.1264,-0.1561,-0.188,-0.2059,-0.2239,-0.2259,-0.2488,-0.3675,-0.5178,-0.5476,-0.6315,-0.7995,-0.8335,-0.8442,-0.8526,-0.8716,-0.8832,-0.8767,-0.856,-0.8367,-0.835,-0.8286,-0.8221,-0.8211,-0.8238,-0.8258,-0.8269,-0.8323,-0.848,-0.8664,-0.8935,-0.9717,-1.0969,-1.1463,-1.2704,-1.4202,-1.4972,-1.5406,-1.6246,-1.647,-1.6513,-1.6547,-1.6687,-1.6888,-1.7064,-1.6917,-1.7385,-1.8126,-1.8944,-1.9739,-2.0724,-2.1304,-2.1956,-2.2849,-2.328,-2.3438,-2.3741,-2.404,-2.3906,-2.3662,-2.3516,-2.3447,-2.3266,-2.3188,-2.3232,-2.3319,-2.3777,-2.4155,-2.5115,-2.6152,-2.7058,-2.7919,-2.8712,-2.9,-2.9145,-2.9392,-2.9353,-2.956,-2.9779,-2.9856,-2.9934,-2.9998,-3.0113,0.8043,0.7886,0.8065,0.8045,0.7941,0.7933,0.7933,0.7811,0.7194,0.646,0.5845,0.5105,0.4512,0.3922,0.3239,0.288,0.2586,0.1527,0.0,0.0,0.0,0.0,0.0,0.0,0.0,0.0,0.0,0.0,0.0,0.0,-0.0375,-0.0678,-0.0921,-0.1089,-0.1371,-0.1433,-0.1541,-0.1647,-0.1682,-0.2581,-0.4161,-0.4377,-0.5363,-0.7084,-0.7602,-0.7773,-0.8443,-0.8547,-0.8689,-0.875,-0.8679,-0.8587,-0.855,-0.8459,-0.8391,-0.8384,-0.8384,-0.8336,-0.8303,-0.8336,-0.8433,-0.8651,-0.8794,-0.929,-1.0175,-1.0824,-1.1867,-1.312,-1.3986,-1.4871,-1.615,-1.696,-1.7056,-1.7134,-1.7248,-1.7393,-1.7347,-1.7119,-1.7039,-1.7665,-1.8224,-1.9041,-1.9772,-2.0317,-2.1507,-2.262,-2.2949,-2.3209,-2.4096,-2.4336,-2.4251,-2.4072,-2.3857,-2.3682,-2.3496,-2.333,-2.3154,-2.3232,-2.3353,-2.3517,-2.3897,-2.502,-2.6141,-2.6842,-2.7464,-2.8159,-2.8359,-2.8636,-2.9133,-2.956,-2.9779,-2.9779,-2.9818,-2.9895,-2.9998,0.8029,0.7941,0.8045,0.8029,0.788,0.7933,0.7933,0.7933,0.7933,0.7194,0.6396,0.6213,0.5663,0.4739,0.431,0.4185,0.3585,0.2866,0.1705,0.0,0.0,0.0,0.0,0.0,0.0,0.0,0.0,0.0,0.0,0.0,0.0,-0.0441,-0.0494,-0.0732,-0.0907,-0.0957,-0.1133,-0.1311,-0.1362,-0.2004,-0.3345,-0.3545,-0.4602,-0.6032,-0.64,-0.676,-0.7501,-0.7886,-0.8163,-0.8447,-0.8615,-0.8713,-0.8648,-0.8506,-0.8316,-0.8323,-0.8336,-0.8306,-0.8255,-0.8265,-0.8378,-0.8407,-0.8474,-0.8628,-0.9172,-0.9994,-1.0932,-1.1836,-1.2848,-1.4173,-1.5482,-1.6388,-1.7023,-1.7259,-1.7397,-1.7582,-1.7589,-1.7589,-1.7541,-1.7593,-1.7922,-1.8581,-1.9037,-1.9573,-2.1036,-2.2231,-2.2455,-2.3005,-2.3858,-2.4412,-2.422,-2.4394,-2.4256,-2.39,-2.3701,-2.3545,-2.335,-2.3174,-2.3164,-2.3144,-2.3178,-2.3897,-2.4935,-2.5389,-2.6005,-2.683,-2.7654,-2.8068,-2.8648,-2.9404,-2.974,-2.9689,-2.9702,-2.9779,-2.9895,0.82,0.7933,0.7894,0.7888,0.7933,0.7933,0.7933,0.7933,0.7933,0.7808,0.7564,0.7503,0.7319,0.6886,0.5965,0.5044,0.4189,0.365,0.2916,0.1811,0.1511,0.1084,0.0,0.0,0.0,0.0,0.0,0.0,0.0,0.0,0.0,-0.0444,-0.0439,-0.0622,-0.0801,-0.0981,-0.0915,-0.1034,-0.1027,-0.1681,-0.2506,-0.2996,-0.3719,-0.5157,-0.5274,-0.5511,-0.591,-0.6738,-0.7306,-0.7442,-0.8227,-0.8561,-0.8481,-0.8424,-0.8441,-0.8438,-0.8404,-0.836,-0.8326,-0.8387,-0.8477,-0.8515,-0.8605,-0.8718,-0.8943,-0.939,-1.0126,-1.1156,-1.225,-1.3495,-1.414,-1.5222,-1.5866,-1.6246,-1.6909,-1.7457,-1.747,-1.7582,-1.7589,-1.7635,-1.7852,-1.8062,-1.8415,-1.8819,-1.9738,-2.0649,-2.1038,-2.1945,-2.3077,-2.359,-2.3721,-2.4162,-2.464,-2.4239,-2.3871,-2.376,-2.3584,-2.3301,-2.3213,-2.3144,-2.3135,-2.3144,-2.3647,-2.4349,-2.5147,-2.6058,-2.6801,-2.729,-2.8039,-2.8661,-2.9106,-2.9482,-2.9482,-2.9495,-2.9779,0.8427,0.8183,0.8183,0.8058,0.7933,0.7933,0.7933,0.7933,0.7933,0.7933,0.7933,0.7933,0.7933,0.7747,0.7317,0.6211,0.5228,0.4921,0.4185,0.3147,0.2298,0.1758,0.0893,0.0453,0.0,0.0,0.0,0.0,0.0,0.0,0.0,-0.0194,-0.0255,-0.0314,-0.0437,-0.0433,-0.0618,-0.0678,-0.0736,-0.1037,-0.1766,-0.204,-0.2693,-0.3531,-0.4016,-0.4296,-0.4963,-0.5424,-0.5959,-0.6153,-0.6565,-0.6758,-0.7024,-0.749,-0.7962,-0.8223,-0.8384,-0.8336,-0.8296,-0.8309,-0.8326,-0.8252,-0.8412,-0.8405,-0.8531,-0.8867,-0.9379,-1.0223,-1.1277,-1.2189,-1.2462,-1.361,-1.4301,-1.4797,-1.5779,-1.6478,-1.6837,-1.7246,-1.747,-1.7582,-1.7694,-1.7799,-1.7799,-1.8206,-1.8617,-1.9072,-1.9576,-2.07,-2.208,-2.2432,-2.2722,-2.3623,-2.4111,-2.4174,-2.3815,-2.3611,-2.3654,-2.3417,-2.3188,-2.312,-2.3101,-2.3144,-2.3222,-2.3594,-2.4478,-2.5189,-2.5557,-2.5953,-2.6912,-2.7879,-2.8279,-2.8648,-2.8988,-2.9236,-2.9404,0.8793,0.8491,0.8494,0.8305,0.8058,0.7994,0.7933,0.7933,0.7933,0.7933,0.7933,0.7933,0.7933,0.7872,0.7747,0.7255,0.6335,0.6276,0.5536,0.4369,0.3513,0.2796,0.208,0.1404,0.0,0.0,0.0,0.0268,0.0,0.0,0.0,0.0,0.0,0.0,0.0,0.0,0.0,-0.0309,-0.0432,-0.0556,-0.08,-0.0912,-0.1253,-0.2205,-0.2453,-0.2977,-0.3599,-0.4223,-0.4537,-0.4715,-0.4978,-0.5178,-0.5285,-0.5971,-0.6844,-0.7525,-0.8004,-0.8177,-0.8174,-0.8197,-0.8231,-0.8059,-0.8005,-0.7995,-0.8072,-0.8379,-0.8772,-0.9301,-0.9923,-1.06,-1.0896,-1.1933,-1.2693,-1.3263,-1.4292,-1.5397,-1.5982,-1.6558,-1.7199,-1.7364,-1.7529,-1.7641,-1.7641,-1.7687,-1.8146,-1.8251,-1.8767,-1.9376,-2.0605,-2.0955,-2.1466,-2.2689,-2.3412,-2.379,-2.3664,-2.3362,-2.3419,-2.3467,-2.3271,-2.311,-2.3101,-2.3101,-2.3222,-2.3309,-2.3353,-2.4016,-2.4296,-2.4872,-2.5922,-2.6801,-2.7319,-2.7735,-2.7999,-2.8383,-2.8712,0.9095,0.8857,0.8854,0.8671,0.8375,0.8372,0.8183,0.7933,0.7933,0.7933,0.7947,0.7933,0.7933,0.7933,0.7933,0.7808,0.7625,0.738,0.6827,0.572,0.5232,0.4462,0.3767,0.3591,0.2505,0.1898,0.178,0.1064,0.0,0.0,0.0,0.0,0.0,0.0,0.0,0.0,0.0,0.0,0.0,-0.0247,-0.0493,-0.0487,-0.0783,-0.1014,-0.1238,-0.1391,-0.1826,-0.2544,-0.3103,-0.34,-0.4181,-0.4749,-0.5058,-0.5046,-0.5169,-0.5877,-0.7017,-0.8397,-0.8176,-0.8067,-0.8197,-0.8026,-0.8019,-0.7995,-0.8052,-0.8058,-0.8303,-0.8475,-0.8753,-0.9028,-0.9532,-1.0408,-1.1102,-1.1855,-1.277,-1.4052,-1.4982,-1.5902,-1.6546,-1.7101,-1.7252,-1.7509,-1.7641,-1.7635,-1.7681,-1.774,-1.8003,-1.8617,-1.9228,-1.9731,-2.0238,-2.1466,-2.2906,-2.338,-2.3684,-2.3381,-2.3381,-2.3518,-2.3341,-2.3135,-2.3101,-2.3101,-2.3101,-2.3135,-2.3101,-2.3299,-2.3963,-2.4638,-2.5231,-2.5683,-2.6202,-2.6584,-2.6935,-2.7395,-2.7931,0.9565,0.9377,0.9219,0.9023,0.8773,0.8707,0.861,0.8424,0.8241,0.822,0.8195,0.7958,0.7933,0.7933,0.7933,0.7872,0.7933,0.7933,0.7625,0.6888,0.6278,0.5621,0.4972,0.4264,0.3444,0.3365,0.3147,0.3118,0.2274,0.1478,0.0938,0.0266,0.0723,0.0,0.0383,0.0,0.0,0.0,0.0,0.0,-0.0185,0.0,0.0,-0.0362,-0.0539,-0.0592,-0.0819,-0.1223,-0.1684,-0.1896,-0.2437,-0.2584,-0.2853,-0.3209,-0.372,-0.4047,-0.546,-0.6631,-0.7223,-0.7351,-0.761,-0.8132,-0.816,-0.8136,-0.8022,-0.7995,-0.8045,-0.8144,-0.8191,-0.8279,-0.8524,-0.908,-0.9466,-1.0189,-1.1315,-1.2145,-1.3451,-1.501,-1.5884,-1.643,-1.699,-1.716,-1.7424,-1.7582,-1.7575,-1.7635,-1.7687,-1.7996,-1.861,-1.922,-1.9679,-2.0238,-2.1744,-2.3088,-2.3434,-2.351,-2.3504,-2.3594,-2.3367,-2.3175,-2.3115,-2.3101,-2.3101,-2.3101,-2.3101,-2.343,-2.3887,-2.4016,-2.4188,-2.4595,-2.5094,-2.5431,-2.585,-2.6565,-2.718,1.0036,0.9975,0.9669,0.9448,0.9281,0.915,0.9054,0.8955,0.8676,0.8594,0.857,0.8368,0.8177,0.8058,0.8058,0.7994,0.7933,0.7933,0.7933,0.7503,0.7011,0.6521,0.6175,0.5423,0.4915,0.4544,0.4513,0.4258,0.385,0.3471,0.2606,0.1142,0.2247,0.2159,0.1359,0.0,0.0,0.0,0.0,0.0,0.0,0.0,0.0,0.0,-0.0182,0.0,-0.0357,-0.0533,-0.0711,-0.0879,-0.093,-0.1154,-0.1324,-0.1941,-0.2325,-0.2607,-0.3508,-0.4374,-0.5263,-0.595,-0.673,-0.7352,-0.7978,-0.7798,-0.8136,-0.8049,-0.8012,-0.8048,-0.8038,-0.8038,-0.8041,-0.8297,-0.8585,-0.9119,-0.98,-1.0379,-1.1263,-1.3102,-1.4551,-1.52,-1.5804,-1.6791,-1.7041,-1.7417,-1.7529,-1.7582,-1.7589,-1.7589,-1.8048,-1.8655,-1.8812,-1.9176,-1.9826,-2.1229,-2.1845,-2.2429,-2.2856,-2.327,-2.3055,-2.286,-2.2501,-2.2784,-2.3013,-2.3057,-2.3003,-2.3222,-2.3507,-2.3309,-2.3135,-2.3724,-2.4221,-2.4392,-2.4808,-2.561,-2.6224,1.0466,1.0463,1.0314,1.0059,0.9735,0.9597,0.9425,0.9305,0.914,0.9125,0.9143,0.9017,0.8692,0.843,0.8366,0.818,0.7933,0.7933,0.7933,0.7872,0.7747,0.7564,0.7329,0.7106,0.6779,0.5984,0.5845,0.522,0.4782,0.5611,0.4914,0.4278,0.4109,0.4081,0.3381,0.2361,0.1506,0.0,0.0,0.0,0.0,0.0,0.0,0.0,0.0,0.0,0.0,0.0,-0.024,-0.0415,-0.0472,-0.0529,-0.0764,-0.0993,-0.1222,-0.1454,-0.1513,-0.237,-0.3201,-0.446,-0.515,-0.5505,-0.616,-0.7203,-0.7882,-0.8176,-0.815,-0.8006,-0.8056,-0.8005,-0.7998,-0.8065,-0.8295,-0.8559,-0.9127,-0.9574,-1.0407,-1.1447,-1.2839,-1.371,-1.4584,-1.5476,-1.6227,-1.6446,-1.7364,-1.7477,-1.7589,-1.7589,-1.7589,-1.8048,-1.7943,-1.8048,-1.8042,-1.8797,-1.9494,-2.0237,-2.1312,-2.1726,-2.1658,-2.155,-2.1392,-2.1891,-2.2511,-2.274,-2.2643,-2.2872,-2.3101,-2.3057,-2.3057,-2.3135,-2.3387,-2.3724,-2.4102,-2.4766,-2.5179,1.1171,1.0626,1.0571,1.0429,1.0199,1.0066,0.9972,0.9878,0.964,0.9381,0.9212,0.9218,0.9017,0.8821,0.8674,0.8488,0.8244,0.8183,0.8119,0.7933,0.7872,0.7933,0.7933,0.7888,0.7562,0.7271,0.7176,0.7173,0.6928,0.7175,0.7301,0.6745,0.596,0.4959,0.431,0.3845,0.3023,0.2372,0.1673,0.1234,0.1049,0.0,0.0,0.0,0.0,0.0,0.0,0.0,0.0,0.0,0.0,0.0,0.0,0.0,-0.0473,-0.0591,-0.0591,-0.0945,-0.165,-0.3058,-0.4197,-0.5087,-0.5616,-0.6232,-0.7248,-0.7413,-0.7784,-0.7936,-0.8126,-0.7978,-0.8008,-0.8076,-0.8299,-0.8402,-0.8647,-0.9039,-0.9655,-1.0621,-1.1251,-1.2143,-1.3166,-1.4116,-1.4776,-1.5364,-1.6446,-1.7371,-1.7529,-1.7589,-1.7589,-1.7589,-1.7589,-1.774,-1.7838,-1.8094,-1.885,-1.9492,-2.0046,-2.0157,-2.0294,-2.0314,-2.0332,-2.106,-2.1596,-2.1917,-2.2378,-2.2652,-2.2838,-2.2925,-2.2969,-2.3091,-2.3135,-2.3266,-2.3647,-2.4102,-2.4382,1.2503,1.1888,1.1487,1.0986,1.061,1.0849,1.0749,1.0463,1.0607,1.0122,0.9494,0.9574,0.9347,0.912,0.9034,0.8854,0.8613,0.8491,0.8302,0.818,0.8058,0.8058,0.8058,0.8066,0.8158,0.8299,0.8321,0.825,0.8179,0.8394,0.8248,0.7909,0.7515,0.645,0.5937,0.5041,0.4573,0.3898,0.3309,0.2596,0.2407,0.0,0.0,0.0,0.0,0.0,0.0,0.0,0.0,0.0,0.0,0.0,0.0,0.0,0.0,0.0,0.0,0.0,0.0,-0.177,-0.3101,-0.4029,-0.4427,-0.5189,-0.592,-0.6284,-0.6575,-0.706,-0.7445,-0.7762,-0.7677,-0.7968,-0.8332,-0.8548,-0.8486,-0.8811,-0.9101,-0.9777,-1.0107,-1.0646,-1.1733,-1.2837,-1.3318,-1.4073,-1.5689,-1.6823,-1.7529,-1.7589,-1.7589,-1.7589,-1.7589,-1.7793,-1.7989,-1.8304,-1.8708,-1.8845,-1.8891,-1.8624,-1.8806,-1.913,-1.9384,-2.0087,-2.0863,-2.1409,-2.1872,-2.2388,-2.2662,-2.275,-2.2916,-2.3091,-2.3091,-2.3144,-2.3222,-2.3637,-2.381,1.4454,1.4432,1.3261,1.2025,1.1142,1.2037,1.1854,1.1224,1.19,1.1622,1.0429,1.0318,0.9869,0.9413,0.9355,0.9156,0.8915,0.8857,0.8671,0.843,0.8366,0.8369,0.8366,0.8433,0.8503,0.8799,0.8769,0.8776,0.8872,0.8677,0.8603,0.8542,0.8224,0.7979,0.8209,0.7006,0.5628,0.4427,0.4286,0.3988,0.365,0.2653,0.2034,0.1726,0.1172,0.0,0.0,0.0,0.0,0.0,0.0,0.0,0.0,0.0,0.0,0.0,0.0,0.0,0.0,0.0,-0.1657,-0.2655,-0.3129,-0.3751,-0.4559,-0.4967,-0.5304,-0.5889,-0.6248,-0.6664,-0.7085,-0.7682,-0.8123,-0.8378,-0.8318,-0.8688,-0.8986,-0.9132,-0.9475,-0.9703,-1.0645,-1.1592,-1.2028,-1.2832,-1.4722,-1.6068,-1.7206,-1.7477,-1.7265,-1.7424,-1.7371,-1.7424,-1.7621,-1.7786,-1.7943,-1.7786,-1.7701,-1.7404,-1.7429,-1.7841,-1.8354,-1.9036,-1.9815,-2.0629,-2.1051,-2.1248,-2.198,-2.2608,-2.2422,-2.2271,-2.296,-2.3091,-2.3135,-2.3178,-2.343,1.5351,1.4541,1.4298,1.3927,1.346,1.2886,1.2955,1.3333,1.298,1.2409,1.1697,1.0878,1.0141,0.9798,0.9632,0.9473,0.9223,0.9156,0.8976,0.8741,0.8744,0.8732,0.8735,0.8747,0.8806,0.8857,0.8922,0.901,0.8922,0.8892,0.8884,0.8815,0.8666,0.8511,0.8356,0.783,0.7372,0.685,0.6117,0.539,0.5174,0.4084,0.3263,0.3264,0.2709,0.2033,0.1418,0.1357,0.1048,0.0432,0.0,0.0,0.0,0.0,0.0,0.0,0.0,0.0,0.0,-0.0305,-0.0669,-0.1335,-0.1816,-0.2413,-0.3366,-0.3747,-0.4191,-0.4704,-0.519,-0.554,-0.5718,-0.6717,-0.7311,-0.7612,-0.7852,-0.8587,-0.8927,-0.8982,-0.9099,-0.9161,-0.9695,-1.0511,-1.1105,-1.1269,-1.2832,-1.4073,-1.499,-1.5755,-1.5755,-1.6564,-1.6889,-1.6889,-1.7047,-1.716,-1.7219,-1.7378,-1.7289,-1.7069,-1.6848,-1.6855,-1.739,-1.8048,-1.8373,-1.8918,-1.9513,-2.0104,-2.0647,-2.115,-2.123,-2.1364,-2.2183,-2.2872,-2.3057,-2.3091,-2.3178,1.6868,1.612,1.5754,1.5949,1.6078,1.4838,1.4838,1.5303,1.4168,1.347,1.3024,1.1756,1.0974,1.0685,1.0194,0.9866,0.9549,0.9598,0.9487,0.923,0.9186,0.9189,0.918,0.9167,0.9251,0.9238,0.9347,0.9448,0.9473,0.934,0.9165,0.9057,0.8973,0.8843,0.8643,0.8369,0.8143,0.7747,0.7126,0.6788,0.6378,0.5526,0.4614,0.4429,0.406,0.3447,0.2895,0.2525,0.228,0.148,0.0987,0.074,0.0617,0.0,0.0,0.0,0.0,0.0,0.0,0.0,0.0,-0.0615,-0.0741,-0.1234,-0.1971,-0.2253,-0.2681,-0.3262,-0.4006,-0.4244,-0.4475,-0.5547,-0.6196,-0.6551,-0.7237,-0.7968,-0.8257,-0.8254,-0.8754,-0.8768,-0.8978,-0.9688,-1.0104,-1.0241,-1.0836,-1.181,-1.2729,-1.347,-1.4223,-1.5108,-1.5861,-1.5974,-1.6193,-1.6405,-1.6789,-1.7226,-1.7067,-1.6737,-1.6607,-1.643,-1.6553,-1.7171,-1.7185,-1.7426,-1.8473,-1.9239,-1.9276,-1.9542,-2.0042,-2.0719,-2.1587,-2.2227,-2.2872,-2.3013,-2.3057,1.8837,1.885,1.7625,1.7829,1.8682,1.7437,1.698,1.691,1.5554,1.4923,1.4678,1.3257,1.2503,1.2017,1.1021,1.0423,1.0149,1.0251,1.0019,0.9816,0.9662,0.964,0.9627,0.9623,0.9686,0.9916,1.0022,0.9989,1.0196,0.9912,0.9538,0.9337,0.9416,0.9264,0.8955,0.8652,0.8447,0.835,0.8265,0.798,0.7606,0.6779,0.6175,0.5853,0.5228,0.4551,0.4122,0.3937,0.3753,0.3263,0.2648,0.2218,0.1665,0.0802,0.0,0.0,0.0,0.0,0.0,0.0,0.0,0.0,-0.0371,-0.0494,-0.074,-0.1106,-0.1509,-0.1777,-0.2327,-0.2685,-0.3148,-0.4024,-0.4893,-0.5567,-0.6292,-0.6755,-0.7093,-0.754,-0.8263,-0.8537,-0.8793,-0.9154,-0.9207,-0.9272,-0.962,-0.9923,-1.0812,-1.1357,-1.2238,-1.3362,-1.4121,-1.4685,-1.5007,-1.5547,-1.6033,-1.6452,-1.6697,-1.6296,-1.6543,-1.6441,-1.6443,-1.6393,-1.6629,-1.7091,-1.7971,-1.8373,-1.8087,-1.8534,-1.9306,-1.9988,-2.0359,-2.1596,-2.2201,-2.2784,-2.2916,1.8897,1.8755,1.8599,1.8746,1.9008,1.8682,1.8483,1.8279,1.6985,1.6342,1.6229,1.4766,1.4089,1.3784,1.2502,1.1878,1.1366,1.0812,1.039,1.0189,1.0369,1.0222,1.0212,1.0338,1.0279,1.0292,1.0393,1.0445,1.0293,1.0163,1.0159,1.0005,0.9832,0.9605,0.9431,0.9127,0.9048,0.8942,0.8948,0.8828,0.8666,0.7954,0.7645,0.7291,0.6891,0.6151,0.5596,0.5412,0.5044,0.406,0.3692,0.3324,0.3263,0.2894,0.0,0.0,0.0,0.0,0.0,0.0,0.0,0.0,0.0,0.0,-0.0247,-0.0431,-0.0608,-0.0895,-0.1059,-0.156,-0.198,-0.2689,-0.3296,-0.3911,-0.4747,-0.5472,-0.5808,-0.6366,-0.7091,-0.7692,-0.795,-0.8403,-0.8466,-0.8716,-0.9005,-0.8831,-0.9044,-0.9644,-1.0326,-1.1465,-1.2393,-1.3046,-1.3485,-1.3928,-1.4773,-1.5269,-1.5673,-1.5909,-1.6161,-1.6239,-1.5983,-1.592,-1.6157,-1.6527,-1.7037,-1.6943,-1.6608,-1.725,-1.7979,-1.8133,-1.8549,-2.0195,-2.1526,-2.1926,-2.2467,1.8982,1.8867,1.9006,1.9136,1.9136,1.9136,1.9136,1.8926,1.8221,1.7842,1.7667,1.6259,1.5567,1.5277,1.4093,1.3352,1.3151,1.2106,1.1698,1.2262,1.1404,1.1828,1.182,1.1884,1.1757,1.152,1.1123,1.1135,1.0697,1.0439,1.0446,1.0307,1.0202,1.0055,0.9888,0.9829,0.979,0.9643,0.9489,0.9358,0.9158,0.8917,0.875,0.8629,0.8401,0.7752,0.7133,0.695,0.6335,0.5535,0.5351,0.4676,0.449,0.4183,0.3753,0.2648,0.0,0.0,0.0,0.0,0.0,0.0,0.0,0.0,0.0,-0.0185,-0.0242,-0.0356,-0.0471,-0.0641,-0.0969,-0.1288,-0.1679,-0.2015,-0.3075,-0.4132,-0.458,-0.5025,-0.5688,-0.6405,-0.7007,-0.7618,-0.7968,-0.8256,-0.8486,-0.8572,-0.8642,-0.8853,-0.9248,-0.9777,-1.0722,-1.1473,-1.1817,-1.2202,-1.3138,-1.4175,-1.47,-1.5216,-1.5744,-1.5741,-1.546,-1.5452,-1.5689,-1.5737,-1.5825,-1.5825,-1.5961,-1.6015,-1.6473,-1.6763,-1.7365,-1.8696,-1.9968,-2.0548,-2.1186,1.9072,1.9066,1.9136,1.9136,1.9136,1.9136,1.9136,1.9136,1.8996,1.9072,1.8746,1.7723,1.7064,1.6764,1.5648,1.4986,1.4493,1.3583,1.337,1.4763,1.335,1.3212,1.3915,1.4551,1.3529,1.3013,1.2678,1.2319,1.1208,1.0788,1.0585,1.0521,1.0616,1.0476,1.0304,1.0404,1.0339,1.0121,0.9864,0.9616,0.9521,0.9329,0.9112,0.9078,0.8937,0.8732,0.8671,0.8549,0.843,0.7875,0.7197,0.6274,0.5782,0.4981,0.4366,0.3875,0.3569,0.2955,0.2341,0.2157,0.1541,0.0987,0.0,0.0,0.0,0.0062,-0.0061,0.0,0.0,0.0,-0.0567,-0.0674,-0.0896,-0.1176,-0.1903,-0.2517,-0.2851,-0.3572,-0.4677,-0.5382,-0.5991,-0.6555,-0.6812,-0.7058,-0.7671,-0.8043,-0.8401,-0.8391,-0.8463,-0.8699,-0.922,-1.002,-1.029,-1.084,-1.2082,-1.306,-1.3773,-1.4404,-1.4856,-1.4998,-1.4551,-1.479,-1.5226,-1.5315,-1.5458,-1.5547,-1.5642,-1.5689,-1.5872,-1.6433,-1.6998,-1.7505,-1.828,-1.8956,-1.9815,1.9136,1.9136,1.9136,1.9136,1.9136,1.9136,1.9136,1.9136,1.9136,1.9136,1.9008,1.8752,1.8536,1.8145,1.7071,1.6469,1.6152,1.5111,1.4702,1.4968,1.4493,1.4655,1.4947,1.5306,1.4808,1.4516,1.4171,1.3538,1.2491,1.1501,1.0777,1.0732,1.0846,1.0802,1.0661,1.0788,1.0612,1.0456,1.0295,1.0119,1.0024,0.9777,0.9608,0.943,0.9248,0.8986,0.8915,0.8854,0.8793,0.8549,0.8424,0.8058,0.7814,0.6517,0.578,0.5352,0.4674,0.4122,0.3632,0.3448,0.3078,0.2648,0.2094,0.1726,0.1234,0.0494,0.0,0.0,0.0,0.0,0.0,0.0,0.0,0.0,-0.0784,-0.1009,-0.1232,-0.2344,-0.3614,-0.4252,-0.4928,-0.5285,-0.556,-0.6054,-0.6713,-0.7283,-0.785,-0.8039,-0.7917,-0.8055,-0.8178,-0.8788,-0.8933,-0.9574,-1.0884,-1.1731,-1.2365,-1.272,-1.3005,-1.3259,-1.3497,-1.3871,-1.425,-1.4885,-1.5226,-1.4921,-1.4867,-1.535,-1.5676,-1.5906,-1.6197,-1.652,-1.6622,-1.7163,-1.8118,1.8969,1.913,1.9136,1.9136,1.9136,1.9136,1.9136,1.9136,1.9136,1.9136,1.9136,1.9136,1.9136,1.9136,1.8221,1.7829,1.7571,1.6462,1.6597,1.6597,1.6078,1.6392,1.6467,1.6532,1.6252,1.6009,1.5103,1.432,1.36,1.3272,1.2684,1.2359,1.2088,1.1596,1.1439,1.1128,1.0736,1.0599,1.0688,1.0637,1.0465,1.0163,0.9946,0.9682,0.9497,0.9297,0.9217,0.9217,0.9095,0.9037,0.8854,0.8732,0.8424,0.7869,0.7378,0.7011,0.6396,0.5596,0.5044,0.4798,0.4613,0.406,0.3507,0.2894,0.2826,0.2085,0.0967,0.0,0.0,0.0,0.0,0.0,0.0,0.0,0.0,-0.0729,-0.0953,-0.1567,-0.2121,-0.2338,-0.3086,-0.3808,-0.4216,-0.4862,-0.5444,-0.5817,-0.6519,-0.674,-0.6832,-0.7384,-0.7525,-0.7801,-0.8098,-0.8791,-1.0088,-1.061,-1.0797,-1.107,-1.1368,-1.1821,-1.2306,-1.2786,-1.3323,-1.3613,-1.3709,-1.3463,-1.3601,-1.4232,-1.4615,-1.4752,-1.5003,-1.535,-1.5493,-1.573,-1.6655,1.8845,1.9018,1.906,1.9136,1.9136,1.9136,1.9136,1.9136,1.9136,1.9136,1.9136,1.9136,1.9136,1.9136,1.9136,1.9136,1.8746,1.77,1.8092,1.8221,1.7636,1.777,1.8226,1.8746,1.8028,1.705,1.6078,1.5554,1.5163,1.4577,1.4254,1.4516,1.3927,1.307,1.2614,1.1867,1.1165,1.1432,1.1453,1.1031,1.076,1.0445,1.0178,0.9974,0.9852,0.9832,0.9697,0.9576,0.9393,0.9275,0.9217,0.9095,0.8976,0.8726,0.8549,0.818,0.7994,0.7255,0.6705,0.6396,0.578,0.5044,0.4488,0.4177,0.4167,0.3397,0.2331,0.0,0.0,0.0,0.0,0.0,0.0,0.0,0.0,0.0,-0.0673,-0.0897,-0.0953,-0.0952,-0.1609,-0.2411,-0.2909,-0.3585,-0.409,-0.4465,-0.4746,-0.4899,-0.5267,-0.6284,-0.6932,-0.7316,-0.7763,-0.8579,-0.9353,-0.9547,-0.9598,-0.978,-1.0074,-1.0569,-1.1121,-1.1755,-1.2052,-1.1907,-1.1901,-1.2096,-1.2339,-1.2872,-1.3156,-1.359,-1.4573,-1.5124,-1.5309,-1.5547,-1.5642,1.8697,1.8776,1.8982,1.913,1.913,1.9136,1.9136,1.9136,1.9136,1.9136,1.9136,1.9136,1.9136,1.9136,1.9136,1.9136,1.9008,1.8547,1.8682,1.8874,1.8612,1.881,1.9008,1.9072,1.8944,1.8162,1.7243,1.6721,1.6527,1.5619,1.4973,1.5103,1.4898,1.4428,1.4214,1.3297,1.2524,1.2664,1.2486,1.2099,1.222,1.16,1.0218,0.993,0.9842,0.9846,0.9758,0.9758,0.9697,0.9697,0.9636,0.9457,0.9335,0.9217,0.9037,0.8854,0.8793,0.8546,0.793,0.7869,0.7194,0.7011,0.6514,0.5831,0.5433,0.4595,0.3753,0.3226,0.0,0.0,0.0,0.0,0.0,0.0,0.0,0.0,-0.0448,-0.0561,-0.0617,-0.0728,-0.1006,-0.1382,-0.1531,-0.2152,-0.277,-0.3132,-0.3607,-0.3829,-0.4583,-0.5409,-0.6144,-0.6559,-0.6975,-0.7753,-0.826,-0.841,-0.8507,-0.8634,-0.8871,-0.941,-1.0047,-1.0877,-1.1023,-1.0685,-1.0881,-1.117,-1.1463,-1.1365,-1.2242,-1.2872,-1.4292,-1.5083,-1.5124,-1.5118,-1.5064]}]]